<?xml version="1.0" encoding="utf-8"?>
<gpx xmlns:xsi="http://www.w3.org/2001/XMLSchema-instance" xmlns:xsd="http://www.w3.org/2001/XMLSchema" version="1.1" creator="Shapelink.com" xmlns="http://www.topografix.com/GPX/1/1" xmlns:gpxtpx="http://www.garmin.com/xmlschemas/TrackPointExtension/v1">
  <metadata>
    <name>Løping 5.00 km, 2014-05-18</name>
    <desc></desc>
    <author><name>Mikael Blom</name></author> 
    <time>2014-05-18T07:46:26Z</time>
  </metadata>
  <trk>
    <name>Løping 5.00 km, 2014-05-18</name>
    <trkseg>
      <trkpt lat="59.9778094" lon="17.7390506">
        <ele>32.8223</ele>
        <time>2014-05-18T07:46:26Z</time>
      </trkpt>
      <trkpt lat="59.977788" lon="17.7390123">
        <ele>37.1481</ele>
        <time>2014-05-18T07:46:27Z</time>
      </trkpt>
      <trkpt lat="59.977773" lon="17.7390083">
        <ele>29.9381</ele>
        <time>2014-05-18T07:46:28Z</time>
      </trkpt>
      <trkpt lat="59.9777512" lon="17.7390057">
        <ele>29.4575</ele>
        <time>2014-05-18T07:46:29Z</time>
      </trkpt>
      <trkpt lat="59.9777114" lon="17.7390073">
        <ele>31.8607</ele>
        <time>2014-05-18T07:46:30Z</time>
      </trkpt>
      <trkpt lat="59.9776665" lon="17.7390248">
        <ele>35.2255</ele>
        <time>2014-05-18T07:46:31Z</time>
      </trkpt>
      <trkpt lat="59.9776317" lon="17.7390321">
        <ele>35.7061</ele>
        <time>2014-05-18T07:46:32Z</time>
      </trkpt>
      <trkpt lat="59.9775984" lon="17.7390262">
        <ele>35.7061</ele>
        <time>2014-05-18T07:46:33Z</time>
      </trkpt>
      <trkpt lat="59.9775631" lon="17.739034">
        <ele>36.1868</ele>
        <time>2014-05-18T07:46:34Z</time>
      </trkpt>
      <trkpt lat="59.9775266" lon="17.739042">
        <ele>36.1868</ele>
        <time>2014-05-18T07:46:35Z</time>
      </trkpt>
      <trkpt lat="59.977493" lon="17.7390469">
        <ele>36.6675</ele>
        <time>2014-05-18T07:46:36Z</time>
      </trkpt>
      <trkpt lat="59.9774573" lon="17.7390591">
        <ele>36.6675</ele>
        <time>2014-05-18T07:46:37Z</time>
      </trkpt>
      <trkpt lat="59.9774244" lon="17.739071">
        <ele>37.6287</ele>
        <time>2014-05-18T07:46:38Z</time>
      </trkpt>
      <trkpt lat="59.977395" lon="17.7390768">
        <ele>38.1094</ele>
        <time>2014-05-18T07:46:39Z</time>
      </trkpt>
      <trkpt lat="59.9773629" lon="17.7390906">
        <ele>38.1094</ele>
        <time>2014-05-18T07:46:40Z</time>
      </trkpt>
      <trkpt lat="59.9773344" lon="17.7391057">
        <ele>38.5901</ele>
        <time>2014-05-18T07:46:41Z</time>
      </trkpt>
      <trkpt lat="59.9773079" lon="17.7391149">
        <ele>38.5901</ele>
        <time>2014-05-18T07:46:42Z</time>
      </trkpt>
      <trkpt lat="59.9772821" lon="17.7391249">
        <ele>38.1094</ele>
        <time>2014-05-18T07:46:43Z</time>
      </trkpt>
      <trkpt lat="59.9772606" lon="17.7391356">
        <ele>37.1481</ele>
        <time>2014-05-18T07:46:44Z</time>
      </trkpt>
      <trkpt lat="59.9772358" lon="17.7391519">
        <ele>37.1481</ele>
        <time>2014-05-18T07:46:45Z</time>
      </trkpt>
      <trkpt lat="59.9772101" lon="17.7391678">
        <ele>37.6287</ele>
        <time>2014-05-18T07:46:46Z</time>
      </trkpt>
      <trkpt lat="59.9771832" lon="17.7391917">
        <ele>38.5901</ele>
        <time>2014-05-18T07:46:47Z</time>
      </trkpt>
      <trkpt lat="59.9771565" lon="17.7392085">
        <ele>38.5901</ele>
        <time>2014-05-18T07:46:48Z</time>
      </trkpt>
      <trkpt lat="59.9771286" lon="17.7392331">
        <ele>37.6287</ele>
        <time>2014-05-18T07:46:49Z</time>
      </trkpt>
      <trkpt lat="59.9770998" lon="17.7392555">
        <ele>37.6287</ele>
        <time>2014-05-18T07:46:50Z</time>
      </trkpt>
      <trkpt lat="59.97707" lon="17.7392764">
        <ele>37.6287</ele>
        <time>2014-05-18T07:46:51Z</time>
      </trkpt>
      <trkpt lat="59.9770395" lon="17.7392916">
        <ele>37.6287</ele>
        <time>2014-05-18T07:46:52Z</time>
      </trkpt>
      <trkpt lat="59.9770038" lon="17.7393165">
        <ele>39.0707</ele>
        <time>2014-05-18T07:46:53Z</time>
      </trkpt>
      <trkpt lat="59.9769801" lon="17.7393329">
        <ele>38.5901</ele>
        <time>2014-05-18T07:46:54Z</time>
      </trkpt>
      <trkpt lat="59.9769531" lon="17.7393529">
        <ele>38.5901</ele>
        <time>2014-05-18T07:46:55Z</time>
      </trkpt>
      <trkpt lat="59.9769237" lon="17.7393667">
        <ele>38.5901</ele>
        <time>2014-05-18T07:46:56Z</time>
      </trkpt>
      <trkpt lat="59.9768936" lon="17.7393828">
        <ele>38.5901</ele>
        <time>2014-05-18T07:46:57Z</time>
      </trkpt>
      <trkpt lat="59.9768629" lon="17.7393998">
        <ele>39.0707</ele>
        <time>2014-05-18T07:46:58Z</time>
      </trkpt>
      <trkpt lat="59.9768335" lon="17.739406">
        <ele>39.0707</ele>
        <time>2014-05-18T07:46:59Z</time>
      </trkpt>
      <trkpt lat="59.9768059" lon="17.7394129">
        <ele>38.1094</ele>
        <time>2014-05-18T07:47:00Z</time>
      </trkpt>
      <trkpt lat="59.9767784" lon="17.7394211">
        <ele>37.6287</ele>
        <time>2014-05-18T07:47:01Z</time>
      </trkpt>
      <trkpt lat="59.9767516" lon="17.7394285">
        <ele>37.6287</ele>
        <time>2014-05-18T07:47:02Z</time>
      </trkpt>
      <trkpt lat="59.9767242" lon="17.7394377">
        <ele>37.1481</ele>
        <time>2014-05-18T07:47:03Z</time>
      </trkpt>
      <trkpt lat="59.9766972" lon="17.7394422">
        <ele>36.6675</ele>
        <time>2014-05-18T07:47:04Z</time>
      </trkpt>
      <trkpt lat="59.9766722" lon="17.7394464">
        <ele>36.1868</ele>
        <time>2014-05-18T07:47:05Z</time>
      </trkpt>
      <trkpt lat="59.976644" lon="17.7394593">
        <ele>36.1868</ele>
        <time>2014-05-18T07:47:06Z</time>
      </trkpt>
      <trkpt lat="59.9766124" lon="17.7394813">
        <ele>36.1868</ele>
        <time>2014-05-18T07:47:07Z</time>
      </trkpt>
      <trkpt lat="59.9765776" lon="17.7395002">
        <ele>36.6675</ele>
        <time>2014-05-18T07:47:08Z</time>
      </trkpt>
      <trkpt lat="59.9765495" lon="17.7395113">
        <ele>36.6675</ele>
        <time>2014-05-18T07:47:09Z</time>
      </trkpt>
      <trkpt lat="59.9765237" lon="17.7395295">
        <ele>36.6675</ele>
        <time>2014-05-18T07:47:10Z</time>
      </trkpt>
      <trkpt lat="59.9764962" lon="17.7395579">
        <ele>37.1481</ele>
        <time>2014-05-18T07:47:11Z</time>
      </trkpt>
      <trkpt lat="59.9764758" lon="17.7395782">
        <ele>37.1481</ele>
        <time>2014-05-18T07:47:12Z</time>
      </trkpt>
      <trkpt lat="59.9764525" lon="17.7396045">
        <ele>37.6287</ele>
        <time>2014-05-18T07:47:13Z</time>
      </trkpt>
      <trkpt lat="59.9764258" lon="17.7396336">
        <ele>38.1094</ele>
        <time>2014-05-18T07:47:14Z</time>
      </trkpt>
      <trkpt lat="59.9764013" lon="17.739661">
        <ele>38.1094</ele>
        <time>2014-05-18T07:47:15Z</time>
      </trkpt>
      <trkpt lat="59.9763741" lon="17.739697">
        <ele>38.5901</ele>
        <time>2014-05-18T07:47:16Z</time>
      </trkpt>
      <trkpt lat="59.9763477" lon="17.7397242">
        <ele>39.0707</ele>
        <time>2014-05-18T07:47:17Z</time>
      </trkpt>
      <trkpt lat="59.976322" lon="17.7397444">
        <ele>38.5901</ele>
        <time>2014-05-18T07:47:18Z</time>
      </trkpt>
      <trkpt lat="59.9762917" lon="17.7397716">
        <ele>38.5901</ele>
        <time>2014-05-18T07:47:19Z</time>
      </trkpt>
      <trkpt lat="59.9762629" lon="17.7397931">
        <ele>38.1094</ele>
        <time>2014-05-18T07:47:20Z</time>
      </trkpt>
      <trkpt lat="59.9762348" lon="17.7398025">
        <ele>37.1481</ele>
        <time>2014-05-18T07:47:21Z</time>
      </trkpt>
      <trkpt lat="59.9762046" lon="17.7398071">
        <ele>36.6675</ele>
        <time>2014-05-18T07:47:22Z</time>
      </trkpt>
      <trkpt lat="59.976178" lon="17.7398006">
        <ele>35.7061</ele>
        <time>2014-05-18T07:47:23Z</time>
      </trkpt>
      <trkpt lat="59.9761519" lon="17.7397925">
        <ele>35.2255</ele>
        <time>2014-05-18T07:47:24Z</time>
      </trkpt>
      <trkpt lat="59.9761259" lon="17.7397848">
        <ele>34.2642</ele>
        <time>2014-05-18T07:47:25Z</time>
      </trkpt>
      <trkpt lat="59.9760992" lon="17.7397717">
        <ele>34.2642</ele>
        <time>2014-05-18T07:47:26Z</time>
      </trkpt>
      <trkpt lat="59.9760751" lon="17.7397454">
        <ele>34.2642</ele>
        <time>2014-05-18T07:47:27Z</time>
      </trkpt>
      <trkpt lat="59.9760533" lon="17.739717">
        <ele>33.3029</ele>
        <time>2014-05-18T07:47:28Z</time>
      </trkpt>
      <trkpt lat="59.9760294" lon="17.739687">
        <ele>32.8223</ele>
        <time>2014-05-18T07:47:29Z</time>
      </trkpt>
      <trkpt lat="59.9760093" lon="17.7396521">
        <ele>32.3416</ele>
        <time>2014-05-18T07:47:30Z</time>
      </trkpt>
      <trkpt lat="59.9759907" lon="17.7396141">
        <ele>31.8607</ele>
        <time>2014-05-18T07:47:31Z</time>
      </trkpt>
      <trkpt lat="59.975973" lon="17.7395796">
        <ele>30.8995</ele>
        <time>2014-05-18T07:47:32Z</time>
      </trkpt>
      <trkpt lat="59.9759573" lon="17.7395453">
        <ele>29.9381</ele>
        <time>2014-05-18T07:47:33Z</time>
      </trkpt>
      <trkpt lat="59.9759403" lon="17.739507">
        <ele>29.9381</ele>
        <time>2014-05-18T07:47:34Z</time>
      </trkpt>
      <trkpt lat="59.9759206" lon="17.7394675">
        <ele>29.9381</ele>
        <time>2014-05-18T07:47:35Z</time>
      </trkpt>
      <trkpt lat="59.9759021" lon="17.739424">
        <ele>29.9381</ele>
        <time>2014-05-18T07:47:36Z</time>
      </trkpt>
      <trkpt lat="59.9758876" lon="17.7393808">
        <ele>29.4575</ele>
        <time>2014-05-18T07:47:37Z</time>
      </trkpt>
      <trkpt lat="59.9758688" lon="17.7393487">
        <ele>29.9381</ele>
        <time>2014-05-18T07:47:38Z</time>
      </trkpt>
      <trkpt lat="59.9758524" lon="17.7393121">
        <ele>29.4575</ele>
        <time>2014-05-18T07:47:39Z</time>
      </trkpt>
      <trkpt lat="59.9758387" lon="17.7392688">
        <ele>28.9769</ele>
        <time>2014-05-18T07:47:40Z</time>
      </trkpt>
      <trkpt lat="59.9758289" lon="17.7392257">
        <ele>28.4962</ele>
        <time>2014-05-18T07:47:41Z</time>
      </trkpt>
      <trkpt lat="59.9758165" lon="17.739187">
        <ele>28.9769</ele>
        <time>2014-05-18T07:47:42Z</time>
      </trkpt>
      <trkpt lat="59.9758021" lon="17.7391527">
        <ele>28.9769</ele>
        <time>2014-05-18T07:47:43Z</time>
      </trkpt>
      <trkpt lat="59.9757872" lon="17.7391228">
        <ele>28.9769</ele>
        <time>2014-05-18T07:47:44Z</time>
      </trkpt>
      <trkpt lat="59.9757636" lon="17.739091">
        <ele>28.9769</ele>
        <time>2014-05-18T07:47:45Z</time>
      </trkpt>
      <trkpt lat="59.9757413" lon="17.739054">
        <ele>29.4575</ele>
        <time>2014-05-18T07:47:46Z</time>
      </trkpt>
      <trkpt lat="59.9757198" lon="17.7390165">
        <ele>29.4575</ele>
        <time>2014-05-18T07:47:47Z</time>
      </trkpt>
      <trkpt lat="59.9757001" lon="17.7389801">
        <ele>28.9769</ele>
        <time>2014-05-18T07:47:48Z</time>
      </trkpt>
      <trkpt lat="59.975682" lon="17.7389439">
        <ele>28.9769</ele>
        <time>2014-05-18T07:47:49Z</time>
      </trkpt>
      <trkpt lat="59.9756623" lon="17.7388991">
        <ele>28.9769</ele>
        <time>2014-05-18T07:47:50Z</time>
      </trkpt>
      <trkpt lat="59.9756408" lon="17.7388582">
        <ele>28.9769</ele>
        <time>2014-05-18T07:47:51Z</time>
      </trkpt>
      <trkpt lat="59.9756177" lon="17.7388229">
        <ele>29.4575</ele>
        <time>2014-05-18T07:47:52Z</time>
      </trkpt>
      <trkpt lat="59.9755935" lon="17.7387845">
        <ele>29.4575</ele>
        <time>2014-05-18T07:47:53Z</time>
      </trkpt>
      <trkpt lat="59.9755707" lon="17.7387436">
        <ele>29.4575</ele>
        <time>2014-05-18T07:47:54Z</time>
      </trkpt>
      <trkpt lat="59.9755484" lon="17.7387125">
        <ele>29.4575</ele>
        <time>2014-05-18T07:47:55Z</time>
      </trkpt>
      <trkpt lat="59.9755224" lon="17.7386826">
        <ele>29.4575</ele>
        <time>2014-05-18T07:47:56Z</time>
      </trkpt>
      <trkpt lat="59.9755009" lon="17.7386441">
        <ele>28.9769</ele>
        <time>2014-05-18T07:47:57Z</time>
      </trkpt>
      <trkpt lat="59.9754855" lon="17.7385994">
        <ele>28.4962</ele>
        <time>2014-05-18T07:47:58Z</time>
      </trkpt>
      <trkpt lat="59.9754639" lon="17.7385584">
        <ele>28.4962</ele>
        <time>2014-05-18T07:47:59Z</time>
      </trkpt>
      <trkpt lat="59.9754386" lon="17.7385232">
        <ele>29.4575</ele>
        <time>2014-05-18T07:48:00Z</time>
      </trkpt>
      <trkpt lat="59.9754121" lon="17.7384831">
        <ele>29.4575</ele>
        <time>2014-05-18T07:48:01Z</time>
      </trkpt>
      <trkpt lat="59.9753859" lon="17.7384436">
        <ele>29.9381</ele>
        <time>2014-05-18T07:48:02Z</time>
      </trkpt>
      <trkpt lat="59.9753618" lon="17.7384053">
        <ele>30.4188</ele>
        <time>2014-05-18T07:48:03Z</time>
      </trkpt>
      <trkpt lat="59.9753409" lon="17.7383664">
        <ele>30.4188</ele>
        <time>2014-05-18T07:48:04Z</time>
      </trkpt>
      <trkpt lat="59.9753261" lon="17.7383244">
        <ele>29.9381</ele>
        <time>2014-05-18T07:48:05Z</time>
      </trkpt>
      <trkpt lat="59.9753029" lon="17.7382882">
        <ele>30.4188</ele>
        <time>2014-05-18T07:48:06Z</time>
      </trkpt>
      <trkpt lat="59.9752813" lon="17.7382535">
        <ele>30.8995</ele>
        <time>2014-05-18T07:48:07Z</time>
      </trkpt>
      <trkpt lat="59.9752591" lon="17.7382178">
        <ele>30.8995</ele>
        <time>2014-05-18T07:48:08Z</time>
      </trkpt>
      <trkpt lat="59.9752364" lon="17.7381773">
        <ele>30.8995</ele>
        <time>2014-05-18T07:48:09Z</time>
      </trkpt>
      <trkpt lat="59.9752167" lon="17.7381344">
        <ele>30.8995</ele>
        <time>2014-05-18T07:48:10Z</time>
      </trkpt>
      <trkpt lat="59.9751976" lon="17.7380945">
        <ele>30.8995</ele>
        <time>2014-05-18T07:48:11Z</time>
      </trkpt>
      <trkpt lat="59.9751754" lon="17.7380557">
        <ele>30.4188</ele>
        <time>2014-05-18T07:48:12Z</time>
      </trkpt>
      <trkpt lat="59.9751542" lon="17.7380185">
        <ele>30.4188</ele>
        <time>2014-05-18T07:48:13Z</time>
      </trkpt>
      <trkpt lat="59.9751327" lon="17.7379862">
        <ele>30.4188</ele>
        <time>2014-05-18T07:48:14Z</time>
      </trkpt>
      <trkpt lat="59.9751115" lon="17.7379484">
        <ele>29.9381</ele>
        <time>2014-05-18T07:48:15Z</time>
      </trkpt>
      <trkpt lat="59.9750871" lon="17.7379058">
        <ele>30.4188</ele>
        <time>2014-05-18T07:48:16Z</time>
      </trkpt>
      <trkpt lat="59.9750645" lon="17.7378687">
        <ele>30.4188</ele>
        <time>2014-05-18T07:48:17Z</time>
      </trkpt>
      <trkpt lat="59.9750448" lon="17.7378356">
        <ele>30.4188</ele>
        <time>2014-05-18T07:48:18Z</time>
      </trkpt>
      <trkpt lat="59.9750259" lon="17.7378019">
        <ele>30.4188</ele>
        <time>2014-05-18T07:48:19Z</time>
      </trkpt>
      <trkpt lat="59.975008" lon="17.7377625">
        <ele>30.4188</ele>
        <time>2014-05-18T07:48:20Z</time>
      </trkpt>
      <trkpt lat="59.974991" lon="17.7377169">
        <ele>30.4188</ele>
        <time>2014-05-18T07:48:21Z</time>
      </trkpt>
      <trkpt lat="59.9749692" lon="17.7376759">
        <ele>30.8995</ele>
        <time>2014-05-18T07:48:22Z</time>
      </trkpt>
      <trkpt lat="59.9749501" lon="17.7376422">
        <ele>30.8995</ele>
        <time>2014-05-18T07:48:23Z</time>
      </trkpt>
      <trkpt lat="59.9749257" lon="17.7376038">
        <ele>30.8995</ele>
        <time>2014-05-18T07:48:24Z</time>
      </trkpt>
      <trkpt lat="59.9749024" lon="17.737552">
        <ele>30.8995</ele>
        <time>2014-05-18T07:48:25Z</time>
      </trkpt>
      <trkpt lat="59.9748819" lon="17.7374993">
        <ele>30.4188</ele>
        <time>2014-05-18T07:48:26Z</time>
      </trkpt>
      <trkpt lat="59.9748563" lon="17.7374585">
        <ele>30.4188</ele>
        <time>2014-05-18T07:48:27Z</time>
      </trkpt>
      <trkpt lat="59.9748355" lon="17.7374186">
        <ele>30.4188</ele>
        <time>2014-05-18T07:48:28Z</time>
      </trkpt>
      <trkpt lat="59.9748161" lon="17.7373791">
        <ele>29.9381</ele>
        <time>2014-05-18T07:48:29Z</time>
      </trkpt>
      <trkpt lat="59.9747946" lon="17.7373402">
        <ele>29.9381</ele>
        <time>2014-05-18T07:48:30Z</time>
      </trkpt>
      <trkpt lat="59.974778" lon="17.7372968">
        <ele>29.9381</ele>
        <time>2014-05-18T07:48:31Z</time>
      </trkpt>
      <trkpt lat="59.9747635" lon="17.7372501">
        <ele>29.9381</ele>
        <time>2014-05-18T07:48:32Z</time>
      </trkpt>
      <trkpt lat="59.9747472" lon="17.7372056">
        <ele>29.9381</ele>
        <time>2014-05-18T07:48:33Z</time>
      </trkpt>
      <trkpt lat="59.9747288" lon="17.7371573">
        <ele>29.9381</ele>
        <time>2014-05-18T07:48:34Z</time>
      </trkpt>
      <trkpt lat="59.974711" lon="17.7371034">
        <ele>29.9381</ele>
        <time>2014-05-18T07:48:35Z</time>
      </trkpt>
      <trkpt lat="59.9746957" lon="17.7370511">
        <ele>29.4575</ele>
        <time>2014-05-18T07:48:36Z</time>
      </trkpt>
      <trkpt lat="59.9746801" lon="17.7370032">
        <ele>28.9769</ele>
        <time>2014-05-18T07:48:37Z</time>
      </trkpt>
      <trkpt lat="59.9746651" lon="17.7369589">
        <ele>28.9769</ele>
        <time>2014-05-18T07:48:38Z</time>
      </trkpt>
      <trkpt lat="59.9746546" lon="17.7369154">
        <ele>28.4962</ele>
        <time>2014-05-18T07:48:39Z</time>
      </trkpt>
      <trkpt lat="59.9746428" lon="17.7368695">
        <ele>28.4962</ele>
        <time>2014-05-18T07:48:40Z</time>
      </trkpt>
      <trkpt lat="59.9746277" lon="17.7368218">
        <ele>28.4962</ele>
        <time>2014-05-18T07:48:41Z</time>
      </trkpt>
      <trkpt lat="59.9746116" lon="17.7367709">
        <ele>28.4962</ele>
        <time>2014-05-18T07:48:42Z</time>
      </trkpt>
      <trkpt lat="59.9745925" lon="17.7367114">
        <ele>28.9769</ele>
        <time>2014-05-18T07:48:43Z</time>
      </trkpt>
      <trkpt lat="59.9745718" lon="17.7366513">
        <ele>28.9769</ele>
        <time>2014-05-18T07:48:44Z</time>
      </trkpt>
      <trkpt lat="59.9745527" lon="17.7365975">
        <ele>29.4575</ele>
        <time>2014-05-18T07:48:45Z</time>
      </trkpt>
      <trkpt lat="59.9745361" lon="17.7365461">
        <ele>28.9769</ele>
        <time>2014-05-18T07:48:46Z</time>
      </trkpt>
      <trkpt lat="59.974524" lon="17.7364963">
        <ele>28.0155</ele>
        <time>2014-05-18T07:48:47Z</time>
      </trkpt>
      <trkpt lat="59.9745111" lon="17.7364481">
        <ele>28.4962</ele>
        <time>2014-05-18T07:48:48Z</time>
      </trkpt>
      <trkpt lat="59.9744988" lon="17.7364006">
        <ele>28.4962</ele>
        <time>2014-05-18T07:48:49Z</time>
      </trkpt>
      <trkpt lat="59.9744836" lon="17.7363489">
        <ele>28.4962</ele>
        <time>2014-05-18T07:48:50Z</time>
      </trkpt>
      <trkpt lat="59.9744703" lon="17.7362995">
        <ele>28.4962</ele>
        <time>2014-05-18T07:48:51Z</time>
      </trkpt>
      <trkpt lat="59.9744588" lon="17.7362488">
        <ele>28.4962</ele>
        <time>2014-05-18T07:48:52Z</time>
      </trkpt>
      <trkpt lat="59.9744487" lon="17.7361991">
        <ele>28.0155</ele>
        <time>2014-05-18T07:48:53Z</time>
      </trkpt>
      <trkpt lat="59.9744387" lon="17.7361507">
        <ele>28.0155</ele>
        <time>2014-05-18T07:48:54Z</time>
      </trkpt>
      <trkpt lat="59.9744299" lon="17.7361022">
        <ele>28.0155</ele>
        <time>2014-05-18T07:48:55Z</time>
      </trkpt>
      <trkpt lat="59.9744168" lon="17.7360608">
        <ele>28.0155</ele>
        <time>2014-05-18T07:48:56Z</time>
      </trkpt>
      <trkpt lat="59.9744088" lon="17.7360204">
        <ele>27.5349</ele>
        <time>2014-05-18T07:48:57Z</time>
      </trkpt>
      <trkpt lat="59.9744049" lon="17.7359686">
        <ele>27.0543</ele>
        <time>2014-05-18T07:48:58Z</time>
      </trkpt>
      <trkpt lat="59.9743999" lon="17.7359125">
        <ele>26.5736</ele>
        <time>2014-05-18T07:48:59Z</time>
      </trkpt>
      <trkpt lat="59.9743848" lon="17.7358583">
        <ele>27.0543</ele>
        <time>2014-05-18T07:49:00Z</time>
      </trkpt>
      <trkpt lat="59.9743758" lon="17.7358008">
        <ele>26.5736</ele>
        <time>2014-05-18T07:49:01Z</time>
      </trkpt>
      <trkpt lat="59.9743715" lon="17.7357415">
        <ele>26.0929</ele>
        <time>2014-05-18T07:49:02Z</time>
      </trkpt>
      <trkpt lat="59.9743637" lon="17.7356833">
        <ele>26.0929</ele>
        <time>2014-05-18T07:49:03Z</time>
      </trkpt>
      <trkpt lat="59.9743575" lon="17.7356267">
        <ele>25.6123</ele>
        <time>2014-05-18T07:49:04Z</time>
      </trkpt>
      <trkpt lat="59.9743538" lon="17.7355714">
        <ele>25.1317</ele>
        <time>2014-05-18T07:49:05Z</time>
      </trkpt>
      <trkpt lat="59.9743481" lon="17.7355144">
        <ele>25.1317</ele>
        <time>2014-05-18T07:49:06Z</time>
      </trkpt>
      <trkpt lat="59.9743433" lon="17.7354573">
        <ele>25.1317</ele>
        <time>2014-05-18T07:49:07Z</time>
      </trkpt>
      <trkpt lat="59.9743372" lon="17.7353957">
        <ele>25.1317</ele>
        <time>2014-05-18T07:49:08Z</time>
      </trkpt>
      <trkpt lat="59.9743298" lon="17.7353307">
        <ele>24.651</ele>
        <time>2014-05-18T07:49:09Z</time>
      </trkpt>
      <trkpt lat="59.9743211" lon="17.7352696">
        <ele>24.651</ele>
        <time>2014-05-18T07:49:10Z</time>
      </trkpt>
      <trkpt lat="59.9743149" lon="17.7352124">
        <ele>24.651</ele>
        <time>2014-05-18T07:49:11Z</time>
      </trkpt>
      <trkpt lat="59.9743117" lon="17.7351559">
        <ele>24.651</ele>
        <time>2014-05-18T07:49:12Z</time>
      </trkpt>
      <trkpt lat="59.9743096" lon="17.7351008">
        <ele>24.1703</ele>
        <time>2014-05-18T07:49:13Z</time>
      </trkpt>
      <trkpt lat="59.9743059" lon="17.7350438">
        <ele>24.1703</ele>
        <time>2014-05-18T07:49:14Z</time>
      </trkpt>
      <trkpt lat="59.974302" lon="17.7349811">
        <ele>24.1703</ele>
        <time>2014-05-18T07:49:15Z</time>
      </trkpt>
      <trkpt lat="59.974303" lon="17.7349227">
        <ele>23.6896</ele>
        <time>2014-05-18T07:49:16Z</time>
      </trkpt>
      <trkpt lat="59.9742994" lon="17.7348659">
        <ele>24.1703</ele>
        <time>2014-05-18T07:49:17Z</time>
      </trkpt>
      <trkpt lat="59.974299" lon="17.734804">
        <ele>23.6896</ele>
        <time>2014-05-18T07:49:18Z</time>
      </trkpt>
      <trkpt lat="59.9742958" lon="17.7347451">
        <ele>23.6896</ele>
        <time>2014-05-18T07:49:19Z</time>
      </trkpt>
      <trkpt lat="59.9742964" lon="17.7346865">
        <ele>23.6896</ele>
        <time>2014-05-18T07:49:20Z</time>
      </trkpt>
      <trkpt lat="59.9742953" lon="17.7346226">
        <ele>23.209</ele>
        <time>2014-05-18T07:49:21Z</time>
      </trkpt>
      <trkpt lat="59.9742924" lon="17.7345622">
        <ele>23.209</ele>
        <time>2014-05-18T07:49:22Z</time>
      </trkpt>
      <trkpt lat="59.9742932" lon="17.7345045">
        <ele>22.7283</ele>
        <time>2014-05-18T07:49:23Z</time>
      </trkpt>
      <trkpt lat="59.9742968" lon="17.7344455">
        <ele>21.767</ele>
        <time>2014-05-18T07:49:24Z</time>
      </trkpt>
      <trkpt lat="59.9742992" lon="17.7343874">
        <ele>21.767</ele>
        <time>2014-05-18T07:49:25Z</time>
      </trkpt>
      <trkpt lat="59.9742997" lon="17.7343322">
        <ele>21.767</ele>
        <time>2014-05-18T07:49:26Z</time>
      </trkpt>
      <trkpt lat="59.9743009" lon="17.7342783">
        <ele>21.767</ele>
        <time>2014-05-18T07:49:27Z</time>
      </trkpt>
      <trkpt lat="59.9743051" lon="17.7342246">
        <ele>21.767</ele>
        <time>2014-05-18T07:49:28Z</time>
      </trkpt>
      <trkpt lat="59.9743077" lon="17.734172">
        <ele>21.2864</ele>
        <time>2014-05-18T07:49:29Z</time>
      </trkpt>
      <trkpt lat="59.9743122" lon="17.7341153">
        <ele>21.2864</ele>
        <time>2014-05-18T07:49:30Z</time>
      </trkpt>
      <trkpt lat="59.9743144" lon="17.7340575">
        <ele>21.2864</ele>
        <time>2014-05-18T07:49:31Z</time>
      </trkpt>
      <trkpt lat="59.9743194" lon="17.7340064">
        <ele>20.8057</ele>
        <time>2014-05-18T07:49:32Z</time>
      </trkpt>
      <trkpt lat="59.9743242" lon="17.733956">
        <ele>20.8057</ele>
        <time>2014-05-18T07:49:33Z</time>
      </trkpt>
      <trkpt lat="59.9743308" lon="17.7339015">
        <ele>20.325</ele>
        <time>2014-05-18T07:49:34Z</time>
      </trkpt>
      <trkpt lat="59.9743367" lon="17.7338494">
        <ele>20.325</ele>
        <time>2014-05-18T07:49:35Z</time>
      </trkpt>
      <trkpt lat="59.974339" lon="17.7337941">
        <ele>20.325</ele>
        <time>2014-05-18T07:49:36Z</time>
      </trkpt>
      <trkpt lat="59.974343" lon="17.7337353">
        <ele>20.325</ele>
        <time>2014-05-18T07:49:37Z</time>
      </trkpt>
      <trkpt lat="59.9743443" lon="17.7336781">
        <ele>20.325</ele>
        <time>2014-05-18T07:49:38Z</time>
      </trkpt>
      <trkpt lat="59.9743454" lon="17.7336229">
        <ele>20.8057</ele>
        <time>2014-05-18T07:49:39Z</time>
      </trkpt>
      <trkpt lat="59.9743481" lon="17.7335636">
        <ele>20.8057</ele>
        <time>2014-05-18T07:49:40Z</time>
      </trkpt>
      <trkpt lat="59.9743538" lon="17.7335038">
        <ele>20.8057</ele>
        <time>2014-05-18T07:49:41Z</time>
      </trkpt>
      <trkpt lat="59.9743592" lon="17.7334421">
        <ele>20.325</ele>
        <time>2014-05-18T07:49:42Z</time>
      </trkpt>
      <trkpt lat="59.9743626" lon="17.7333816">
        <ele>20.325</ele>
        <time>2014-05-18T07:49:43Z</time>
      </trkpt>
      <trkpt lat="59.9743707" lon="17.7333269">
        <ele>19.8444</ele>
        <time>2014-05-18T07:49:44Z</time>
      </trkpt>
      <trkpt lat="59.9743753" lon="17.7332691">
        <ele>19.8444</ele>
        <time>2014-05-18T07:49:45Z</time>
      </trkpt>
      <trkpt lat="59.9743787" lon="17.7332143">
        <ele>19.8444</ele>
        <time>2014-05-18T07:49:46Z</time>
      </trkpt>
      <trkpt lat="59.9743786" lon="17.7331594">
        <ele>19.8444</ele>
        <time>2014-05-18T07:49:47Z</time>
      </trkpt>
      <trkpt lat="59.9743844" lon="17.7330994">
        <ele>19.8444</ele>
        <time>2014-05-18T07:49:48Z</time>
      </trkpt>
      <trkpt lat="59.9743893" lon="17.7330403">
        <ele>19.8444</ele>
        <time>2014-05-18T07:49:49Z</time>
      </trkpt>
      <trkpt lat="59.9743885" lon="17.7329807">
        <ele>20.325</ele>
        <time>2014-05-18T07:49:50Z</time>
      </trkpt>
      <trkpt lat="59.9743869" lon="17.7329282">
        <ele>20.8057</ele>
        <time>2014-05-18T07:49:51Z</time>
      </trkpt>
      <trkpt lat="59.9743849" lon="17.732872">
        <ele>20.8057</ele>
        <time>2014-05-18T07:49:52Z</time>
      </trkpt>
      <trkpt lat="59.974389" lon="17.7328148">
        <ele>20.325</ele>
        <time>2014-05-18T07:49:53Z</time>
      </trkpt>
      <trkpt lat="59.9743909" lon="17.7327591">
        <ele>20.325</ele>
        <time>2014-05-18T07:49:54Z</time>
      </trkpt>
      <trkpt lat="59.9743942" lon="17.7327041">
        <ele>20.325</ele>
        <time>2014-05-18T07:49:55Z</time>
      </trkpt>
      <trkpt lat="59.974396" lon="17.7326467">
        <ele>20.325</ele>
        <time>2014-05-18T07:49:56Z</time>
      </trkpt>
      <trkpt lat="59.9744003" lon="17.7325889">
        <ele>19.8444</ele>
        <time>2014-05-18T07:49:57Z</time>
      </trkpt>
      <trkpt lat="59.9744041" lon="17.7325286">
        <ele>19.3638</ele>
        <time>2014-05-18T07:49:58Z</time>
      </trkpt>
      <trkpt lat="59.9744081" lon="17.7324675">
        <ele>19.3638</ele>
        <time>2014-05-18T07:49:59Z</time>
      </trkpt>
      <trkpt lat="59.9744129" lon="17.7324134">
        <ele>18.8831</ele>
        <time>2014-05-18T07:50:00Z</time>
      </trkpt>
      <trkpt lat="59.9744131" lon="17.7323574">
        <ele>18.8831</ele>
        <time>2014-05-18T07:50:01Z</time>
      </trkpt>
      <trkpt lat="59.9744136" lon="17.7323004">
        <ele>18.8831</ele>
        <time>2014-05-18T07:50:02Z</time>
      </trkpt>
      <trkpt lat="59.9744072" lon="17.732242">
        <ele>18.8831</ele>
        <time>2014-05-18T07:50:03Z</time>
      </trkpt>
      <trkpt lat="59.9744051" lon="17.7321875">
        <ele>18.4023</ele>
        <time>2014-05-18T07:50:04Z</time>
      </trkpt>
      <trkpt lat="59.9744008" lon="17.7321315">
        <ele>19.3638</ele>
        <time>2014-05-18T07:50:05Z</time>
      </trkpt>
      <trkpt lat="59.9743995" lon="17.7320726">
        <ele>19.3638</ele>
        <time>2014-05-18T07:50:06Z</time>
      </trkpt>
      <trkpt lat="59.9743965" lon="17.7320123">
        <ele>19.3638</ele>
        <time>2014-05-18T07:50:07Z</time>
      </trkpt>
      <trkpt lat="59.9743936" lon="17.7319545">
        <ele>19.3638</ele>
        <time>2014-05-18T07:50:08Z</time>
      </trkpt>
      <trkpt lat="59.974391" lon="17.7319012">
        <ele>19.8444</ele>
        <time>2014-05-18T07:50:09Z</time>
      </trkpt>
      <trkpt lat="59.9743885" lon="17.7318445">
        <ele>19.8444</ele>
        <time>2014-05-18T07:50:10Z</time>
      </trkpt>
      <trkpt lat="59.9743889" lon="17.7317914">
        <ele>19.8444</ele>
        <time>2014-05-18T07:50:11Z</time>
      </trkpt>
      <trkpt lat="59.9743869" lon="17.7317385">
        <ele>19.8444</ele>
        <time>2014-05-18T07:50:12Z</time>
      </trkpt>
      <trkpt lat="59.9743859" lon="17.7316806">
        <ele>19.8444</ele>
        <time>2014-05-18T07:50:13Z</time>
      </trkpt>
      <trkpt lat="59.974382" lon="17.7316198">
        <ele>19.8444</ele>
        <time>2014-05-18T07:50:14Z</time>
      </trkpt>
      <trkpt lat="59.9743829" lon="17.7315603">
        <ele>19.8444</ele>
        <time>2014-05-18T07:50:15Z</time>
      </trkpt>
      <trkpt lat="59.9743843" lon="17.7315018">
        <ele>19.8444</ele>
        <time>2014-05-18T07:50:16Z</time>
      </trkpt>
      <trkpt lat="59.9743875" lon="17.7314434">
        <ele>19.3638</ele>
        <time>2014-05-18T07:50:17Z</time>
      </trkpt>
      <trkpt lat="59.9743901" lon="17.7313835">
        <ele>19.3638</ele>
        <time>2014-05-18T07:50:18Z</time>
      </trkpt>
      <trkpt lat="59.9743919" lon="17.7313266">
        <ele>19.3638</ele>
        <time>2014-05-18T07:50:19Z</time>
      </trkpt>
      <trkpt lat="59.9743952" lon="17.7312731">
        <ele>18.8831</ele>
        <time>2014-05-18T07:50:20Z</time>
      </trkpt>
      <trkpt lat="59.9743962" lon="17.7312147">
        <ele>19.3638</ele>
        <time>2014-05-18T07:50:21Z</time>
      </trkpt>
      <trkpt lat="59.9744012" lon="17.7311542">
        <ele>19.3638</ele>
        <time>2014-05-18T07:50:22Z</time>
      </trkpt>
      <trkpt lat="59.9744028" lon="17.7310939">
        <ele>19.3638</ele>
        <time>2014-05-18T07:50:23Z</time>
      </trkpt>
      <trkpt lat="59.9744075" lon="17.731036">
        <ele>19.3638</ele>
        <time>2014-05-18T07:50:24Z</time>
      </trkpt>
      <trkpt lat="59.9744133" lon="17.7309754">
        <ele>19.3638</ele>
        <time>2014-05-18T07:50:25Z</time>
      </trkpt>
      <trkpt lat="59.9744153" lon="17.730914">
        <ele>19.3638</ele>
        <time>2014-05-18T07:50:26Z</time>
      </trkpt>
      <trkpt lat="59.9744173" lon="17.7308491">
        <ele>18.8831</ele>
        <time>2014-05-18T07:50:27Z</time>
      </trkpt>
      <trkpt lat="59.9744195" lon="17.7307832">
        <ele>18.8831</ele>
        <time>2014-05-18T07:50:28Z</time>
      </trkpt>
      <trkpt lat="59.9744258" lon="17.730722">
        <ele>18.8831</ele>
        <time>2014-05-18T07:50:29Z</time>
      </trkpt>
      <trkpt lat="59.9744333" lon="17.7306635">
        <ele>18.4023</ele>
        <time>2014-05-18T07:50:30Z</time>
      </trkpt>
      <trkpt lat="59.9744352" lon="17.7306082">
        <ele>18.8831</ele>
        <time>2014-05-18T07:50:31Z</time>
      </trkpt>
      <trkpt lat="59.9744386" lon="17.7305501">
        <ele>18.8831</ele>
        <time>2014-05-18T07:50:32Z</time>
      </trkpt>
      <trkpt lat="59.974447" lon="17.7304879">
        <ele>18.4023</ele>
        <time>2014-05-18T07:50:33Z</time>
      </trkpt>
      <trkpt lat="59.97445" lon="17.7304306">
        <ele>18.4023</ele>
        <time>2014-05-18T07:50:34Z</time>
      </trkpt>
      <trkpt lat="59.9744505" lon="17.7303773">
        <ele>18.8831</ele>
        <time>2014-05-18T07:50:35Z</time>
      </trkpt>
      <trkpt lat="59.9744528" lon="17.7303181">
        <ele>18.8831</ele>
        <time>2014-05-18T07:50:36Z</time>
      </trkpt>
      <trkpt lat="59.9744558" lon="17.7302554">
        <ele>19.3638</ele>
        <time>2014-05-18T07:50:37Z</time>
      </trkpt>
      <trkpt lat="59.9744635" lon="17.7301955">
        <ele>19.3638</ele>
        <time>2014-05-18T07:50:38Z</time>
      </trkpt>
      <trkpt lat="59.9744712" lon="17.7301349">
        <ele>19.3638</ele>
        <time>2014-05-18T07:50:39Z</time>
      </trkpt>
      <trkpt lat="59.9744807" lon="17.730076">
        <ele>18.8831</ele>
        <time>2014-05-18T07:50:40Z</time>
      </trkpt>
      <trkpt lat="59.9744856" lon="17.7300149">
        <ele>19.3638</ele>
        <time>2014-05-18T07:50:41Z</time>
      </trkpt>
      <trkpt lat="59.9744958" lon="17.7299529">
        <ele>18.8831</ele>
        <time>2014-05-18T07:50:42Z</time>
      </trkpt>
      <trkpt lat="59.9744992" lon="17.7298918">
        <ele>19.3638</ele>
        <time>2014-05-18T07:50:43Z</time>
      </trkpt>
      <trkpt lat="59.974503" lon="17.7298386">
        <ele>18.8831</ele>
        <time>2014-05-18T07:50:44Z</time>
      </trkpt>
      <trkpt lat="59.9745058" lon="17.7297794">
        <ele>18.8831</ele>
        <time>2014-05-18T07:50:45Z</time>
      </trkpt>
      <trkpt lat="59.9745097" lon="17.7297189">
        <ele>18.8831</ele>
        <time>2014-05-18T07:50:46Z</time>
      </trkpt>
      <trkpt lat="59.9745127" lon="17.7296593">
        <ele>18.8831</ele>
        <time>2014-05-18T07:50:47Z</time>
      </trkpt>
      <trkpt lat="59.9745107" lon="17.729598">
        <ele>19.3638</ele>
        <time>2014-05-18T07:50:48Z</time>
      </trkpt>
      <trkpt lat="59.9745102" lon="17.7295411">
        <ele>19.8444</ele>
        <time>2014-05-18T07:50:49Z</time>
      </trkpt>
      <trkpt lat="59.9745102" lon="17.7294857">
        <ele>19.8444</ele>
        <time>2014-05-18T07:50:50Z</time>
      </trkpt>
      <trkpt lat="59.9745084" lon="17.7294297">
        <ele>19.8444</ele>
        <time>2014-05-18T07:50:51Z</time>
      </trkpt>
      <trkpt lat="59.9745072" lon="17.729371">
        <ele>20.325</ele>
        <time>2014-05-18T07:50:52Z</time>
      </trkpt>
      <trkpt lat="59.9745045" lon="17.7293115">
        <ele>20.8057</ele>
        <time>2014-05-18T07:50:53Z</time>
      </trkpt>
      <trkpt lat="59.974502" lon="17.7292557">
        <ele>20.8057</ele>
        <time>2014-05-18T07:50:54Z</time>
      </trkpt>
      <trkpt lat="59.9744998" lon="17.7291977">
        <ele>20.8057</ele>
        <time>2014-05-18T07:50:55Z</time>
      </trkpt>
      <trkpt lat="59.9744978" lon="17.729139">
        <ele>21.2864</ele>
        <time>2014-05-18T07:50:56Z</time>
      </trkpt>
      <trkpt lat="59.9744952" lon="17.7290781">
        <ele>21.2864</ele>
        <time>2014-05-18T07:50:57Z</time>
      </trkpt>
      <trkpt lat="59.9744922" lon="17.7290185">
        <ele>21.767</ele>
        <time>2014-05-18T07:50:58Z</time>
      </trkpt>
      <trkpt lat="59.9744924" lon="17.7289594">
        <ele>21.767</ele>
        <time>2014-05-18T07:50:59Z</time>
      </trkpt>
      <trkpt lat="59.974489" lon="17.7289014">
        <ele>22.2476</ele>
        <time>2014-05-18T07:51:00Z</time>
      </trkpt>
      <trkpt lat="59.9744869" lon="17.7288465">
        <ele>22.2476</ele>
        <time>2014-05-18T07:51:01Z</time>
      </trkpt>
      <trkpt lat="59.9744852" lon="17.7287911">
        <ele>22.2476</ele>
        <time>2014-05-18T07:51:02Z</time>
      </trkpt>
      <trkpt lat="59.9744822" lon="17.7287346">
        <ele>22.7283</ele>
        <time>2014-05-18T07:51:03Z</time>
      </trkpt>
      <trkpt lat="59.9744815" lon="17.7286785">
        <ele>22.2476</ele>
        <time>2014-05-18T07:51:04Z</time>
      </trkpt>
      <trkpt lat="59.974481" lon="17.7286173">
        <ele>22.2476</ele>
        <time>2014-05-18T07:51:05Z</time>
      </trkpt>
      <trkpt lat="59.9744799" lon="17.7285538">
        <ele>22.2476</ele>
        <time>2014-05-18T07:51:06Z</time>
      </trkpt>
      <trkpt lat="59.974476" lon="17.728494">
        <ele>22.7283</ele>
        <time>2014-05-18T07:51:07Z</time>
      </trkpt>
      <trkpt lat="59.9744725" lon="17.7284365">
        <ele>22.7283</ele>
        <time>2014-05-18T07:51:08Z</time>
      </trkpt>
      <trkpt lat="59.9744699" lon="17.7283803">
        <ele>22.7283</ele>
        <time>2014-05-18T07:51:09Z</time>
      </trkpt>
      <trkpt lat="59.9744678" lon="17.7283252">
        <ele>22.7283</ele>
        <time>2014-05-18T07:51:10Z</time>
      </trkpt>
      <trkpt lat="59.9744681" lon="17.7282694">
        <ele>22.7283</ele>
        <time>2014-05-18T07:51:11Z</time>
      </trkpt>
      <trkpt lat="59.9744662" lon="17.728215">
        <ele>22.7283</ele>
        <time>2014-05-18T07:51:12Z</time>
      </trkpt>
      <trkpt lat="59.9744631" lon="17.7281628">
        <ele>22.7283</ele>
        <time>2014-05-18T07:51:13Z</time>
      </trkpt>
      <trkpt lat="59.9744598" lon="17.7281058">
        <ele>23.209</ele>
        <time>2014-05-18T07:51:14Z</time>
      </trkpt>
      <trkpt lat="59.9744589" lon="17.7280517">
        <ele>23.209</ele>
        <time>2014-05-18T07:51:15Z</time>
      </trkpt>
      <trkpt lat="59.9744531" lon="17.7279967">
        <ele>23.209</ele>
        <time>2014-05-18T07:51:16Z</time>
      </trkpt>
      <trkpt lat="59.9744531" lon="17.7279403">
        <ele>23.209</ele>
        <time>2014-05-18T07:51:17Z</time>
      </trkpt>
      <trkpt lat="59.9744579" lon="17.7278823">
        <ele>23.209</ele>
        <time>2014-05-18T07:51:18Z</time>
      </trkpt>
      <trkpt lat="59.9744636" lon="17.7278243">
        <ele>23.6896</ele>
        <time>2014-05-18T07:51:19Z</time>
      </trkpt>
      <trkpt lat="59.9744673" lon="17.7277746">
        <ele>23.6896</ele>
        <time>2014-05-18T07:51:20Z</time>
      </trkpt>
      <trkpt lat="59.9744792" lon="17.7277306">
        <ele>23.6896</ele>
        <time>2014-05-18T07:51:21Z</time>
      </trkpt>
      <trkpt lat="59.9744915" lon="17.7276845">
        <ele>24.651</ele>
        <time>2014-05-18T07:51:22Z</time>
      </trkpt>
      <trkpt lat="59.9745088" lon="17.7276419">
        <ele>25.1317</ele>
        <time>2014-05-18T07:51:23Z</time>
      </trkpt>
      <trkpt lat="59.9745245" lon="17.7276044">
        <ele>26.5736</ele>
        <time>2014-05-18T07:51:24Z</time>
      </trkpt>
      <trkpt lat="59.9745433" lon="17.7275732">
        <ele>27.0543</ele>
        <time>2014-05-18T07:51:25Z</time>
      </trkpt>
      <trkpt lat="59.9745562" lon="17.7275464">
        <ele>28.0155</ele>
        <time>2014-05-18T07:51:26Z</time>
      </trkpt>
      <trkpt lat="59.9745744" lon="17.7275207">
        <ele>28.4962</ele>
        <time>2014-05-18T07:51:27Z</time>
      </trkpt>
      <trkpt lat="59.9745926" lon="17.7275005">
        <ele>29.4575</ele>
        <time>2014-05-18T07:51:28Z</time>
      </trkpt>
      <trkpt lat="59.9746147" lon="17.7274883">
        <ele>29.9381</ele>
        <time>2014-05-18T07:51:29Z</time>
      </trkpt>
      <trkpt lat="59.9746381" lon="17.7274772">
        <ele>29.9381</ele>
        <time>2014-05-18T07:51:30Z</time>
      </trkpt>
      <trkpt lat="59.9746609" lon="17.7274591">
        <ele>30.4188</ele>
        <time>2014-05-18T07:51:31Z</time>
      </trkpt>
      <trkpt lat="59.9746817" lon="17.7274399">
        <ele>29.4575</ele>
        <time>2014-05-18T07:51:32Z</time>
      </trkpt>
      <trkpt lat="59.9746988" lon="17.7274146">
        <ele>29.4575</ele>
        <time>2014-05-18T07:51:33Z</time>
      </trkpt>
      <trkpt lat="59.9747226" lon="17.7273974">
        <ele>28.4962</ele>
        <time>2014-05-18T07:51:34Z</time>
      </trkpt>
      <trkpt lat="59.9747392" lon="17.7273795">
        <ele>28.9769</ele>
        <time>2014-05-18T07:51:35Z</time>
      </trkpt>
      <trkpt lat="59.9747685" lon="17.727365">
        <ele>28.0155</ele>
        <time>2014-05-18T07:51:36Z</time>
      </trkpt>
      <trkpt lat="59.9748024" lon="17.7273451">
        <ele>27.0543</ele>
        <time>2014-05-18T07:51:37Z</time>
      </trkpt>
      <trkpt lat="59.9748273" lon="17.727325">
        <ele>27.0543</ele>
        <time>2014-05-18T07:51:38Z</time>
      </trkpt>
      <trkpt lat="59.9748494" lon="17.7272967">
        <ele>27.0543</ele>
        <time>2014-05-18T07:51:39Z</time>
      </trkpt>
      <trkpt lat="59.974871" lon="17.7272685">
        <ele>27.0543</ele>
        <time>2014-05-18T07:51:40Z</time>
      </trkpt>
      <trkpt lat="59.9748933" lon="17.72725">
        <ele>26.5736</ele>
        <time>2014-05-18T07:51:41Z</time>
      </trkpt>
      <trkpt lat="59.9749179" lon="17.7272311">
        <ele>26.0929</ele>
        <time>2014-05-18T07:51:42Z</time>
      </trkpt>
      <trkpt lat="59.974939" lon="17.7272131">
        <ele>25.6123</ele>
        <time>2014-05-18T07:51:43Z</time>
      </trkpt>
      <trkpt lat="59.9749628" lon="17.727193">
        <ele>25.1317</ele>
        <time>2014-05-18T07:51:44Z</time>
      </trkpt>
      <trkpt lat="59.9749846" lon="17.7271705">
        <ele>24.1703</ele>
        <time>2014-05-18T07:51:45Z</time>
      </trkpt>
      <trkpt lat="59.9750048" lon="17.7271469">
        <ele>23.6896</ele>
        <time>2014-05-18T07:51:46Z</time>
      </trkpt>
      <trkpt lat="59.9750287" lon="17.7271309">
        <ele>23.209</ele>
        <time>2014-05-18T07:51:47Z</time>
      </trkpt>
      <trkpt lat="59.9750537" lon="17.7271059">
        <ele>22.7283</ele>
        <time>2014-05-18T07:51:48Z</time>
      </trkpt>
      <trkpt lat="59.9750779" lon="17.727081">
        <ele>21.767</ele>
        <time>2014-05-18T07:51:49Z</time>
      </trkpt>
      <trkpt lat="59.9750971" lon="17.7270569">
        <ele>21.767</ele>
        <time>2014-05-18T07:51:50Z</time>
      </trkpt>
      <trkpt lat="59.975123" lon="17.7270314">
        <ele>21.2864</ele>
        <time>2014-05-18T07:51:51Z</time>
      </trkpt>
      <trkpt lat="59.9751497" lon="17.7270025">
        <ele>21.2864</ele>
        <time>2014-05-18T07:51:52Z</time>
      </trkpt>
      <trkpt lat="59.9751757" lon="17.7269759">
        <ele>21.2864</ele>
        <time>2014-05-18T07:51:53Z</time>
      </trkpt>
      <trkpt lat="59.9752007" lon="17.726946">
        <ele>21.767</ele>
        <time>2014-05-18T07:51:54Z</time>
      </trkpt>
      <trkpt lat="59.9752282" lon="17.7269183">
        <ele>22.2476</ele>
        <time>2014-05-18T07:51:55Z</time>
      </trkpt>
      <trkpt lat="59.9752557" lon="17.7268892">
        <ele>22.2476</ele>
        <time>2014-05-18T07:51:56Z</time>
      </trkpt>
      <trkpt lat="59.9752876" lon="17.7268578">
        <ele>21.767</ele>
        <time>2014-05-18T07:51:57Z</time>
      </trkpt>
      <trkpt lat="59.9753165" lon="17.7268221">
        <ele>21.2864</ele>
        <time>2014-05-18T07:51:58Z</time>
      </trkpt>
      <trkpt lat="59.9753421" lon="17.7267867">
        <ele>21.2864</ele>
        <time>2014-05-18T07:51:59Z</time>
      </trkpt>
      <trkpt lat="59.9753681" lon="17.7267614">
        <ele>20.8057</ele>
        <time>2014-05-18T07:52:00Z</time>
      </trkpt>
      <trkpt lat="59.9753939" lon="17.7267398">
        <ele>19.8444</ele>
        <time>2014-05-18T07:52:01Z</time>
      </trkpt>
      <trkpt lat="59.9754214" lon="17.7267132">
        <ele>19.3638</ele>
        <time>2014-05-18T07:52:02Z</time>
      </trkpt>
      <trkpt lat="59.9754497" lon="17.7266888">
        <ele>18.8831</ele>
        <time>2014-05-18T07:52:03Z</time>
      </trkpt>
      <trkpt lat="59.9754768" lon="17.7266675">
        <ele>18.8831</ele>
        <time>2014-05-18T07:52:04Z</time>
      </trkpt>
      <trkpt lat="59.9754996" lon="17.7266453">
        <ele>18.4023</ele>
        <time>2014-05-18T07:52:05Z</time>
      </trkpt>
      <trkpt lat="59.9755239" lon="17.7266236">
        <ele>17.9218</ele>
        <time>2014-05-18T07:52:06Z</time>
      </trkpt>
      <trkpt lat="59.9755788" lon="17.7265631">
        <ele>17.4412</ele>
        <time>2014-05-18T07:52:08Z</time>
      </trkpt>
      <trkpt lat="59.9756032" lon="17.726536">
        <ele>17.4412</ele>
        <time>2014-05-18T07:52:09Z</time>
      </trkpt>
      <trkpt lat="59.975628" lon="17.7265103">
        <ele>16.9604</ele>
        <time>2014-05-18T07:52:10Z</time>
      </trkpt>
      <trkpt lat="59.9756522" lon="17.7264784">
        <ele>17.4412</ele>
        <time>2014-05-18T07:52:11Z</time>
      </trkpt>
      <trkpt lat="59.9756755" lon="17.726442">
        <ele>17.4412</ele>
        <time>2014-05-18T07:52:12Z</time>
      </trkpt>
      <trkpt lat="59.9757016" lon="17.7264168">
        <ele>16.9604</ele>
        <time>2014-05-18T07:52:13Z</time>
      </trkpt>
      <trkpt lat="59.9757254" lon="17.7263915">
        <ele>16.9604</ele>
        <time>2014-05-18T07:52:14Z</time>
      </trkpt>
      <trkpt lat="59.9757488" lon="17.7263652">
        <ele>17.4412</ele>
        <time>2014-05-18T07:52:15Z</time>
      </trkpt>
      <trkpt lat="59.9757736" lon="17.7263331">
        <ele>17.4412</ele>
        <time>2014-05-18T07:52:16Z</time>
      </trkpt>
      <trkpt lat="59.975798" lon="17.726292">
        <ele>17.4412</ele>
        <time>2014-05-18T07:52:17Z</time>
      </trkpt>
      <trkpt lat="59.9758218" lon="17.7262568">
        <ele>17.9218</ele>
        <time>2014-05-18T07:52:18Z</time>
      </trkpt>
      <trkpt lat="59.9758467" lon="17.7262285">
        <ele>18.4023</ele>
        <time>2014-05-18T07:52:19Z</time>
      </trkpt>
      <trkpt lat="59.9758724" lon="17.7261984">
        <ele>18.4023</ele>
        <time>2014-05-18T07:52:20Z</time>
      </trkpt>
      <trkpt lat="59.9758973" lon="17.7261667">
        <ele>18.4023</ele>
        <time>2014-05-18T07:52:21Z</time>
      </trkpt>
      <trkpt lat="59.9759226" lon="17.7261351">
        <ele>18.8831</ele>
        <time>2014-05-18T07:52:22Z</time>
      </trkpt>
      <trkpt lat="59.9759482" lon="17.7261073">
        <ele>19.3638</ele>
        <time>2014-05-18T07:52:23Z</time>
      </trkpt>
      <trkpt lat="59.9759728" lon="17.7260829">
        <ele>18.8831</ele>
        <time>2014-05-18T07:52:24Z</time>
      </trkpt>
      <trkpt lat="59.976" lon="17.7260575">
        <ele>19.3638</ele>
        <time>2014-05-18T07:52:25Z</time>
      </trkpt>
      <trkpt lat="59.9760244" lon="17.7260208">
        <ele>19.8444</ele>
        <time>2014-05-18T07:52:26Z</time>
      </trkpt>
      <trkpt lat="59.9760481" lon="17.7259844">
        <ele>19.8444</ele>
        <time>2014-05-18T07:52:27Z</time>
      </trkpt>
      <trkpt lat="59.9760735" lon="17.7259575">
        <ele>19.3638</ele>
        <time>2014-05-18T07:52:28Z</time>
      </trkpt>
      <trkpt lat="59.9760982" lon="17.725942">
        <ele>19.3638</ele>
        <time>2014-05-18T07:52:29Z</time>
      </trkpt>
      <trkpt lat="59.9761226" lon="17.7259245">
        <ele>19.3638</ele>
        <time>2014-05-18T07:52:30Z</time>
      </trkpt>
      <trkpt lat="59.9761486" lon="17.7259036">
        <ele>19.3638</ele>
        <time>2014-05-18T07:52:31Z</time>
      </trkpt>
      <trkpt lat="59.9761723" lon="17.7258859">
        <ele>19.3638</ele>
        <time>2014-05-18T07:52:32Z</time>
      </trkpt>
      <trkpt lat="59.9761977" lon="17.7258611">
        <ele>18.8831</ele>
        <time>2014-05-18T07:52:33Z</time>
      </trkpt>
      <trkpt lat="59.9762243" lon="17.7258362">
        <ele>18.8831</ele>
        <time>2014-05-18T07:52:34Z</time>
      </trkpt>
      <trkpt lat="59.9762484" lon="17.7258089">
        <ele>18.4023</ele>
        <time>2014-05-18T07:52:35Z</time>
      </trkpt>
      <trkpt lat="59.976273" lon="17.7257802">
        <ele>17.9218</ele>
        <time>2014-05-18T07:52:36Z</time>
      </trkpt>
      <trkpt lat="59.9762998" lon="17.7257616">
        <ele>17.9218</ele>
        <time>2014-05-18T07:52:37Z</time>
      </trkpt>
      <trkpt lat="59.9763238" lon="17.7257449">
        <ele>17.4412</ele>
        <time>2014-05-18T07:52:38Z</time>
      </trkpt>
      <trkpt lat="59.9763484" lon="17.7257177">
        <ele>16.9604</ele>
        <time>2014-05-18T07:52:39Z</time>
      </trkpt>
      <trkpt lat="59.9763736" lon="17.7256886">
        <ele>16.4797</ele>
        <time>2014-05-18T07:52:40Z</time>
      </trkpt>
      <trkpt lat="59.9763962" lon="17.7256623">
        <ele>16.9604</ele>
        <time>2014-05-18T07:52:41Z</time>
      </trkpt>
      <trkpt lat="59.976419" lon="17.7256351">
        <ele>16.4797</ele>
        <time>2014-05-18T07:52:42Z</time>
      </trkpt>
      <trkpt lat="59.9764461" lon="17.7256078">
        <ele>16.4797</ele>
        <time>2014-05-18T07:52:43Z</time>
      </trkpt>
      <trkpt lat="59.9764708" lon="17.7255818">
        <ele>16.4797</ele>
        <time>2014-05-18T07:52:44Z</time>
      </trkpt>
      <trkpt lat="59.9764971" lon="17.725555">
        <ele>16.4797</ele>
        <time>2014-05-18T07:52:45Z</time>
      </trkpt>
      <trkpt lat="59.9765225" lon="17.7255259">
        <ele>16.4797</ele>
        <time>2014-05-18T07:52:46Z</time>
      </trkpt>
      <trkpt lat="59.9765465" lon="17.725495">
        <ele>16.4797</ele>
        <time>2014-05-18T07:52:47Z</time>
      </trkpt>
      <trkpt lat="59.9765729" lon="17.7254666">
        <ele>16.4797</ele>
        <time>2014-05-18T07:52:48Z</time>
      </trkpt>
      <trkpt lat="59.9765983" lon="17.7254443">
        <ele>16.4797</ele>
        <time>2014-05-18T07:52:49Z</time>
      </trkpt>
      <trkpt lat="59.9766232" lon="17.7254227">
        <ele>16.4797</ele>
        <time>2014-05-18T07:52:50Z</time>
      </trkpt>
      <trkpt lat="59.9766504" lon="17.7254044">
        <ele>16.4797</ele>
        <time>2014-05-18T07:52:51Z</time>
      </trkpt>
      <trkpt lat="59.9766759" lon="17.7253795">
        <ele>16.4797</ele>
        <time>2014-05-18T07:52:52Z</time>
      </trkpt>
      <trkpt lat="59.9767024" lon="17.7253521">
        <ele>16.4797</ele>
        <time>2014-05-18T07:52:53Z</time>
      </trkpt>
      <trkpt lat="59.9767274" lon="17.7253256">
        <ele>16.4797</ele>
        <time>2014-05-18T07:52:54Z</time>
      </trkpt>
      <trkpt lat="59.9767511" lon="17.7253048">
        <ele>16.9604</ele>
        <time>2014-05-18T07:52:55Z</time>
      </trkpt>
      <trkpt lat="59.976775" lon="17.7252778">
        <ele>16.9604</ele>
        <time>2014-05-18T07:52:56Z</time>
      </trkpt>
      <trkpt lat="59.9768014" lon="17.7252386">
        <ele>16.4797</ele>
        <time>2014-05-18T07:52:57Z</time>
      </trkpt>
      <trkpt lat="59.9768262" lon="17.7252034">
        <ele>15.5184</ele>
        <time>2014-05-18T07:52:58Z</time>
      </trkpt>
      <trkpt lat="59.9768516" lon="17.7251759">
        <ele>15.5184</ele>
        <time>2014-05-18T07:52:59Z</time>
      </trkpt>
      <trkpt lat="59.976877" lon="17.7251505">
        <ele>15.0377</ele>
        <time>2014-05-18T07:53:00Z</time>
      </trkpt>
      <trkpt lat="59.9769014" lon="17.7251353">
        <ele>15.0377</ele>
        <time>2014-05-18T07:53:01Z</time>
      </trkpt>
      <trkpt lat="59.9769263" lon="17.7251173">
        <ele>15.0377</ele>
        <time>2014-05-18T07:53:02Z</time>
      </trkpt>
      <trkpt lat="59.9769511" lon="17.7250971">
        <ele>14.557</ele>
        <time>2014-05-18T07:53:03Z</time>
      </trkpt>
      <trkpt lat="59.9769744" lon="17.7250815">
        <ele>15.0377</ele>
        <time>2014-05-18T07:53:04Z</time>
      </trkpt>
      <trkpt lat="59.9769988" lon="17.7250617">
        <ele>15.0377</ele>
        <time>2014-05-18T07:53:05Z</time>
      </trkpt>
      <trkpt lat="59.977024" lon="17.7250371">
        <ele>15.0377</ele>
        <time>2014-05-18T07:53:06Z</time>
      </trkpt>
      <trkpt lat="59.9770478" lon="17.7250135">
        <ele>15.0377</ele>
        <time>2014-05-18T07:53:07Z</time>
      </trkpt>
      <trkpt lat="59.9770754" lon="17.7249832">
        <ele>14.557</ele>
        <time>2014-05-18T07:53:08Z</time>
      </trkpt>
      <trkpt lat="59.9771042" lon="17.7249581">
        <ele>14.557</ele>
        <time>2014-05-18T07:53:09Z</time>
      </trkpt>
      <trkpt lat="59.9771303" lon="17.7249334">
        <ele>14.557</ele>
        <time>2014-05-18T07:53:10Z</time>
      </trkpt>
      <trkpt lat="59.9771583" lon="17.7249159">
        <ele>14.557</ele>
        <time>2014-05-18T07:53:11Z</time>
      </trkpt>
      <trkpt lat="59.9771862" lon="17.7249092">
        <ele>14.557</ele>
        <time>2014-05-18T07:53:12Z</time>
      </trkpt>
      <trkpt lat="59.9772128" lon="17.7249018">
        <ele>14.557</ele>
        <time>2014-05-18T07:53:13Z</time>
      </trkpt>
      <trkpt lat="59.9772413" lon="17.724895">
        <ele>14.557</ele>
        <time>2014-05-18T07:53:14Z</time>
      </trkpt>
      <trkpt lat="59.9772685" lon="17.7248929">
        <ele>14.0764</ele>
        <time>2014-05-18T07:53:15Z</time>
      </trkpt>
      <trkpt lat="59.9772955" lon="17.7248966">
        <ele>14.0764</ele>
        <time>2014-05-18T07:53:16Z</time>
      </trkpt>
      <trkpt lat="59.9773246" lon="17.724906">
        <ele>14.0764</ele>
        <time>2014-05-18T07:53:17Z</time>
      </trkpt>
      <trkpt lat="59.9773513" lon="17.7249161">
        <ele>14.557</ele>
        <time>2014-05-18T07:53:18Z</time>
      </trkpt>
      <trkpt lat="59.9773756" lon="17.7249239">
        <ele>14.557</ele>
        <time>2014-05-18T07:53:19Z</time>
      </trkpt>
      <trkpt lat="59.9774022" lon="17.7249374">
        <ele>14.557</ele>
        <time>2014-05-18T07:53:20Z</time>
      </trkpt>
      <trkpt lat="59.9774317" lon="17.724949">
        <ele>14.557</ele>
        <time>2014-05-18T07:53:21Z</time>
      </trkpt>
      <trkpt lat="59.9774613" lon="17.7249615">
        <ele>15.0377</ele>
        <time>2014-05-18T07:53:22Z</time>
      </trkpt>
      <trkpt lat="59.9774887" lon="17.7249721">
        <ele>15.5184</ele>
        <time>2014-05-18T07:53:23Z</time>
      </trkpt>
      <trkpt lat="59.9775158" lon="17.7249847">
        <ele>15.5184</ele>
        <time>2014-05-18T07:53:24Z</time>
      </trkpt>
      <trkpt lat="59.9775451" lon="17.7249971">
        <ele>15.5184</ele>
        <time>2014-05-18T07:53:25Z</time>
      </trkpt>
      <trkpt lat="59.9775732" lon="17.7250115">
        <ele>15.999</ele>
        <time>2014-05-18T07:53:26Z</time>
      </trkpt>
      <trkpt lat="59.977598" lon="17.7250223">
        <ele>15.999</ele>
        <time>2014-05-18T07:53:27Z</time>
      </trkpt>
      <trkpt lat="59.9776206" lon="17.7250307">
        <ele>15.999</ele>
        <time>2014-05-18T07:53:28Z</time>
      </trkpt>
      <trkpt lat="59.9776436" lon="17.7250356">
        <ele>15.999</ele>
        <time>2014-05-18T07:53:29Z</time>
      </trkpt>
      <trkpt lat="59.9776701" lon="17.7250401">
        <ele>16.4797</ele>
        <time>2014-05-18T07:53:30Z</time>
      </trkpt>
      <trkpt lat="59.9776991" lon="17.7250513">
        <ele>16.4797</ele>
        <time>2014-05-18T07:53:31Z</time>
      </trkpt>
      <trkpt lat="59.9777276" lon="17.7250607">
        <ele>16.4797</ele>
        <time>2014-05-18T07:53:32Z</time>
      </trkpt>
      <trkpt lat="59.9777555" lon="17.725067">
        <ele>16.4797</ele>
        <time>2014-05-18T07:53:33Z</time>
      </trkpt>
      <trkpt lat="59.977783" lon="17.7250742">
        <ele>15.999</ele>
        <time>2014-05-18T07:53:34Z</time>
      </trkpt>
      <trkpt lat="59.9778094" lon="17.7250801">
        <ele>15.5184</ele>
        <time>2014-05-18T07:53:35Z</time>
      </trkpt>
      <trkpt lat="59.9778389" lon="17.7250909">
        <ele>15.5184</ele>
        <time>2014-05-18T07:53:36Z</time>
      </trkpt>
      <trkpt lat="59.9778658" lon="17.7251022">
        <ele>15.0377</ele>
        <time>2014-05-18T07:53:37Z</time>
      </trkpt>
      <trkpt lat="59.9778921" lon="17.7251083">
        <ele>15.0377</ele>
        <time>2014-05-18T07:53:38Z</time>
      </trkpt>
      <trkpt lat="59.9779198" lon="17.7251168">
        <ele>14.557</ele>
        <time>2014-05-18T07:53:39Z</time>
      </trkpt>
      <trkpt lat="59.9779463" lon="17.7251235">
        <ele>14.557</ele>
        <time>2014-05-18T07:53:40Z</time>
      </trkpt>
      <trkpt lat="59.977972" lon="17.7251281">
        <ele>14.0764</ele>
        <time>2014-05-18T07:53:41Z</time>
      </trkpt>
      <trkpt lat="59.9780001" lon="17.7251374">
        <ele>14.0764</ele>
        <time>2014-05-18T07:53:42Z</time>
      </trkpt>
      <trkpt lat="59.9780275" lon="17.7251448">
        <ele>14.0764</ele>
        <time>2014-05-18T07:53:43Z</time>
      </trkpt>
      <trkpt lat="59.9780534" lon="17.725154">
        <ele>13.5958</ele>
        <time>2014-05-18T07:53:44Z</time>
      </trkpt>
      <trkpt lat="59.9780813" lon="17.7251705">
        <ele>13.5958</ele>
        <time>2014-05-18T07:53:45Z</time>
      </trkpt>
      <trkpt lat="59.9781088" lon="17.725186">
        <ele>13.1151</ele>
        <time>2014-05-18T07:53:46Z</time>
      </trkpt>
      <trkpt lat="59.9781348" lon="17.7252002">
        <ele>13.1151</ele>
        <time>2014-05-18T07:53:47Z</time>
      </trkpt>
      <trkpt lat="59.9781616" lon="17.7252179">
        <ele>13.1151</ele>
        <time>2014-05-18T07:53:48Z</time>
      </trkpt>
      <trkpt lat="59.9781873" lon="17.725234">
        <ele>13.1151</ele>
        <time>2014-05-18T07:53:49Z</time>
      </trkpt>
      <trkpt lat="59.978214" lon="17.7252529">
        <ele>13.1151</ele>
        <time>2014-05-18T07:53:50Z</time>
      </trkpt>
      <trkpt lat="59.9782392" lon="17.7252697">
        <ele>12.6344</ele>
        <time>2014-05-18T07:53:51Z</time>
      </trkpt>
      <trkpt lat="59.9782643" lon="17.7252856">
        <ele>12.6344</ele>
        <time>2014-05-18T07:53:52Z</time>
      </trkpt>
      <trkpt lat="59.9782904" lon="17.7253064">
        <ele>12.6344</ele>
        <time>2014-05-18T07:53:53Z</time>
      </trkpt>
      <trkpt lat="59.9783166" lon="17.7253255">
        <ele>12.6344</ele>
        <time>2014-05-18T07:53:54Z</time>
      </trkpt>
      <trkpt lat="59.9783445" lon="17.7253489">
        <ele>12.6344</ele>
        <time>2014-05-18T07:53:55Z</time>
      </trkpt>
      <trkpt lat="59.9783714" lon="17.7253722">
        <ele>12.6344</ele>
        <time>2014-05-18T07:53:56Z</time>
      </trkpt>
      <trkpt lat="59.9783963" lon="17.7253877">
        <ele>12.6344</ele>
        <time>2014-05-18T07:53:57Z</time>
      </trkpt>
      <trkpt lat="59.9784233" lon="17.7254029">
        <ele>13.1151</ele>
        <time>2014-05-18T07:53:58Z</time>
      </trkpt>
      <trkpt lat="59.9784497" lon="17.725423">
        <ele>13.1151</ele>
        <time>2014-05-18T07:53:59Z</time>
      </trkpt>
      <trkpt lat="59.9784761" lon="17.7254389">
        <ele>13.5958</ele>
        <time>2014-05-18T07:54:00Z</time>
      </trkpt>
      <trkpt lat="59.9785047" lon="17.725458">
        <ele>13.5958</ele>
        <time>2014-05-18T07:54:01Z</time>
      </trkpt>
      <trkpt lat="59.9785319" lon="17.7254806">
        <ele>13.5958</ele>
        <time>2014-05-18T07:54:02Z</time>
      </trkpt>
      <trkpt lat="59.9785575" lon="17.7254991">
        <ele>14.0764</ele>
        <time>2014-05-18T07:54:03Z</time>
      </trkpt>
      <trkpt lat="59.9785857" lon="17.7255126">
        <ele>14.0764</ele>
        <time>2014-05-18T07:54:04Z</time>
      </trkpt>
      <trkpt lat="59.9786158" lon="17.725524">
        <ele>14.0764</ele>
        <time>2014-05-18T07:54:05Z</time>
      </trkpt>
      <trkpt lat="59.9786444" lon="17.7255424">
        <ele>14.0764</ele>
        <time>2014-05-18T07:54:06Z</time>
      </trkpt>
      <trkpt lat="59.9786717" lon="17.725566">
        <ele>14.0764</ele>
        <time>2014-05-18T07:54:07Z</time>
      </trkpt>
      <trkpt lat="59.9786999" lon="17.7255836">
        <ele>14.0764</ele>
        <time>2014-05-18T07:54:08Z</time>
      </trkpt>
      <trkpt lat="59.9787289" lon="17.7255958">
        <ele>13.5958</ele>
        <time>2014-05-18T07:54:09Z</time>
      </trkpt>
      <trkpt lat="59.9787584" lon="17.7256063">
        <ele>14.0764</ele>
        <time>2014-05-18T07:54:10Z</time>
      </trkpt>
      <trkpt lat="59.9787884" lon="17.7256175">
        <ele>13.5958</ele>
        <time>2014-05-18T07:54:11Z</time>
      </trkpt>
      <trkpt lat="59.9788164" lon="17.7256315">
        <ele>13.5958</ele>
        <time>2014-05-18T07:54:12Z</time>
      </trkpt>
      <trkpt lat="59.9788434" lon="17.7256466">
        <ele>13.5958</ele>
        <time>2014-05-18T07:54:13Z</time>
      </trkpt>
      <trkpt lat="59.9788711" lon="17.7256597">
        <ele>14.0764</ele>
        <time>2014-05-18T07:54:14Z</time>
      </trkpt>
      <trkpt lat="59.9788983" lon="17.7256757">
        <ele>14.0764</ele>
        <time>2014-05-18T07:54:15Z</time>
      </trkpt>
      <trkpt lat="59.9789258" lon="17.7256981">
        <ele>14.0764</ele>
        <time>2014-05-18T07:54:16Z</time>
      </trkpt>
      <trkpt lat="59.9789501" lon="17.7257247">
        <ele>14.0764</ele>
        <time>2014-05-18T07:54:17Z</time>
      </trkpt>
      <trkpt lat="59.9789713" lon="17.7257533">
        <ele>14.0764</ele>
        <time>2014-05-18T07:54:18Z</time>
      </trkpt>
      <trkpt lat="59.9789901" lon="17.7257908">
        <ele>13.5958</ele>
        <time>2014-05-18T07:54:19Z</time>
      </trkpt>
      <trkpt lat="59.979008" lon="17.725827">
        <ele>13.1151</ele>
        <time>2014-05-18T07:54:20Z</time>
      </trkpt>
      <trkpt lat="59.9790256" lon="17.725867">
        <ele>13.1151</ele>
        <time>2014-05-18T07:54:21Z</time>
      </trkpt>
      <trkpt lat="59.9790424" lon="17.7259107">
        <ele>13.1151</ele>
        <time>2014-05-18T07:54:22Z</time>
      </trkpt>
      <trkpt lat="59.9790628" lon="17.7259431">
        <ele>13.1151</ele>
        <time>2014-05-18T07:54:23Z</time>
      </trkpt>
      <trkpt lat="59.9790835" lon="17.725969">
        <ele>13.1151</ele>
        <time>2014-05-18T07:54:24Z</time>
      </trkpt>
      <trkpt lat="59.9791039" lon="17.7259938">
        <ele>13.1151</ele>
        <time>2014-05-18T07:54:25Z</time>
      </trkpt>
      <trkpt lat="59.9791253" lon="17.7260249">
        <ele>12.6344</ele>
        <time>2014-05-18T07:54:26Z</time>
      </trkpt>
      <trkpt lat="59.9791465" lon="17.7260644">
        <ele>12.6344</ele>
        <time>2014-05-18T07:54:27Z</time>
      </trkpt>
      <trkpt lat="59.9791687" lon="17.7260963">
        <ele>13.1151</ele>
        <time>2014-05-18T07:54:28Z</time>
      </trkpt>
      <trkpt lat="59.9791908" lon="17.7261213">
        <ele>13.1151</ele>
        <time>2014-05-18T07:54:29Z</time>
      </trkpt>
      <trkpt lat="59.979214" lon="17.7261472">
        <ele>13.1151</ele>
        <time>2014-05-18T07:54:30Z</time>
      </trkpt>
      <trkpt lat="59.9792371" lon="17.7261674">
        <ele>13.1151</ele>
        <time>2014-05-18T07:54:31Z</time>
      </trkpt>
      <trkpt lat="59.9792612" lon="17.7261878">
        <ele>13.1151</ele>
        <time>2014-05-18T07:54:32Z</time>
      </trkpt>
      <trkpt lat="59.9792861" lon="17.7262086">
        <ele>13.1151</ele>
        <time>2014-05-18T07:54:33Z</time>
      </trkpt>
      <trkpt lat="59.9793128" lon="17.7262274">
        <ele>13.1151</ele>
        <time>2014-05-18T07:54:34Z</time>
      </trkpt>
      <trkpt lat="59.9793412" lon="17.7262443">
        <ele>13.1151</ele>
        <time>2014-05-18T07:54:35Z</time>
      </trkpt>
      <trkpt lat="59.9793674" lon="17.7262531">
        <ele>12.6344</ele>
        <time>2014-05-18T07:54:36Z</time>
      </trkpt>
      <trkpt lat="59.9793945" lon="17.726261">
        <ele>12.6344</ele>
        <time>2014-05-18T07:54:37Z</time>
      </trkpt>
      <trkpt lat="59.9794216" lon="17.7262699">
        <ele>12.6344</ele>
        <time>2014-05-18T07:54:38Z</time>
      </trkpt>
      <trkpt lat="59.9794499" lon="17.7262813">
        <ele>12.6344</ele>
        <time>2014-05-18T07:54:39Z</time>
      </trkpt>
      <trkpt lat="59.9794785" lon="17.7262999">
        <ele>13.1151</ele>
        <time>2014-05-18T07:54:40Z</time>
      </trkpt>
      <trkpt lat="59.9795047" lon="17.7263215">
        <ele>13.1151</ele>
        <time>2014-05-18T07:54:41Z</time>
      </trkpt>
      <trkpt lat="59.9795307" lon="17.7263422">
        <ele>13.1151</ele>
        <time>2014-05-18T07:54:42Z</time>
      </trkpt>
      <trkpt lat="59.9795575" lon="17.7263626">
        <ele>13.5958</ele>
        <time>2014-05-18T07:54:43Z</time>
      </trkpt>
      <trkpt lat="59.9795821" lon="17.7263817">
        <ele>13.5958</ele>
        <time>2014-05-18T07:54:44Z</time>
      </trkpt>
      <trkpt lat="59.9796065" lon="17.7264122">
        <ele>13.5958</ele>
        <time>2014-05-18T07:54:45Z</time>
      </trkpt>
      <trkpt lat="59.9796276" lon="17.7264529">
        <ele>13.5958</ele>
        <time>2014-05-18T07:54:46Z</time>
      </trkpt>
      <trkpt lat="59.9796471" lon="17.7264911">
        <ele>13.5958</ele>
        <time>2014-05-18T07:54:47Z</time>
      </trkpt>
      <trkpt lat="59.9796647" lon="17.7265309">
        <ele>14.0764</ele>
        <time>2014-05-18T07:54:48Z</time>
      </trkpt>
      <trkpt lat="59.9796808" lon="17.726574">
        <ele>13.5958</ele>
        <time>2014-05-18T07:54:49Z</time>
      </trkpt>
      <trkpt lat="59.979697" lon="17.7266179">
        <ele>13.5958</ele>
        <time>2014-05-18T07:54:50Z</time>
      </trkpt>
      <trkpt lat="59.9797115" lon="17.7266632">
        <ele>13.5958</ele>
        <time>2014-05-18T07:54:51Z</time>
      </trkpt>
      <trkpt lat="59.9797256" lon="17.726703">
        <ele>13.5958</ele>
        <time>2014-05-18T07:54:52Z</time>
      </trkpt>
      <trkpt lat="59.9797419" lon="17.7267418">
        <ele>13.5958</ele>
        <time>2014-05-18T07:54:53Z</time>
      </trkpt>
      <trkpt lat="59.9797576" lon="17.7267846">
        <ele>14.0764</ele>
        <time>2014-05-18T07:54:54Z</time>
      </trkpt>
      <trkpt lat="59.9797732" lon="17.7268234">
        <ele>14.0764</ele>
        <time>2014-05-18T07:54:55Z</time>
      </trkpt>
      <trkpt lat="59.9797916" lon="17.7268625">
        <ele>14.0764</ele>
        <time>2014-05-18T07:54:56Z</time>
      </trkpt>
      <trkpt lat="59.97981" lon="17.7269011">
        <ele>14.0764</ele>
        <time>2014-05-18T07:54:57Z</time>
      </trkpt>
      <trkpt lat="59.9798284" lon="17.7269377">
        <ele>14.0764</ele>
        <time>2014-05-18T07:54:58Z</time>
      </trkpt>
      <trkpt lat="59.9798467" lon="17.7269771">
        <ele>14.557</ele>
        <time>2014-05-18T07:54:59Z</time>
      </trkpt>
      <trkpt lat="59.9798649" lon="17.7270138">
        <ele>14.557</ele>
        <time>2014-05-18T07:55:00Z</time>
      </trkpt>
      <trkpt lat="59.9798833" lon="17.7270536">
        <ele>14.557</ele>
        <time>2014-05-18T07:55:01Z</time>
      </trkpt>
      <trkpt lat="59.9799022" lon="17.727096">
        <ele>14.557</ele>
        <time>2014-05-18T07:55:02Z</time>
      </trkpt>
      <trkpt lat="59.9799213" lon="17.7271313">
        <ele>15.0377</ele>
        <time>2014-05-18T07:55:03Z</time>
      </trkpt>
      <trkpt lat="59.9799411" lon="17.7271605">
        <ele>15.0377</ele>
        <time>2014-05-18T07:55:04Z</time>
      </trkpt>
      <trkpt lat="59.9799616" lon="17.7271863">
        <ele>14.557</ele>
        <time>2014-05-18T07:55:05Z</time>
      </trkpt>
      <trkpt lat="59.9799834" lon="17.727218">
        <ele>15.5184</ele>
        <time>2014-05-18T07:55:06Z</time>
      </trkpt>
      <trkpt lat="59.9800028" lon="17.7272544">
        <ele>15.5184</ele>
        <time>2014-05-18T07:55:07Z</time>
      </trkpt>
      <trkpt lat="59.9800226" lon="17.7272924">
        <ele>15.5184</ele>
        <time>2014-05-18T07:55:08Z</time>
      </trkpt>
      <trkpt lat="59.980045" lon="17.7273303">
        <ele>15.5184</ele>
        <time>2014-05-18T07:55:09Z</time>
      </trkpt>
      <trkpt lat="59.9800667" lon="17.7273639">
        <ele>15.5184</ele>
        <time>2014-05-18T07:55:10Z</time>
      </trkpt>
      <trkpt lat="59.9800874" lon="17.7274005">
        <ele>15.5184</ele>
        <time>2014-05-18T07:55:11Z</time>
      </trkpt>
      <trkpt lat="59.9801055" lon="17.7274364">
        <ele>15.0377</ele>
        <time>2014-05-18T07:55:12Z</time>
      </trkpt>
      <trkpt lat="59.9801237" lon="17.7274761">
        <ele>15.0377</ele>
        <time>2014-05-18T07:55:13Z</time>
      </trkpt>
      <trkpt lat="59.9801415" lon="17.7275203">
        <ele>15.0377</ele>
        <time>2014-05-18T07:55:14Z</time>
      </trkpt>
      <trkpt lat="59.98016" lon="17.7275608">
        <ele>15.0377</ele>
        <time>2014-05-18T07:55:15Z</time>
      </trkpt>
      <trkpt lat="59.9801793" lon="17.727599">
        <ele>15.5184</ele>
        <time>2014-05-18T07:55:16Z</time>
      </trkpt>
      <trkpt lat="59.9802" lon="17.7276353">
        <ele>15.5184</ele>
        <time>2014-05-18T07:55:17Z</time>
      </trkpt>
      <trkpt lat="59.9802214" lon="17.7276737">
        <ele>15.5184</ele>
        <time>2014-05-18T07:55:18Z</time>
      </trkpt>
      <trkpt lat="59.9802425" lon="17.7277136">
        <ele>15.5184</ele>
        <time>2014-05-18T07:55:19Z</time>
      </trkpt>
      <trkpt lat="59.9802616" lon="17.7277496">
        <ele>15.0377</ele>
        <time>2014-05-18T07:55:20Z</time>
      </trkpt>
      <trkpt lat="59.9802808" lon="17.7277871">
        <ele>15.0377</ele>
        <time>2014-05-18T07:55:21Z</time>
      </trkpt>
      <trkpt lat="59.9803" lon="17.7278211">
        <ele>14.557</ele>
        <time>2014-05-18T07:55:22Z</time>
      </trkpt>
      <trkpt lat="59.980319" lon="17.727855">
        <ele>15.0377</ele>
        <time>2014-05-18T07:55:23Z</time>
      </trkpt>
      <trkpt lat="59.9803393" lon="17.7278921">
        <ele>15.0377</ele>
        <time>2014-05-18T07:55:24Z</time>
      </trkpt>
      <trkpt lat="59.9803575" lon="17.7279273">
        <ele>15.0377</ele>
        <time>2014-05-18T07:55:25Z</time>
      </trkpt>
      <trkpt lat="59.9803772" lon="17.7279658">
        <ele>15.0377</ele>
        <time>2014-05-18T07:55:26Z</time>
      </trkpt>
      <trkpt lat="59.9803953" lon="17.7280026">
        <ele>14.557</ele>
        <time>2014-05-18T07:55:27Z</time>
      </trkpt>
      <trkpt lat="59.9804153" lon="17.7280429">
        <ele>15.0377</ele>
        <time>2014-05-18T07:55:28Z</time>
      </trkpt>
      <trkpt lat="59.9804357" lon="17.7280824">
        <ele>15.0377</ele>
        <time>2014-05-18T07:55:29Z</time>
      </trkpt>
      <trkpt lat="59.9804559" lon="17.7281179">
        <ele>15.0377</ele>
        <time>2014-05-18T07:55:30Z</time>
      </trkpt>
      <trkpt lat="59.9804747" lon="17.7281537">
        <ele>15.5184</ele>
        <time>2014-05-18T07:55:31Z</time>
      </trkpt>
      <trkpt lat="59.9804927" lon="17.7281845">
        <ele>15.5184</ele>
        <time>2014-05-18T07:55:32Z</time>
      </trkpt>
      <trkpt lat="59.9805129" lon="17.7282202">
        <ele>15.5184</ele>
        <time>2014-05-18T07:55:33Z</time>
      </trkpt>
      <trkpt lat="59.9805326" lon="17.7282568">
        <ele>15.999</ele>
        <time>2014-05-18T07:55:34Z</time>
      </trkpt>
      <trkpt lat="59.9805491" lon="17.7282874">
        <ele>15.999</ele>
        <time>2014-05-18T07:55:35Z</time>
      </trkpt>
      <trkpt lat="59.9805678" lon="17.7283212">
        <ele>16.4797</ele>
        <time>2014-05-18T07:55:36Z</time>
      </trkpt>
      <trkpt lat="59.9805828" lon="17.7283557">
        <ele>16.4797</ele>
        <time>2014-05-18T07:55:37Z</time>
      </trkpt>
      <trkpt lat="59.9805984" lon="17.7283941">
        <ele>16.4797</ele>
        <time>2014-05-18T07:55:38Z</time>
      </trkpt>
      <trkpt lat="59.980615" lon="17.728431">
        <ele>15.999</ele>
        <time>2014-05-18T07:55:39Z</time>
      </trkpt>
      <trkpt lat="59.9806321" lon="17.7284658">
        <ele>16.4797</ele>
        <time>2014-05-18T07:55:40Z</time>
      </trkpt>
      <trkpt lat="59.9806495" lon="17.7285023">
        <ele>16.4797</ele>
        <time>2014-05-18T07:55:41Z</time>
      </trkpt>
      <trkpt lat="59.980664" lon="17.7285346">
        <ele>16.4797</ele>
        <time>2014-05-18T07:55:42Z</time>
      </trkpt>
      <trkpt lat="59.9806836" lon="17.7285693">
        <ele>16.4797</ele>
        <time>2014-05-18T07:55:43Z</time>
      </trkpt>
      <trkpt lat="59.9807035" lon="17.7286087">
        <ele>16.9604</ele>
        <time>2014-05-18T07:55:44Z</time>
      </trkpt>
      <trkpt lat="59.980724" lon="17.728646">
        <ele>16.9604</ele>
        <time>2014-05-18T07:55:45Z</time>
      </trkpt>
      <trkpt lat="59.9807433" lon="17.72868">
        <ele>16.9604</ele>
        <time>2014-05-18T07:55:46Z</time>
      </trkpt>
      <trkpt lat="59.9807625" lon="17.7287071">
        <ele>16.9604</ele>
        <time>2014-05-18T07:55:47Z</time>
      </trkpt>
      <trkpt lat="59.9807828" lon="17.7287273">
        <ele>16.9604</ele>
        <time>2014-05-18T07:55:48Z</time>
      </trkpt>
      <trkpt lat="59.9808014" lon="17.7287502">
        <ele>17.4412</ele>
        <time>2014-05-18T07:55:49Z</time>
      </trkpt>
      <trkpt lat="59.9808186" lon="17.7287735">
        <ele>17.4412</ele>
        <time>2014-05-18T07:55:50Z</time>
      </trkpt>
      <trkpt lat="59.980837" lon="17.7287953">
        <ele>17.4412</ele>
        <time>2014-05-18T07:55:51Z</time>
      </trkpt>
      <trkpt lat="59.9808569" lon="17.7288174">
        <ele>17.4412</ele>
        <time>2014-05-18T07:55:52Z</time>
      </trkpt>
      <trkpt lat="59.980874" lon="17.7288341">
        <ele>17.9218</ele>
        <time>2014-05-18T07:55:53Z</time>
      </trkpt>
      <trkpt lat="59.9808936" lon="17.7288485">
        <ele>18.4023</ele>
        <time>2014-05-18T07:55:54Z</time>
      </trkpt>
      <trkpt lat="59.9809149" lon="17.728857">
        <ele>18.4023</ele>
        <time>2014-05-18T07:55:55Z</time>
      </trkpt>
      <trkpt lat="59.980938" lon="17.7288554">
        <ele>18.4023</ele>
        <time>2014-05-18T07:55:56Z</time>
      </trkpt>
      <trkpt lat="59.9809625" lon="17.7288515">
        <ele>18.4023</ele>
        <time>2014-05-18T07:55:57Z</time>
      </trkpt>
      <trkpt lat="59.9809879" lon="17.7288481">
        <ele>18.4023</ele>
        <time>2014-05-18T07:55:58Z</time>
      </trkpt>
      <trkpt lat="59.9810143" lon="17.7288422">
        <ele>18.8831</ele>
        <time>2014-05-18T07:55:59Z</time>
      </trkpt>
      <trkpt lat="59.9810385" lon="17.7288324">
        <ele>18.4023</ele>
        <time>2014-05-18T07:56:00Z</time>
      </trkpt>
      <trkpt lat="59.981062" lon="17.7288163">
        <ele>18.8831</ele>
        <time>2014-05-18T07:56:01Z</time>
      </trkpt>
      <trkpt lat="59.9810851" lon="17.7287984">
        <ele>18.8831</ele>
        <time>2014-05-18T07:56:02Z</time>
      </trkpt>
      <trkpt lat="59.9811081" lon="17.7287802">
        <ele>19.3638</ele>
        <time>2014-05-18T07:56:03Z</time>
      </trkpt>
      <trkpt lat="59.98113" lon="17.7287584">
        <ele>20.325</ele>
        <time>2014-05-18T07:56:04Z</time>
      </trkpt>
      <trkpt lat="59.9811526" lon="17.7287325">
        <ele>20.8057</ele>
        <time>2014-05-18T07:56:05Z</time>
      </trkpt>
      <trkpt lat="59.9811739" lon="17.7287056">
        <ele>20.8057</ele>
        <time>2014-05-18T07:56:06Z</time>
      </trkpt>
      <trkpt lat="59.9811955" lon="17.7286774">
        <ele>21.2864</ele>
        <time>2014-05-18T07:56:07Z</time>
      </trkpt>
      <trkpt lat="59.9812185" lon="17.7286525">
        <ele>21.767</ele>
        <time>2014-05-18T07:56:08Z</time>
      </trkpt>
      <trkpt lat="59.9812413" lon="17.7286295">
        <ele>21.767</ele>
        <time>2014-05-18T07:56:09Z</time>
      </trkpt>
      <trkpt lat="59.9812631" lon="17.728609">
        <ele>22.2476</ele>
        <time>2014-05-18T07:56:10Z</time>
      </trkpt>
      <trkpt lat="59.9812859" lon="17.7285864">
        <ele>22.2476</ele>
        <time>2014-05-18T07:56:11Z</time>
      </trkpt>
      <trkpt lat="59.9813078" lon="17.7285624">
        <ele>22.2476</ele>
        <time>2014-05-18T07:56:12Z</time>
      </trkpt>
      <trkpt lat="59.9813278" lon="17.728534">
        <ele>22.7283</ele>
        <time>2014-05-18T07:56:13Z</time>
      </trkpt>
      <trkpt lat="59.9813491" lon="17.7285029">
        <ele>23.209</ele>
        <time>2014-05-18T07:56:14Z</time>
      </trkpt>
      <trkpt lat="59.981371" lon="17.7284697">
        <ele>23.209</ele>
        <time>2014-05-18T07:56:15Z</time>
      </trkpt>
      <trkpt lat="59.9813918" lon="17.7284313">
        <ele>23.6896</ele>
        <time>2014-05-18T07:56:16Z</time>
      </trkpt>
      <trkpt lat="59.9814142" lon="17.7283931">
        <ele>24.1703</ele>
        <time>2014-05-18T07:56:17Z</time>
      </trkpt>
      <trkpt lat="59.9814356" lon="17.7283513">
        <ele>24.1703</ele>
        <time>2014-05-18T07:56:18Z</time>
      </trkpt>
      <trkpt lat="59.9814588" lon="17.7283125">
        <ele>24.1703</ele>
        <time>2014-05-18T07:56:19Z</time>
      </trkpt>
      <trkpt lat="59.9814853" lon="17.7282817">
        <ele>24.651</ele>
        <time>2014-05-18T07:56:20Z</time>
      </trkpt>
      <trkpt lat="59.9815104" lon="17.7282675">
        <ele>25.1317</ele>
        <time>2014-05-18T07:56:21Z</time>
      </trkpt>
      <trkpt lat="59.981533" lon="17.7282532">
        <ele>25.1317</ele>
        <time>2014-05-18T07:56:22Z</time>
      </trkpt>
      <trkpt lat="59.9815591" lon="17.7282346">
        <ele>25.1317</ele>
        <time>2014-05-18T07:56:23Z</time>
      </trkpt>
      <trkpt lat="59.981585" lon="17.7282176">
        <ele>25.1317</ele>
        <time>2014-05-18T07:56:24Z</time>
      </trkpt>
      <trkpt lat="59.9816106" lon="17.7282024">
        <ele>25.6123</ele>
        <time>2014-05-18T07:56:25Z</time>
      </trkpt>
      <trkpt lat="59.9816365" lon="17.7281871">
        <ele>25.6123</ele>
        <time>2014-05-18T07:56:26Z</time>
      </trkpt>
      <trkpt lat="59.9816612" lon="17.7281726">
        <ele>25.6123</ele>
        <time>2014-05-18T07:56:27Z</time>
      </trkpt>
      <trkpt lat="59.9816857" lon="17.7281532">
        <ele>25.6123</ele>
        <time>2014-05-18T07:56:28Z</time>
      </trkpt>
      <trkpt lat="59.9817126" lon="17.7281253">
        <ele>25.1317</ele>
        <time>2014-05-18T07:56:29Z</time>
      </trkpt>
      <trkpt lat="59.9817386" lon="17.7280959">
        <ele>25.1317</ele>
        <time>2014-05-18T07:56:30Z</time>
      </trkpt>
      <trkpt lat="59.9817633" lon="17.7280648">
        <ele>25.6123</ele>
        <time>2014-05-18T07:56:31Z</time>
      </trkpt>
      <trkpt lat="59.9817867" lon="17.7280299">
        <ele>25.6123</ele>
        <time>2014-05-18T07:56:32Z</time>
      </trkpt>
      <trkpt lat="59.9818109" lon="17.7279933">
        <ele>25.6123</ele>
        <time>2014-05-18T07:56:33Z</time>
      </trkpt>
      <trkpt lat="59.9818369" lon="17.7279621">
        <ele>25.6123</ele>
        <time>2014-05-18T07:56:34Z</time>
      </trkpt>
      <trkpt lat="59.9818605" lon="17.7279337">
        <ele>25.1317</ele>
        <time>2014-05-18T07:56:35Z</time>
      </trkpt>
      <trkpt lat="59.981883" lon="17.7278991">
        <ele>25.1317</ele>
        <time>2014-05-18T07:56:36Z</time>
      </trkpt>
      <trkpt lat="59.9819057" lon="17.7278685">
        <ele>25.1317</ele>
        <time>2014-05-18T07:56:37Z</time>
      </trkpt>
      <trkpt lat="59.9819282" lon="17.7278409">
        <ele>25.1317</ele>
        <time>2014-05-18T07:56:38Z</time>
      </trkpt>
      <trkpt lat="59.981953" lon="17.7278068">
        <ele>25.6123</ele>
        <time>2014-05-18T07:56:39Z</time>
      </trkpt>
      <trkpt lat="59.9819761" lon="17.7277705">
        <ele>25.1317</ele>
        <time>2014-05-18T07:56:40Z</time>
      </trkpt>
      <trkpt lat="59.9820006" lon="17.7277375">
        <ele>25.6123</ele>
        <time>2014-05-18T07:56:41Z</time>
      </trkpt>
      <trkpt lat="59.9820249" lon="17.7277058">
        <ele>26.0929</ele>
        <time>2014-05-18T07:56:42Z</time>
      </trkpt>
      <trkpt lat="59.9820457" lon="17.7276773">
        <ele>26.0929</ele>
        <time>2014-05-18T07:56:43Z</time>
      </trkpt>
      <trkpt lat="59.9820662" lon="17.7276429">
        <ele>26.5736</ele>
        <time>2014-05-18T07:56:44Z</time>
      </trkpt>
      <trkpt lat="59.9820871" lon="17.727606">
        <ele>26.5736</ele>
        <time>2014-05-18T07:56:45Z</time>
      </trkpt>
      <trkpt lat="59.9821074" lon="17.7275718">
        <ele>26.5736</ele>
        <time>2014-05-18T07:56:46Z</time>
      </trkpt>
      <trkpt lat="59.9821273" lon="17.7275316">
        <ele>26.5736</ele>
        <time>2014-05-18T07:56:47Z</time>
      </trkpt>
      <trkpt lat="59.9821481" lon="17.7274826">
        <ele>26.5736</ele>
        <time>2014-05-18T07:56:48Z</time>
      </trkpt>
      <trkpt lat="59.9821668" lon="17.7274425">
        <ele>26.5736</ele>
        <time>2014-05-18T07:56:49Z</time>
      </trkpt>
      <trkpt lat="59.9821829" lon="17.7274007">
        <ele>27.0543</ele>
        <time>2014-05-18T07:56:50Z</time>
      </trkpt>
      <trkpt lat="59.9821999" lon="17.727356">
        <ele>26.5736</ele>
        <time>2014-05-18T07:56:51Z</time>
      </trkpt>
      <trkpt lat="59.982219" lon="17.7273205">
        <ele>27.0543</ele>
        <time>2014-05-18T07:56:52Z</time>
      </trkpt>
      <trkpt lat="59.9822371" lon="17.7272866">
        <ele>27.5349</ele>
        <time>2014-05-18T07:56:53Z</time>
      </trkpt>
      <trkpt lat="59.9822504" lon="17.7272501">
        <ele>27.5349</ele>
        <time>2014-05-18T07:56:54Z</time>
      </trkpt>
      <trkpt lat="59.9822616" lon="17.7272024">
        <ele>28.0155</ele>
        <time>2014-05-18T07:56:55Z</time>
      </trkpt>
      <trkpt lat="59.9822737" lon="17.7271449">
        <ele>28.4962</ele>
        <time>2014-05-18T07:56:56Z</time>
      </trkpt>
      <trkpt lat="59.9822869" lon="17.7270812">
        <ele>28.4962</ele>
        <time>2014-05-18T07:56:57Z</time>
      </trkpt>
      <trkpt lat="59.9823017" lon="17.7270327">
        <ele>28.9769</ele>
        <time>2014-05-18T07:56:58Z</time>
      </trkpt>
      <trkpt lat="59.982318" lon="17.7269837">
        <ele>28.9769</ele>
        <time>2014-05-18T07:56:59Z</time>
      </trkpt>
      <trkpt lat="59.9823346" lon="17.7269401">
        <ele>29.9381</ele>
        <time>2014-05-18T07:57:00Z</time>
      </trkpt>
      <trkpt lat="59.9823527" lon="17.7269044">
        <ele>30.4188</ele>
        <time>2014-05-18T07:57:01Z</time>
      </trkpt>
      <trkpt lat="59.982373" lon="17.7268687">
        <ele>30.8995</ele>
        <time>2014-05-18T07:57:02Z</time>
      </trkpt>
      <trkpt lat="59.9823928" lon="17.7268349">
        <ele>30.8995</ele>
        <time>2014-05-18T07:57:03Z</time>
      </trkpt>
      <trkpt lat="59.982416" lon="17.7268081">
        <ele>31.3801</ele>
        <time>2014-05-18T07:57:04Z</time>
      </trkpt>
      <trkpt lat="59.9824386" lon="17.7267834">
        <ele>31.3801</ele>
        <time>2014-05-18T07:57:05Z</time>
      </trkpt>
      <trkpt lat="59.9824635" lon="17.7267606">
        <ele>31.3801</ele>
        <time>2014-05-18T07:57:06Z</time>
      </trkpt>
      <trkpt lat="59.9824925" lon="17.726748">
        <ele>31.3801</ele>
        <time>2014-05-18T07:57:07Z</time>
      </trkpt>
      <trkpt lat="59.9825189" lon="17.7267369">
        <ele>31.3801</ele>
        <time>2014-05-18T07:57:08Z</time>
      </trkpt>
      <trkpt lat="59.9825433" lon="17.7267247">
        <ele>31.3801</ele>
        <time>2014-05-18T07:57:09Z</time>
      </trkpt>
      <trkpt lat="59.9825668" lon="17.726704">
        <ele>31.3801</ele>
        <time>2014-05-18T07:57:10Z</time>
      </trkpt>
      <trkpt lat="59.9825909" lon="17.7266836">
        <ele>30.8995</ele>
        <time>2014-05-18T07:57:11Z</time>
      </trkpt>
      <trkpt lat="59.9826122" lon="17.7266626">
        <ele>30.4188</ele>
        <time>2014-05-18T07:57:12Z</time>
      </trkpt>
      <trkpt lat="59.9826305" lon="17.7266413">
        <ele>30.4188</ele>
        <time>2014-05-18T07:57:13Z</time>
      </trkpt>
      <trkpt lat="59.9826497" lon="17.7266289">
        <ele>30.4188</ele>
        <time>2014-05-18T07:57:14Z</time>
      </trkpt>
      <trkpt lat="59.9826707" lon="17.7266093">
        <ele>30.4188</ele>
        <time>2014-05-18T07:57:15Z</time>
      </trkpt>
      <trkpt lat="59.9826891" lon="17.7265786">
        <ele>29.9381</ele>
        <time>2014-05-18T07:57:16Z</time>
      </trkpt>
      <trkpt lat="59.9827128" lon="17.7265468">
        <ele>29.9381</ele>
        <time>2014-05-18T07:57:17Z</time>
      </trkpt>
      <trkpt lat="59.9827433" lon="17.7265271">
        <ele>29.4575</ele>
        <time>2014-05-18T07:57:18Z</time>
      </trkpt>
      <trkpt lat="59.9827702" lon="17.7265102">
        <ele>28.9769</ele>
        <time>2014-05-18T07:57:19Z</time>
      </trkpt>
      <trkpt lat="59.9827947" lon="17.7265013">
        <ele>28.9769</ele>
        <time>2014-05-18T07:57:20Z</time>
      </trkpt>
      <trkpt lat="59.9828227" lon="17.7265009">
        <ele>28.9769</ele>
        <time>2014-05-18T07:57:21Z</time>
      </trkpt>
      <trkpt lat="59.982851" lon="17.7265067">
        <ele>28.9769</ele>
        <time>2014-05-18T07:57:22Z</time>
      </trkpt>
      <trkpt lat="59.982879" lon="17.7265153">
        <ele>28.4962</ele>
        <time>2014-05-18T07:57:23Z</time>
      </trkpt>
      <trkpt lat="59.9829088" lon="17.7265259">
        <ele>28.4962</ele>
        <time>2014-05-18T07:57:24Z</time>
      </trkpt>
      <trkpt lat="59.9829387" lon="17.7265334">
        <ele>28.0155</ele>
        <time>2014-05-18T07:57:25Z</time>
      </trkpt>
      <trkpt lat="59.9829682" lon="17.7265391">
        <ele>27.5349</ele>
        <time>2014-05-18T07:57:26Z</time>
      </trkpt>
      <trkpt lat="59.9829947" lon="17.726545">
        <ele>27.0543</ele>
        <time>2014-05-18T07:57:27Z</time>
      </trkpt>
      <trkpt lat="59.9830209" lon="17.7265473">
        <ele>27.0543</ele>
        <time>2014-05-18T07:57:28Z</time>
      </trkpt>
      <trkpt lat="59.9830468" lon="17.7265434">
        <ele>26.5736</ele>
        <time>2014-05-18T07:57:29Z</time>
      </trkpt>
      <trkpt lat="59.9830729" lon="17.7265476">
        <ele>26.5736</ele>
        <time>2014-05-18T07:57:30Z</time>
      </trkpt>
      <trkpt lat="59.9830997" lon="17.7265543">
        <ele>26.0929</ele>
        <time>2014-05-18T07:57:31Z</time>
      </trkpt>
      <trkpt lat="59.9831268" lon="17.7265539">
        <ele>26.0929</ele>
        <time>2014-05-18T07:57:32Z</time>
      </trkpt>
      <trkpt lat="59.9831538" lon="17.7265532">
        <ele>26.0929</ele>
        <time>2014-05-18T07:57:33Z</time>
      </trkpt>
      <trkpt lat="59.9831796" lon="17.7265551">
        <ele>26.0929</ele>
        <time>2014-05-18T07:57:34Z</time>
      </trkpt>
      <trkpt lat="59.9832076" lon="17.7265574">
        <ele>26.0929</ele>
        <time>2014-05-18T07:57:35Z</time>
      </trkpt>
      <trkpt lat="59.9832381" lon="17.7265606">
        <ele>26.0929</ele>
        <time>2014-05-18T07:57:36Z</time>
      </trkpt>
      <trkpt lat="59.9832676" lon="17.7265631">
        <ele>25.6123</ele>
        <time>2014-05-18T07:57:37Z</time>
      </trkpt>
      <trkpt lat="59.9832976" lon="17.7265687">
        <ele>26.0929</ele>
        <time>2014-05-18T07:57:38Z</time>
      </trkpt>
      <trkpt lat="59.9833251" lon="17.7265696">
        <ele>25.6123</ele>
        <time>2014-05-18T07:57:39Z</time>
      </trkpt>
      <trkpt lat="59.983353" lon="17.7265712">
        <ele>25.6123</ele>
        <time>2014-05-18T07:57:40Z</time>
      </trkpt>
      <trkpt lat="59.9833816" lon="17.7265748">
        <ele>25.6123</ele>
        <time>2014-05-18T07:57:41Z</time>
      </trkpt>
      <trkpt lat="59.9834096" lon="17.7265785">
        <ele>25.6123</ele>
        <time>2014-05-18T07:57:42Z</time>
      </trkpt>
      <trkpt lat="59.983438" lon="17.7265829">
        <ele>25.6123</ele>
        <time>2014-05-18T07:57:43Z</time>
      </trkpt>
      <trkpt lat="59.9834661" lon="17.7265846">
        <ele>25.6123</ele>
        <time>2014-05-18T07:57:44Z</time>
      </trkpt>
      <trkpt lat="59.9834913" lon="17.7265853">
        <ele>25.1317</ele>
        <time>2014-05-18T07:57:45Z</time>
      </trkpt>
      <trkpt lat="59.9835182" lon="17.7265849">
        <ele>25.1317</ele>
        <time>2014-05-18T07:57:46Z</time>
      </trkpt>
      <trkpt lat="59.9835458" lon="17.7265885">
        <ele>24.651</ele>
        <time>2014-05-18T07:57:47Z</time>
      </trkpt>
      <trkpt lat="59.9835732" lon="17.7265873">
        <ele>24.1703</ele>
        <time>2014-05-18T07:57:48Z</time>
      </trkpt>
      <trkpt lat="59.9836023" lon="17.7265914">
        <ele>24.651</ele>
        <time>2014-05-18T07:57:49Z</time>
      </trkpt>
      <trkpt lat="59.9836298" lon="17.7265922">
        <ele>24.1703</ele>
        <time>2014-05-18T07:57:50Z</time>
      </trkpt>
      <trkpt lat="59.9836561" lon="17.7265867">
        <ele>24.651</ele>
        <time>2014-05-18T07:57:51Z</time>
      </trkpt>
      <trkpt lat="59.9836815" lon="17.7265821">
        <ele>24.651</ele>
        <time>2014-05-18T07:57:52Z</time>
      </trkpt>
      <trkpt lat="59.9837067" lon="17.7265756">
        <ele>24.1703</ele>
        <time>2014-05-18T07:57:53Z</time>
      </trkpt>
      <trkpt lat="59.9837348" lon="17.7265729">
        <ele>24.1703</ele>
        <time>2014-05-18T07:57:54Z</time>
      </trkpt>
      <trkpt lat="59.9837655" lon="17.7265743">
        <ele>24.1703</ele>
        <time>2014-05-18T07:57:55Z</time>
      </trkpt>
      <trkpt lat="59.9837932" lon="17.7265724">
        <ele>24.1703</ele>
        <time>2014-05-18T07:57:56Z</time>
      </trkpt>
      <trkpt lat="59.9838215" lon="17.7265703">
        <ele>23.6896</ele>
        <time>2014-05-18T07:57:57Z</time>
      </trkpt>
      <trkpt lat="59.9838504" lon="17.7265697">
        <ele>23.6896</ele>
        <time>2014-05-18T07:57:58Z</time>
      </trkpt>
      <trkpt lat="59.9838761" lon="17.7265699">
        <ele>23.6896</ele>
        <time>2014-05-18T07:57:59Z</time>
      </trkpt>
      <trkpt lat="59.9839022" lon="17.7265705">
        <ele>23.6896</ele>
        <time>2014-05-18T07:58:00Z</time>
      </trkpt>
      <trkpt lat="59.9839274" lon="17.7265688">
        <ele>23.6896</ele>
        <time>2014-05-18T07:58:01Z</time>
      </trkpt>
      <trkpt lat="59.9839525" lon="17.7265679">
        <ele>23.209</ele>
        <time>2014-05-18T07:58:02Z</time>
      </trkpt>
      <trkpt lat="59.983982" lon="17.7265712">
        <ele>23.209</ele>
        <time>2014-05-18T07:58:03Z</time>
      </trkpt>
      <trkpt lat="59.9840129" lon="17.7265723">
        <ele>22.7283</ele>
        <time>2014-05-18T07:58:04Z</time>
      </trkpt>
      <trkpt lat="59.9840437" lon="17.7265745">
        <ele>23.209</ele>
        <time>2014-05-18T07:58:05Z</time>
      </trkpt>
      <trkpt lat="59.9840727" lon="17.7265765">
        <ele>23.209</ele>
        <time>2014-05-18T07:58:06Z</time>
      </trkpt>
      <trkpt lat="59.9840989" lon="17.7265803">
        <ele>23.209</ele>
        <time>2014-05-18T07:58:07Z</time>
      </trkpt>
      <trkpt lat="59.9841233" lon="17.7265837">
        <ele>23.209</ele>
        <time>2014-05-18T07:58:08Z</time>
      </trkpt>
      <trkpt lat="59.9841468" lon="17.7265811">
        <ele>23.209</ele>
        <time>2014-05-18T07:58:09Z</time>
      </trkpt>
      <trkpt lat="59.984171" lon="17.7265771">
        <ele>23.209</ele>
        <time>2014-05-18T07:58:10Z</time>
      </trkpt>
      <trkpt lat="59.9841963" lon="17.7265765">
        <ele>23.209</ele>
        <time>2014-05-18T07:58:11Z</time>
      </trkpt>
      <trkpt lat="59.9842218" lon="17.7265725">
        <ele>23.209</ele>
        <time>2014-05-18T07:58:12Z</time>
      </trkpt>
      <trkpt lat="59.9842483" lon="17.7265693">
        <ele>23.209</ele>
        <time>2014-05-18T07:58:13Z</time>
      </trkpt>
      <trkpt lat="59.9842756" lon="17.7265682">
        <ele>23.209</ele>
        <time>2014-05-18T07:58:14Z</time>
      </trkpt>
      <trkpt lat="59.9843007" lon="17.7265631">
        <ele>23.209</ele>
        <time>2014-05-18T07:58:15Z</time>
      </trkpt>
      <trkpt lat="59.9843269" lon="17.7265558">
        <ele>23.209</ele>
        <time>2014-05-18T07:58:16Z</time>
      </trkpt>
      <trkpt lat="59.9843566" lon="17.7265537">
        <ele>23.209</ele>
        <time>2014-05-18T07:58:17Z</time>
      </trkpt>
      <trkpt lat="59.984385" lon="17.7265547">
        <ele>23.209</ele>
        <time>2014-05-18T07:58:18Z</time>
      </trkpt>
      <trkpt lat="59.9844126" lon="17.7265549">
        <ele>23.209</ele>
        <time>2014-05-18T07:58:19Z</time>
      </trkpt>
      <trkpt lat="59.9844399" lon="17.7265547">
        <ele>23.209</ele>
        <time>2014-05-18T07:58:20Z</time>
      </trkpt>
      <trkpt lat="59.9844665" lon="17.7265539">
        <ele>23.209</ele>
        <time>2014-05-18T07:58:21Z</time>
      </trkpt>
      <trkpt lat="59.9844952" lon="17.7265579">
        <ele>23.209</ele>
        <time>2014-05-18T07:58:22Z</time>
      </trkpt>
      <trkpt lat="59.9845228" lon="17.726563">
        <ele>23.209</ele>
        <time>2014-05-18T07:58:23Z</time>
      </trkpt>
      <trkpt lat="59.9845516" lon="17.7265663">
        <ele>23.209</ele>
        <time>2014-05-18T07:58:24Z</time>
      </trkpt>
      <trkpt lat="59.9845827" lon="17.7265676">
        <ele>23.209</ele>
        <time>2014-05-18T07:58:25Z</time>
      </trkpt>
      <trkpt lat="59.9846119" lon="17.726564">
        <ele>23.209</ele>
        <time>2014-05-18T07:58:26Z</time>
      </trkpt>
      <trkpt lat="59.9846402" lon="17.7265603">
        <ele>23.209</ele>
        <time>2014-05-18T07:58:27Z</time>
      </trkpt>
      <trkpt lat="59.9846664" lon="17.7265589">
        <ele>22.7283</ele>
        <time>2014-05-18T07:58:28Z</time>
      </trkpt>
      <trkpt lat="59.9846906" lon="17.7265582">
        <ele>23.209</ele>
        <time>2014-05-18T07:58:29Z</time>
      </trkpt>
      <trkpt lat="59.9847165" lon="17.7265599">
        <ele>23.209</ele>
        <time>2014-05-18T07:58:30Z</time>
      </trkpt>
      <trkpt lat="59.9847425" lon="17.7265603">
        <ele>22.7283</ele>
        <time>2014-05-18T07:58:31Z</time>
      </trkpt>
      <trkpt lat="59.9847681" lon="17.7265594">
        <ele>22.7283</ele>
        <time>2014-05-18T07:58:32Z</time>
      </trkpt>
      <trkpt lat="59.9847951" lon="17.7265618">
        <ele>23.209</ele>
        <time>2014-05-18T07:58:33Z</time>
      </trkpt>
      <trkpt lat="59.9848202" lon="17.7265636">
        <ele>23.209</ele>
        <time>2014-05-18T07:58:34Z</time>
      </trkpt>
      <trkpt lat="59.984846" lon="17.7265646">
        <ele>23.6896</ele>
        <time>2014-05-18T07:58:35Z</time>
      </trkpt>
      <trkpt lat="59.9848738" lon="17.7265672">
        <ele>23.6896</ele>
        <time>2014-05-18T07:58:36Z</time>
      </trkpt>
      <trkpt lat="59.9848997" lon="17.7265708">
        <ele>24.1703</ele>
        <time>2014-05-18T07:58:37Z</time>
      </trkpt>
      <trkpt lat="59.9849244" lon="17.7265725">
        <ele>24.1703</ele>
        <time>2014-05-18T07:58:38Z</time>
      </trkpt>
      <trkpt lat="59.9849502" lon="17.7265698">
        <ele>24.1703</ele>
        <time>2014-05-18T07:58:39Z</time>
      </trkpt>
      <trkpt lat="59.984976" lon="17.7265614">
        <ele>24.1703</ele>
        <time>2014-05-18T07:58:40Z</time>
      </trkpt>
      <trkpt lat="59.9850031" lon="17.7265591">
        <ele>24.1703</ele>
        <time>2014-05-18T07:58:41Z</time>
      </trkpt>
      <trkpt lat="59.9850299" lon="17.7265605">
        <ele>24.1703</ele>
        <time>2014-05-18T07:58:42Z</time>
      </trkpt>
      <trkpt lat="59.9850567" lon="17.7265583">
        <ele>24.1703</ele>
        <time>2014-05-18T07:58:43Z</time>
      </trkpt>
      <trkpt lat="59.9850854" lon="17.7265595">
        <ele>24.651</ele>
        <time>2014-05-18T07:58:44Z</time>
      </trkpt>
      <trkpt lat="59.9851119" lon="17.7265605">
        <ele>24.651</ele>
        <time>2014-05-18T07:58:45Z</time>
      </trkpt>
      <trkpt lat="59.9851393" lon="17.7265595">
        <ele>24.651</ele>
        <time>2014-05-18T07:58:46Z</time>
      </trkpt>
      <trkpt lat="59.9851667" lon="17.7265599">
        <ele>25.1317</ele>
        <time>2014-05-18T07:58:47Z</time>
      </trkpt>
      <trkpt lat="59.9851921" lon="17.72656">
        <ele>25.1317</ele>
        <time>2014-05-18T07:58:48Z</time>
      </trkpt>
      <trkpt lat="59.9852195" lon="17.7265606">
        <ele>25.1317</ele>
        <time>2014-05-18T07:58:49Z</time>
      </trkpt>
      <trkpt lat="59.9852475" lon="17.7265614">
        <ele>25.1317</ele>
        <time>2014-05-18T07:58:50Z</time>
      </trkpt>
      <trkpt lat="59.9852755" lon="17.7265599">
        <ele>25.1317</ele>
        <time>2014-05-18T07:58:51Z</time>
      </trkpt>
      <trkpt lat="59.9853015" lon="17.7265579">
        <ele>25.1317</ele>
        <time>2014-05-18T07:58:52Z</time>
      </trkpt>
      <trkpt lat="59.9853278" lon="17.7265562">
        <ele>25.1317</ele>
        <time>2014-05-18T07:58:53Z</time>
      </trkpt>
      <trkpt lat="59.9853547" lon="17.7265533">
        <ele>25.1317</ele>
        <time>2014-05-18T07:58:54Z</time>
      </trkpt>
      <trkpt lat="59.9853822" lon="17.7265538">
        <ele>24.651</ele>
        <time>2014-05-18T07:58:55Z</time>
      </trkpt>
      <trkpt lat="59.9854086" lon="17.7265551">
        <ele>25.1317</ele>
        <time>2014-05-18T07:58:56Z</time>
      </trkpt>
      <trkpt lat="59.9854375" lon="17.7265564">
        <ele>25.1317</ele>
        <time>2014-05-18T07:58:57Z</time>
      </trkpt>
      <trkpt lat="59.9854678" lon="17.7265564">
        <ele>25.1317</ele>
        <time>2014-05-18T07:58:58Z</time>
      </trkpt>
      <trkpt lat="59.9854978" lon="17.7265554">
        <ele>25.1317</ele>
        <time>2014-05-18T07:58:59Z</time>
      </trkpt>
      <trkpt lat="59.9855277" lon="17.7265532">
        <ele>25.1317</ele>
        <time>2014-05-18T07:59:00Z</time>
      </trkpt>
      <trkpt lat="59.9855557" lon="17.7265523">
        <ele>24.651</ele>
        <time>2014-05-18T07:59:01Z</time>
      </trkpt>
      <trkpt lat="59.985585" lon="17.7265533">
        <ele>25.1317</ele>
        <time>2014-05-18T07:59:02Z</time>
      </trkpt>
      <trkpt lat="59.9856136" lon="17.7265512">
        <ele>24.651</ele>
        <time>2014-05-18T07:59:03Z</time>
      </trkpt>
      <trkpt lat="59.98564" lon="17.7265475">
        <ele>24.1703</ele>
        <time>2014-05-18T07:59:04Z</time>
      </trkpt>
      <trkpt lat="59.9856665" lon="17.7265468">
        <ele>24.651</ele>
        <time>2014-05-18T07:59:05Z</time>
      </trkpt>
      <trkpt lat="59.9856945" lon="17.7265454">
        <ele>24.651</ele>
        <time>2014-05-18T07:59:06Z</time>
      </trkpt>
      <trkpt lat="59.985722" lon="17.726543">
        <ele>24.651</ele>
        <time>2014-05-18T07:59:07Z</time>
      </trkpt>
      <trkpt lat="59.9857506" lon="17.7265412">
        <ele>24.651</ele>
        <time>2014-05-18T07:59:08Z</time>
      </trkpt>
      <trkpt lat="59.9857809" lon="17.7265432">
        <ele>24.651</ele>
        <time>2014-05-18T07:59:09Z</time>
      </trkpt>
      <trkpt lat="59.9858105" lon="17.7265434">
        <ele>24.1703</ele>
        <time>2014-05-18T07:59:10Z</time>
      </trkpt>
      <trkpt lat="59.9858399" lon="17.7265416">
        <ele>24.1703</ele>
        <time>2014-05-18T07:59:11Z</time>
      </trkpt>
      <trkpt lat="59.9858687" lon="17.7265406">
        <ele>24.1703</ele>
        <time>2014-05-18T07:59:12Z</time>
      </trkpt>
      <trkpt lat="59.9858976" lon="17.7265404">
        <ele>24.1703</ele>
        <time>2014-05-18T07:59:13Z</time>
      </trkpt>
      <trkpt lat="59.985925" lon="17.7265419">
        <ele>23.6896</ele>
        <time>2014-05-18T07:59:14Z</time>
      </trkpt>
      <trkpt lat="59.9859499" lon="17.7265446">
        <ele>23.6896</ele>
        <time>2014-05-18T07:59:15Z</time>
      </trkpt>
      <trkpt lat="59.9859746" lon="17.7265445">
        <ele>23.6896</ele>
        <time>2014-05-18T07:59:16Z</time>
      </trkpt>
      <trkpt lat="59.9860022" lon="17.7265433">
        <ele>23.6896</ele>
        <time>2014-05-18T07:59:17Z</time>
      </trkpt>
      <trkpt lat="59.98603" lon="17.7265424">
        <ele>23.6896</ele>
        <time>2014-05-18T07:59:18Z</time>
      </trkpt>
      <trkpt lat="59.9860587" lon="17.7265423">
        <ele>23.6896</ele>
        <time>2014-05-18T07:59:19Z</time>
      </trkpt>
      <trkpt lat="59.986088" lon="17.7265398">
        <ele>23.6896</ele>
        <time>2014-05-18T07:59:20Z</time>
      </trkpt>
      <trkpt lat="59.9861168" lon="17.7265357">
        <ele>23.209</ele>
        <time>2014-05-18T07:59:21Z</time>
      </trkpt>
      <trkpt lat="59.9861457" lon="17.7265347">
        <ele>23.209</ele>
        <time>2014-05-18T07:59:22Z</time>
      </trkpt>
      <trkpt lat="59.9861727" lon="17.7265337">
        <ele>23.209</ele>
        <time>2014-05-18T07:59:23Z</time>
      </trkpt>
      <trkpt lat="59.9861991" lon="17.7265323">
        <ele>23.209</ele>
        <time>2014-05-18T07:59:24Z</time>
      </trkpt>
      <trkpt lat="59.9862264" lon="17.7265325">
        <ele>23.6896</ele>
        <time>2014-05-18T07:59:25Z</time>
      </trkpt>
      <trkpt lat="59.9862525" lon="17.7265302">
        <ele>23.6896</ele>
        <time>2014-05-18T07:59:26Z</time>
      </trkpt>
      <trkpt lat="59.9862785" lon="17.7265274">
        <ele>24.1703</ele>
        <time>2014-05-18T07:59:27Z</time>
      </trkpt>
      <trkpt lat="59.9863068" lon="17.7265257">
        <ele>24.1703</ele>
        <time>2014-05-18T07:59:28Z</time>
      </trkpt>
      <trkpt lat="59.9863338" lon="17.7265231">
        <ele>24.1703</ele>
        <time>2014-05-18T07:59:29Z</time>
      </trkpt>
      <trkpt lat="59.9863603" lon="17.7265228">
        <ele>24.1703</ele>
        <time>2014-05-18T07:59:30Z</time>
      </trkpt>
      <trkpt lat="59.9863862" lon="17.7265269">
        <ele>24.1703</ele>
        <time>2014-05-18T07:59:31Z</time>
      </trkpt>
      <trkpt lat="59.9864105" lon="17.726528">
        <ele>24.1703</ele>
        <time>2014-05-18T07:59:32Z</time>
      </trkpt>
      <trkpt lat="59.9864368" lon="17.7265254">
        <ele>23.6896</ele>
        <time>2014-05-18T07:59:33Z</time>
      </trkpt>
      <trkpt lat="59.9864633" lon="17.7265214">
        <ele>23.6896</ele>
        <time>2014-05-18T07:59:34Z</time>
      </trkpt>
      <trkpt lat="59.9864886" lon="17.726516">
        <ele>23.6896</ele>
        <time>2014-05-18T07:59:35Z</time>
      </trkpt>
      <trkpt lat="59.9865167" lon="17.7265161">
        <ele>23.6896</ele>
        <time>2014-05-18T07:59:36Z</time>
      </trkpt>
      <trkpt lat="59.9865451" lon="17.7265169">
        <ele>23.6896</ele>
        <time>2014-05-18T07:59:37Z</time>
      </trkpt>
      <trkpt lat="59.9865741" lon="17.7265164">
        <ele>23.6896</ele>
        <time>2014-05-18T07:59:38Z</time>
      </trkpt>
      <trkpt lat="59.9866019" lon="17.7265157">
        <ele>24.1703</ele>
        <time>2014-05-18T07:59:39Z</time>
      </trkpt>
      <trkpt lat="59.986628" lon="17.7265142">
        <ele>24.1703</ele>
        <time>2014-05-18T07:59:40Z</time>
      </trkpt>
      <trkpt lat="59.9866552" lon="17.7265138">
        <ele>24.1703</ele>
        <time>2014-05-18T07:59:41Z</time>
      </trkpt>
      <trkpt lat="59.9866841" lon="17.7265134">
        <ele>24.1703</ele>
        <time>2014-05-18T07:59:42Z</time>
      </trkpt>
      <trkpt lat="59.9867128" lon="17.7265123">
        <ele>24.1703</ele>
        <time>2014-05-18T07:59:43Z</time>
      </trkpt>
      <trkpt lat="59.9867403" lon="17.7265108">
        <ele>24.1703</ele>
        <time>2014-05-18T07:59:44Z</time>
      </trkpt>
      <trkpt lat="59.9867684" lon="17.7265118">
        <ele>23.6896</ele>
        <time>2014-05-18T07:59:45Z</time>
      </trkpt>
      <trkpt lat="59.9867964" lon="17.7265166">
        <ele>23.6896</ele>
        <time>2014-05-18T07:59:46Z</time>
      </trkpt>
      <trkpt lat="59.9868238" lon="17.7265249">
        <ele>23.6896</ele>
        <time>2014-05-18T07:59:47Z</time>
      </trkpt>
      <trkpt lat="59.9868482" lon="17.7265275">
        <ele>23.6896</ele>
        <time>2014-05-18T07:59:48Z</time>
      </trkpt>
      <trkpt lat="59.9868735" lon="17.7265274">
        <ele>23.6896</ele>
        <time>2014-05-18T07:59:49Z</time>
      </trkpt>
      <trkpt lat="59.9868996" lon="17.7265298">
        <ele>23.6896</ele>
        <time>2014-05-18T07:59:50Z</time>
      </trkpt>
      <trkpt lat="59.9869265" lon="17.726531">
        <ele>23.6896</ele>
        <time>2014-05-18T07:59:51Z</time>
      </trkpt>
      <trkpt lat="59.9869531" lon="17.7265306">
        <ele>23.209</ele>
        <time>2014-05-18T07:59:52Z</time>
      </trkpt>
      <trkpt lat="59.9869798" lon="17.726532">
        <ele>23.209</ele>
        <time>2014-05-18T07:59:53Z</time>
      </trkpt>
      <trkpt lat="59.9870054" lon="17.7265314">
        <ele>22.7283</ele>
        <time>2014-05-18T07:59:54Z</time>
      </trkpt>
      <trkpt lat="59.987032" lon="17.7265304">
        <ele>22.7283</ele>
        <time>2014-05-18T07:59:55Z</time>
      </trkpt>
      <trkpt lat="59.9870599" lon="17.7265308">
        <ele>22.2476</ele>
        <time>2014-05-18T07:59:56Z</time>
      </trkpt>
      <trkpt lat="59.9870875" lon="17.7265313">
        <ele>22.2476</ele>
        <time>2014-05-18T07:59:57Z</time>
      </trkpt>
      <trkpt lat="59.987115" lon="17.7265306">
        <ele>22.2476</ele>
        <time>2014-05-18T07:59:58Z</time>
      </trkpt>
      <trkpt lat="59.9871441" lon="17.7265308">
        <ele>21.767</ele>
        <time>2014-05-18T07:59:59Z</time>
      </trkpt>
      <trkpt lat="59.9871724" lon="17.7265314">
        <ele>21.767</ele>
        <time>2014-05-18T08:00:00Z</time>
      </trkpt>
      <trkpt lat="59.9872002" lon="17.7265325">
        <ele>21.767</ele>
        <time>2014-05-18T08:00:01Z</time>
      </trkpt>
      <trkpt lat="59.9872279" lon="17.7265302">
        <ele>21.767</ele>
        <time>2014-05-18T08:00:02Z</time>
      </trkpt>
      <trkpt lat="59.9872564" lon="17.7265277">
        <ele>21.767</ele>
        <time>2014-05-18T08:00:03Z</time>
      </trkpt>
      <trkpt lat="59.9872843" lon="17.7265284">
        <ele>21.767</ele>
        <time>2014-05-18T08:00:04Z</time>
      </trkpt>
      <trkpt lat="59.9873108" lon="17.7265274">
        <ele>21.2864</ele>
        <time>2014-05-18T08:00:05Z</time>
      </trkpt>
      <trkpt lat="59.9873377" lon="17.7265242">
        <ele>21.2864</ele>
        <time>2014-05-18T08:00:06Z</time>
      </trkpt>
      <trkpt lat="59.9873651" lon="17.7265263">
        <ele>21.2864</ele>
        <time>2014-05-18T08:00:07Z</time>
      </trkpt>
      <trkpt lat="59.9873929" lon="17.726528">
        <ele>21.2864</ele>
        <time>2014-05-18T08:00:08Z</time>
      </trkpt>
      <trkpt lat="59.9874207" lon="17.7265253">
        <ele>20.8057</ele>
        <time>2014-05-18T08:00:09Z</time>
      </trkpt>
      <trkpt lat="59.9874499" lon="17.7265212">
        <ele>20.8057</ele>
        <time>2014-05-18T08:00:10Z</time>
      </trkpt>
      <trkpt lat="59.987478" lon="17.7265197">
        <ele>20.8057</ele>
        <time>2014-05-18T08:00:11Z</time>
      </trkpt>
      <trkpt lat="59.9875055" lon="17.7265185">
        <ele>20.8057</ele>
        <time>2014-05-18T08:00:12Z</time>
      </trkpt>
      <trkpt lat="59.9875335" lon="17.7265165">
        <ele>20.8057</ele>
        <time>2014-05-18T08:00:13Z</time>
      </trkpt>
      <trkpt lat="59.9875625" lon="17.7265154">
        <ele>20.325</ele>
        <time>2014-05-18T08:00:14Z</time>
      </trkpt>
      <trkpt lat="59.987592" lon="17.7265149">
        <ele>20.8057</ele>
        <time>2014-05-18T08:00:15Z</time>
      </trkpt>
      <trkpt lat="59.9876195" lon="17.726514">
        <ele>20.8057</ele>
        <time>2014-05-18T08:00:16Z</time>
      </trkpt>
      <trkpt lat="59.9876479" lon="17.7265135">
        <ele>20.8057</ele>
        <time>2014-05-18T08:00:17Z</time>
      </trkpt>
      <trkpt lat="59.9876758" lon="17.7265137">
        <ele>21.2864</ele>
        <time>2014-05-18T08:00:18Z</time>
      </trkpt>
      <trkpt lat="59.9877013" lon="17.7265118">
        <ele>21.2864</ele>
        <time>2014-05-18T08:00:19Z</time>
      </trkpt>
      <trkpt lat="59.9877288" lon="17.726506">
        <ele>21.2864</ele>
        <time>2014-05-18T08:00:20Z</time>
      </trkpt>
      <trkpt lat="59.9877572" lon="17.7265043">
        <ele>21.2864</ele>
        <time>2014-05-18T08:00:21Z</time>
      </trkpt>
      <trkpt lat="59.9877858" lon="17.7265035">
        <ele>21.2864</ele>
        <time>2014-05-18T08:00:22Z</time>
      </trkpt>
      <trkpt lat="59.9878136" lon="17.7265013">
        <ele>21.2864</ele>
        <time>2014-05-18T08:00:23Z</time>
      </trkpt>
      <trkpt lat="59.987842" lon="17.7264989">
        <ele>21.2864</ele>
        <time>2014-05-18T08:00:24Z</time>
      </trkpt>
      <trkpt lat="59.9878695" lon="17.7264973">
        <ele>21.2864</ele>
        <time>2014-05-18T08:00:25Z</time>
      </trkpt>
      <trkpt lat="59.987896" lon="17.7264956">
        <ele>21.767</ele>
        <time>2014-05-18T08:00:26Z</time>
      </trkpt>
      <trkpt lat="59.9879224" lon="17.7264961">
        <ele>21.2864</ele>
        <time>2014-05-18T08:00:27Z</time>
      </trkpt>
      <trkpt lat="59.9879489" lon="17.7264972">
        <ele>21.2864</ele>
        <time>2014-05-18T08:00:28Z</time>
      </trkpt>
      <trkpt lat="59.9879768" lon="17.7264989">
        <ele>21.2864</ele>
        <time>2014-05-18T08:00:29Z</time>
      </trkpt>
      <trkpt lat="59.9880064" lon="17.7265024">
        <ele>21.2864</ele>
        <time>2014-05-18T08:00:30Z</time>
      </trkpt>
      <trkpt lat="59.9880334" lon="17.7265008">
        <ele>21.2864</ele>
        <time>2014-05-18T08:00:31Z</time>
      </trkpt>
      <trkpt lat="59.9880608" lon="17.7265043">
        <ele>20.8057</ele>
        <time>2014-05-18T08:00:32Z</time>
      </trkpt>
      <trkpt lat="59.9880884" lon="17.7265147">
        <ele>21.2864</ele>
        <time>2014-05-18T08:00:33Z</time>
      </trkpt>
      <trkpt lat="59.9881138" lon="17.7265254">
        <ele>21.2864</ele>
        <time>2014-05-18T08:00:34Z</time>
      </trkpt>
      <trkpt lat="59.9881397" lon="17.726532">
        <ele>21.2864</ele>
        <time>2014-05-18T08:00:35Z</time>
      </trkpt>
      <trkpt lat="59.9881632" lon="17.726534">
        <ele>21.2864</ele>
        <time>2014-05-18T08:00:36Z</time>
      </trkpt>
      <trkpt lat="59.9881858" lon="17.7265361">
        <ele>21.2864</ele>
        <time>2014-05-18T08:00:37Z</time>
      </trkpt>
      <trkpt lat="59.9882106" lon="17.7265418">
        <ele>21.767</ele>
        <time>2014-05-18T08:00:38Z</time>
      </trkpt>
      <trkpt lat="59.9882349" lon="17.7265506">
        <ele>22.2476</ele>
        <time>2014-05-18T08:00:39Z</time>
      </trkpt>
      <trkpt lat="59.9882601" lon="17.7265558">
        <ele>22.2476</ele>
        <time>2014-05-18T08:00:40Z</time>
      </trkpt>
      <trkpt lat="59.9882867" lon="17.7265613">
        <ele>22.2476</ele>
        <time>2014-05-18T08:00:41Z</time>
      </trkpt>
      <trkpt lat="59.9883129" lon="17.7265715">
        <ele>22.7283</ele>
        <time>2014-05-18T08:00:42Z</time>
      </trkpt>
      <trkpt lat="59.9883394" lon="17.7265838">
        <ele>22.7283</ele>
        <time>2014-05-18T08:00:43Z</time>
      </trkpt>
      <trkpt lat="59.9883643" lon="17.726588">
        <ele>23.209</ele>
        <time>2014-05-18T08:00:44Z</time>
      </trkpt>
      <trkpt lat="59.9883875" lon="17.7265817">
        <ele>23.209</ele>
        <time>2014-05-18T08:00:45Z</time>
      </trkpt>
      <trkpt lat="59.9884129" lon="17.726575">
        <ele>23.209</ele>
        <time>2014-05-18T08:00:46Z</time>
      </trkpt>
      <trkpt lat="59.9884377" lon="17.7265679">
        <ele>23.209</ele>
        <time>2014-05-18T08:00:47Z</time>
      </trkpt>
      <trkpt lat="59.9884623" lon="17.7265656">
        <ele>23.6896</ele>
        <time>2014-05-18T08:00:48Z</time>
      </trkpt>
      <trkpt lat="59.9884877" lon="17.7265652">
        <ele>24.1703</ele>
        <time>2014-05-18T08:00:49Z</time>
      </trkpt>
      <trkpt lat="59.988515" lon="17.7265668">
        <ele>24.1703</ele>
        <time>2014-05-18T08:00:50Z</time>
      </trkpt>
      <trkpt lat="59.988543" lon="17.7265727">
        <ele>24.651</ele>
        <time>2014-05-18T08:00:51Z</time>
      </trkpt>
      <trkpt lat="59.9885695" lon="17.7265786">
        <ele>25.1317</ele>
        <time>2014-05-18T08:00:52Z</time>
      </trkpt>
      <trkpt lat="59.9885931" lon="17.7265769">
        <ele>25.1317</ele>
        <time>2014-05-18T08:00:53Z</time>
      </trkpt>
      <trkpt lat="59.9886182" lon="17.7265745">
        <ele>25.1317</ele>
        <time>2014-05-18T08:00:54Z</time>
      </trkpt>
      <trkpt lat="59.988646" lon="17.7265792">
        <ele>25.1317</ele>
        <time>2014-05-18T08:00:55Z</time>
      </trkpt>
      <trkpt lat="59.9886716" lon="17.7265837">
        <ele>25.1317</ele>
        <time>2014-05-18T08:00:56Z</time>
      </trkpt>
      <trkpt lat="59.9886964" lon="17.7265869">
        <ele>25.6123</ele>
        <time>2014-05-18T08:00:57Z</time>
      </trkpt>
      <trkpt lat="59.9887218" lon="17.72659">
        <ele>25.6123</ele>
        <time>2014-05-18T08:00:58Z</time>
      </trkpt>
      <trkpt lat="59.9887461" lon="17.7265907">
        <ele>25.6123</ele>
        <time>2014-05-18T08:00:59Z</time>
      </trkpt>
      <trkpt lat="59.9887703" lon="17.7265862">
        <ele>25.6123</ele>
        <time>2014-05-18T08:01:00Z</time>
      </trkpt>
      <trkpt lat="59.9887941" lon="17.7265833">
        <ele>26.0929</ele>
        <time>2014-05-18T08:01:01Z</time>
      </trkpt>
      <trkpt lat="59.9888182" lon="17.7265859">
        <ele>26.0929</ele>
        <time>2014-05-18T08:01:02Z</time>
      </trkpt>
      <trkpt lat="59.9888457" lon="17.7265938">
        <ele>26.0929</ele>
        <time>2014-05-18T08:01:03Z</time>
      </trkpt>
      <trkpt lat="59.9888714" lon="17.7265991">
        <ele>26.0929</ele>
        <time>2014-05-18T08:01:04Z</time>
      </trkpt>
      <trkpt lat="59.9888962" lon="17.7265987">
        <ele>26.5736</ele>
        <time>2014-05-18T08:01:05Z</time>
      </trkpt>
      <trkpt lat="59.9889228" lon="17.7266005">
        <ele>26.5736</ele>
        <time>2014-05-18T08:01:06Z</time>
      </trkpt>
      <trkpt lat="59.9889495" lon="17.7266018">
        <ele>26.5736</ele>
        <time>2014-05-18T08:01:07Z</time>
      </trkpt>
      <trkpt lat="59.988976" lon="17.7266015">
        <ele>26.5736</ele>
        <time>2014-05-18T08:01:08Z</time>
      </trkpt>
      <trkpt lat="59.989002" lon="17.7266008">
        <ele>27.0543</ele>
        <time>2014-05-18T08:01:09Z</time>
      </trkpt>
      <trkpt lat="59.9890274" lon="17.7265967">
        <ele>27.0543</ele>
        <time>2014-05-18T08:01:10Z</time>
      </trkpt>
      <trkpt lat="59.9890538" lon="17.7265916">
        <ele>27.0543</ele>
        <time>2014-05-18T08:01:11Z</time>
      </trkpt>
      <trkpt lat="59.9890788" lon="17.7265894">
        <ele>27.0543</ele>
        <time>2014-05-18T08:01:12Z</time>
      </trkpt>
      <trkpt lat="59.9891042" lon="17.7265853">
        <ele>27.0543</ele>
        <time>2014-05-18T08:01:13Z</time>
      </trkpt>
      <trkpt lat="59.9891308" lon="17.726586">
        <ele>27.0543</ele>
        <time>2014-05-18T08:01:14Z</time>
      </trkpt>
      <trkpt lat="59.9891553" lon="17.7265857">
        <ele>27.0543</ele>
        <time>2014-05-18T08:01:15Z</time>
      </trkpt>
      <trkpt lat="59.9891788" lon="17.7265815">
        <ele>27.0543</ele>
        <time>2014-05-18T08:01:16Z</time>
      </trkpt>
      <trkpt lat="59.9892034" lon="17.7265808">
        <ele>26.5736</ele>
        <time>2014-05-18T08:01:17Z</time>
      </trkpt>
      <trkpt lat="59.9892269" lon="17.7265796">
        <ele>26.5736</ele>
        <time>2014-05-18T08:01:18Z</time>
      </trkpt>
      <trkpt lat="59.9892529" lon="17.7265771">
        <ele>26.5736</ele>
        <time>2014-05-18T08:01:19Z</time>
      </trkpt>
      <trkpt lat="59.989278" lon="17.7265771">
        <ele>26.5736</ele>
        <time>2014-05-18T08:01:20Z</time>
      </trkpt>
      <trkpt lat="59.9893034" lon="17.7265834">
        <ele>26.5736</ele>
        <time>2014-05-18T08:01:21Z</time>
      </trkpt>
      <trkpt lat="59.9893244" lon="17.7265937">
        <ele>26.5736</ele>
        <time>2014-05-18T08:01:22Z</time>
      </trkpt>
      <trkpt lat="59.9893429" lon="17.7266017">
        <ele>26.0929</ele>
        <time>2014-05-18T08:01:23Z</time>
      </trkpt>
      <trkpt lat="59.9893634" lon="17.7266045">
        <ele>26.0929</ele>
        <time>2014-05-18T08:01:24Z</time>
      </trkpt>
      <trkpt lat="59.9893864" lon="17.7266087">
        <ele>25.6123</ele>
        <time>2014-05-18T08:01:25Z</time>
      </trkpt>
      <trkpt lat="59.9894096" lon="17.726614">
        <ele>25.6123</ele>
        <time>2014-05-18T08:01:26Z</time>
      </trkpt>
      <trkpt lat="59.9894351" lon="17.7266128">
        <ele>25.1317</ele>
        <time>2014-05-18T08:01:27Z</time>
      </trkpt>
      <trkpt lat="59.9894615" lon="17.7266147">
        <ele>25.1317</ele>
        <time>2014-05-18T08:01:28Z</time>
      </trkpt>
      <trkpt lat="59.9894859" lon="17.7266178">
        <ele>24.651</ele>
        <time>2014-05-18T08:01:29Z</time>
      </trkpt>
      <trkpt lat="59.9895076" lon="17.7266067">
        <ele>24.651</ele>
        <time>2014-05-18T08:01:30Z</time>
      </trkpt>
      <trkpt lat="59.9895313" lon="17.7265937">
        <ele>25.1317</ele>
        <time>2014-05-18T08:01:31Z</time>
      </trkpt>
      <trkpt lat="59.9895546" lon="17.7265841">
        <ele>25.1317</ele>
        <time>2014-05-18T08:01:32Z</time>
      </trkpt>
      <trkpt lat="59.9895768" lon="17.7265817">
        <ele>25.1317</ele>
        <time>2014-05-18T08:01:33Z</time>
      </trkpt>
      <trkpt lat="59.9895994" lon="17.7265762">
        <ele>24.651</ele>
        <time>2014-05-18T08:01:34Z</time>
      </trkpt>
      <trkpt lat="59.9896205" lon="17.7265701">
        <ele>24.1703</ele>
        <time>2014-05-18T08:01:35Z</time>
      </trkpt>
      <trkpt lat="59.9896414" lon="17.7265735">
        <ele>24.1703</ele>
        <time>2014-05-18T08:01:36Z</time>
      </trkpt>
      <trkpt lat="59.9896608" lon="17.7265973">
        <ele>24.1703</ele>
        <time>2014-05-18T08:01:37Z</time>
      </trkpt>
      <trkpt lat="59.9896773" lon="17.7266351">
        <ele>24.1703</ele>
        <time>2014-05-18T08:01:38Z</time>
      </trkpt>
      <trkpt lat="59.9896903" lon="17.7266771">
        <ele>24.1703</ele>
        <time>2014-05-18T08:01:39Z</time>
      </trkpt>
      <trkpt lat="59.9897006" lon="17.7267262">
        <ele>24.1703</ele>
        <time>2014-05-18T08:01:40Z</time>
      </trkpt>
      <trkpt lat="59.9896968" lon="17.7267801">
        <ele>24.651</ele>
        <time>2014-05-18T08:01:41Z</time>
      </trkpt>
      <trkpt lat="59.98969" lon="17.7268338">
        <ele>24.651</ele>
        <time>2014-05-18T08:01:42Z</time>
      </trkpt>
      <trkpt lat="59.9896794" lon="17.7268861">
        <ele>24.651</ele>
        <time>2014-05-18T08:01:43Z</time>
      </trkpt>
      <trkpt lat="59.9896698" lon="17.7269354">
        <ele>24.651</ele>
        <time>2014-05-18T08:01:44Z</time>
      </trkpt>
      <trkpt lat="59.9896506" lon="17.7269924">
        <ele>25.1317</ele>
        <time>2014-05-18T08:01:45Z</time>
      </trkpt>
      <trkpt lat="59.9896247" lon="17.7270565">
        <ele>25.6123</ele>
        <time>2014-05-18T08:01:46Z</time>
      </trkpt>
      <trkpt lat="59.9896056" lon="17.7271173">
        <ele>26.0929</ele>
        <time>2014-05-18T08:01:47Z</time>
      </trkpt>
      <trkpt lat="59.9895879" lon="17.7271778">
        <ele>26.0929</ele>
        <time>2014-05-18T08:01:48Z</time>
      </trkpt>
      <trkpt lat="59.9895724" lon="17.7272318">
        <ele>27.0543</ele>
        <time>2014-05-18T08:01:49Z</time>
      </trkpt>
      <trkpt lat="59.9895579" lon="17.7272817">
        <ele>26.5736</ele>
        <time>2014-05-18T08:01:50Z</time>
      </trkpt>
      <trkpt lat="59.989543" lon="17.7273449">
        <ele>27.5349</ele>
        <time>2014-05-18T08:01:51Z</time>
      </trkpt>
      <trkpt lat="59.9895268" lon="17.727401">
        <ele>27.5349</ele>
        <time>2014-05-18T08:01:52Z</time>
      </trkpt>
      <trkpt lat="59.9895232" lon="17.7274464">
        <ele>28.0155</ele>
        <time>2014-05-18T08:01:53Z</time>
      </trkpt>
      <trkpt lat="59.989511" lon="17.7275022">
        <ele>28.4962</ele>
        <time>2014-05-18T08:01:54Z</time>
      </trkpt>
      <trkpt lat="59.9895034" lon="17.7275587">
        <ele>28.9769</ele>
        <time>2014-05-18T08:01:55Z</time>
      </trkpt>
      <trkpt lat="59.9895153" lon="17.7276057">
        <ele>29.4575</ele>
        <time>2014-05-18T08:01:56Z</time>
      </trkpt>
      <trkpt lat="59.9895159" lon="17.7276554">
        <ele>30.4188</ele>
        <time>2014-05-18T08:01:57Z</time>
      </trkpt>
      <trkpt lat="59.9895045" lon="17.7277077">
        <ele>30.4188</ele>
        <time>2014-05-18T08:01:58Z</time>
      </trkpt>
      <trkpt lat="59.9895014" lon="17.7277572">
        <ele>30.8995</ele>
        <time>2014-05-18T08:01:59Z</time>
      </trkpt>
      <trkpt lat="59.9894994" lon="17.7277954">
        <ele>30.8995</ele>
        <time>2014-05-18T08:02:00Z</time>
      </trkpt>
      <trkpt lat="59.9894941" lon="17.7278425">
        <ele>30.8995</ele>
        <time>2014-05-18T08:02:01Z</time>
      </trkpt>
      <trkpt lat="59.9894967" lon="17.7278887">
        <ele>31.3801</ele>
        <time>2014-05-18T08:02:02Z</time>
      </trkpt>
      <trkpt lat="59.9895014" lon="17.7279343">
        <ele>31.8607</ele>
        <time>2014-05-18T08:02:03Z</time>
      </trkpt>
      <trkpt lat="59.9895055" lon="17.7279773">
        <ele>31.8607</ele>
        <time>2014-05-18T08:02:04Z</time>
      </trkpt>
      <trkpt lat="59.9895062" lon="17.7280244">
        <ele>31.8607</ele>
        <time>2014-05-18T08:02:05Z</time>
      </trkpt>
      <trkpt lat="59.9895077" lon="17.7280703">
        <ele>31.8607</ele>
        <time>2014-05-18T08:02:06Z</time>
      </trkpt>
      <trkpt lat="59.9895039" lon="17.7281156">
        <ele>31.3801</ele>
        <time>2014-05-18T08:02:07Z</time>
      </trkpt>
      <trkpt lat="59.9894999" lon="17.7281574">
        <ele>31.3801</ele>
        <time>2014-05-18T08:02:08Z</time>
      </trkpt>
      <trkpt lat="59.9894978" lon="17.7282036">
        <ele>31.3801</ele>
        <time>2014-05-18T08:02:09Z</time>
      </trkpt>
      <trkpt lat="59.9894983" lon="17.7282492">
        <ele>30.8995</ele>
        <time>2014-05-18T08:02:10Z</time>
      </trkpt>
      <trkpt lat="59.9895057" lon="17.7283015">
        <ele>30.8995</ele>
        <time>2014-05-18T08:02:11Z</time>
      </trkpt>
      <trkpt lat="59.9895071" lon="17.7283518">
        <ele>30.8995</ele>
        <time>2014-05-18T08:02:12Z</time>
      </trkpt>
      <trkpt lat="59.989505" lon="17.7283943">
        <ele>30.8995</ele>
        <time>2014-05-18T08:02:13Z</time>
      </trkpt>
      <trkpt lat="59.9895055" lon="17.7284361">
        <ele>31.3801</ele>
        <time>2014-05-18T08:02:14Z</time>
      </trkpt>
      <trkpt lat="59.9895014" lon="17.7284866">
        <ele>31.3801</ele>
        <time>2014-05-18T08:02:15Z</time>
      </trkpt>
      <trkpt lat="59.9895019" lon="17.7285377">
        <ele>31.8607</ele>
        <time>2014-05-18T08:02:16Z</time>
      </trkpt>
      <trkpt lat="59.989505" lon="17.728579">
        <ele>32.3416</ele>
        <time>2014-05-18T08:02:17Z</time>
      </trkpt>
      <trkpt lat="59.9895035" lon="17.7286253">
        <ele>32.3416</ele>
        <time>2014-05-18T08:02:18Z</time>
      </trkpt>
      <trkpt lat="59.9895013" lon="17.728674">
        <ele>32.8223</ele>
        <time>2014-05-18T08:02:19Z</time>
      </trkpt>
      <trkpt lat="59.9894929" lon="17.7287266">
        <ele>32.8223</ele>
        <time>2014-05-18T08:02:20Z</time>
      </trkpt>
      <trkpt lat="59.9894839" lon="17.7287779">
        <ele>32.8223</ele>
        <time>2014-05-18T08:02:21Z</time>
      </trkpt>
      <trkpt lat="59.9894719" lon="17.7288171">
        <ele>32.8223</ele>
        <time>2014-05-18T08:02:22Z</time>
      </trkpt>
      <trkpt lat="59.9894537" lon="17.7288512">
        <ele>32.8223</ele>
        <time>2014-05-18T08:02:23Z</time>
      </trkpt>
      <trkpt lat="59.9894324" lon="17.7288858">
        <ele>32.8223</ele>
        <time>2014-05-18T08:02:24Z</time>
      </trkpt>
      <trkpt lat="59.9894149" lon="17.7289294">
        <ele>32.8223</ele>
        <time>2014-05-18T08:02:25Z</time>
      </trkpt>
      <trkpt lat="59.989395" lon="17.7289661">
        <ele>32.3416</ele>
        <time>2014-05-18T08:02:26Z</time>
      </trkpt>
      <trkpt lat="59.9893718" lon="17.7289937">
        <ele>31.8607</ele>
        <time>2014-05-18T08:02:27Z</time>
      </trkpt>
      <trkpt lat="59.9893464" lon="17.7290248">
        <ele>31.8607</ele>
        <time>2014-05-18T08:02:28Z</time>
      </trkpt>
      <trkpt lat="59.9893185" lon="17.7290491">
        <ele>31.3801</ele>
        <time>2014-05-18T08:02:29Z</time>
      </trkpt>
      <trkpt lat="59.9893009" lon="17.7290729">
        <ele>30.8995</ele>
        <time>2014-05-18T08:02:30Z</time>
      </trkpt>
      <trkpt lat="59.9892837" lon="17.7290957">
        <ele>30.8995</ele>
        <time>2014-05-18T08:02:31Z</time>
      </trkpt>
      <trkpt lat="59.9892625" lon="17.7291247">
        <ele>30.4188</ele>
        <time>2014-05-18T08:02:32Z</time>
      </trkpt>
      <trkpt lat="59.9892439" lon="17.7291619">
        <ele>29.9381</ele>
        <time>2014-05-18T08:02:33Z</time>
      </trkpt>
      <trkpt lat="59.9892222" lon="17.7291913">
        <ele>29.9381</ele>
        <time>2014-05-18T08:02:34Z</time>
      </trkpt>
      <trkpt lat="59.9891977" lon="17.7292158">
        <ele>29.4575</ele>
        <time>2014-05-18T08:02:35Z</time>
      </trkpt>
      <trkpt lat="59.9891734" lon="17.7292451">
        <ele>29.9381</ele>
        <time>2014-05-18T08:02:36Z</time>
      </trkpt>
      <trkpt lat="59.9891507" lon="17.729268">
        <ele>29.9381</ele>
        <time>2014-05-18T08:02:37Z</time>
      </trkpt>
      <trkpt lat="59.989129" lon="17.7292795">
        <ele>30.4188</ele>
        <time>2014-05-18T08:02:38Z</time>
      </trkpt>
      <trkpt lat="59.9891045" lon="17.7292926">
        <ele>29.9381</ele>
        <time>2014-05-18T08:02:39Z</time>
      </trkpt>
      <trkpt lat="59.989078" lon="17.729309">
        <ele>29.9381</ele>
        <time>2014-05-18T08:02:40Z</time>
      </trkpt>
      <trkpt lat="59.9890523" lon="17.7293369">
        <ele>29.9381</ele>
        <time>2014-05-18T08:02:41Z</time>
      </trkpt>
      <trkpt lat="59.9890267" lon="17.7293672">
        <ele>29.9381</ele>
        <time>2014-05-18T08:02:42Z</time>
      </trkpt>
      <trkpt lat="59.9889979" lon="17.7294024">
        <ele>30.4188</ele>
        <time>2014-05-18T08:02:43Z</time>
      </trkpt>
      <trkpt lat="59.9889761" lon="17.7294328">
        <ele>30.4188</ele>
        <time>2014-05-18T08:02:44Z</time>
      </trkpt>
      <trkpt lat="59.9889616" lon="17.7294493">
        <ele>30.4188</ele>
        <time>2014-05-18T08:02:45Z</time>
      </trkpt>
      <trkpt lat="59.9889504" lon="17.7294639">
        <ele>29.9381</ele>
        <time>2014-05-18T08:02:46Z</time>
      </trkpt>
      <trkpt lat="59.9889321" lon="17.7294774">
        <ele>29.9381</ele>
        <time>2014-05-18T08:02:47Z</time>
      </trkpt>
      <trkpt lat="59.9889083" lon="17.7294934">
        <ele>29.4575</ele>
        <time>2014-05-18T08:02:48Z</time>
      </trkpt>
      <trkpt lat="59.9888939" lon="17.7295137">
        <ele>29.9381</ele>
        <time>2014-05-18T08:02:49Z</time>
      </trkpt>
      <trkpt lat="59.9888845" lon="17.7295342">
        <ele>30.4188</ele>
        <time>2014-05-18T08:02:50Z</time>
      </trkpt>
      <trkpt lat="59.9888699" lon="17.7295606">
        <ele>29.9381</ele>
        <time>2014-05-18T08:02:51Z</time>
      </trkpt>
      <trkpt lat="59.9888509" lon="17.7295867">
        <ele>29.9381</ele>
        <time>2014-05-18T08:02:52Z</time>
      </trkpt>
      <trkpt lat="59.9888338" lon="17.7296126">
        <ele>29.4575</ele>
        <time>2014-05-18T08:02:53Z</time>
      </trkpt>
      <trkpt lat="59.9888109" lon="17.7296412">
        <ele>29.4575</ele>
        <time>2014-05-18T08:02:54Z</time>
      </trkpt>
      <trkpt lat="59.9887866" lon="17.7296737">
        <ele>29.4575</ele>
        <time>2014-05-18T08:02:55Z</time>
      </trkpt>
      <trkpt lat="59.9887589" lon="17.7297049">
        <ele>28.9769</ele>
        <time>2014-05-18T08:02:56Z</time>
      </trkpt>
      <trkpt lat="59.9887301" lon="17.7297306">
        <ele>28.9769</ele>
        <time>2014-05-18T08:02:57Z</time>
      </trkpt>
      <trkpt lat="59.9887024" lon="17.7297581">
        <ele>28.4962</ele>
        <time>2014-05-18T08:02:58Z</time>
      </trkpt>
      <trkpt lat="59.988672" lon="17.7297886">
        <ele>28.4962</ele>
        <time>2014-05-18T08:02:59Z</time>
      </trkpt>
      <trkpt lat="59.9886431" lon="17.729821">
        <ele>28.4962</ele>
        <time>2014-05-18T08:03:00Z</time>
      </trkpt>
      <trkpt lat="59.9886203" lon="17.7298512">
        <ele>28.4962</ele>
        <time>2014-05-18T08:03:01Z</time>
      </trkpt>
      <trkpt lat="59.9885993" lon="17.729886">
        <ele>28.4962</ele>
        <time>2014-05-18T08:03:02Z</time>
      </trkpt>
      <trkpt lat="59.9885738" lon="17.7299224">
        <ele>28.0155</ele>
        <time>2014-05-18T08:03:03Z</time>
      </trkpt>
      <trkpt lat="59.9885452" lon="17.7299632">
        <ele>28.0155</ele>
        <time>2014-05-18T08:03:04Z</time>
      </trkpt>
      <trkpt lat="59.9885207" lon="17.7299975">
        <ele>28.4962</ele>
        <time>2014-05-18T08:03:05Z</time>
      </trkpt>
      <trkpt lat="59.9884938" lon="17.7300277">
        <ele>28.0155</ele>
        <time>2014-05-18T08:03:06Z</time>
      </trkpt>
      <trkpt lat="59.9884696" lon="17.7300591">
        <ele>28.0155</ele>
        <time>2014-05-18T08:03:07Z</time>
      </trkpt>
      <trkpt lat="59.9884489" lon="17.7300892">
        <ele>27.5349</ele>
        <time>2014-05-18T08:03:08Z</time>
      </trkpt>
      <trkpt lat="59.988427" lon="17.7301172">
        <ele>27.5349</ele>
        <time>2014-05-18T08:03:09Z</time>
      </trkpt>
      <trkpt lat="59.988409" lon="17.7301431">
        <ele>27.0543</ele>
        <time>2014-05-18T08:03:10Z</time>
      </trkpt>
      <trkpt lat="59.9883918" lon="17.7301689">
        <ele>26.5736</ele>
        <time>2014-05-18T08:03:11Z</time>
      </trkpt>
      <trkpt lat="59.988373" lon="17.7302033">
        <ele>26.5736</ele>
        <time>2014-05-18T08:03:12Z</time>
      </trkpt>
      <trkpt lat="59.9883544" lon="17.7302346">
        <ele>26.5736</ele>
        <time>2014-05-18T08:03:13Z</time>
      </trkpt>
      <trkpt lat="59.9883383" lon="17.7302599">
        <ele>26.0929</ele>
        <time>2014-05-18T08:03:14Z</time>
      </trkpt>
      <trkpt lat="59.9883233" lon="17.7302897">
        <ele>25.6123</ele>
        <time>2014-05-18T08:03:15Z</time>
      </trkpt>
      <trkpt lat="59.9883084" lon="17.7303229">
        <ele>26.0929</ele>
        <time>2014-05-18T08:03:16Z</time>
      </trkpt>
      <trkpt lat="59.9882963" lon="17.7303604">
        <ele>26.0929</ele>
        <time>2014-05-18T08:03:17Z</time>
      </trkpt>
      <trkpt lat="59.9882859" lon="17.7303969">
        <ele>26.0929</ele>
        <time>2014-05-18T08:03:18Z</time>
      </trkpt>
      <trkpt lat="59.9882696" lon="17.7304286">
        <ele>26.5736</ele>
        <time>2014-05-18T08:03:19Z</time>
      </trkpt>
      <trkpt lat="59.9882493" lon="17.7304611">
        <ele>26.5736</ele>
        <time>2014-05-18T08:03:20Z</time>
      </trkpt>
      <trkpt lat="59.9882288" lon="17.7305058">
        <ele>26.5736</ele>
        <time>2014-05-18T08:03:21Z</time>
      </trkpt>
      <trkpt lat="59.9882124" lon="17.7305419">
        <ele>26.5736</ele>
        <time>2014-05-18T08:03:22Z</time>
      </trkpt>
      <trkpt lat="59.9881963" lon="17.7305764">
        <ele>26.5736</ele>
        <time>2014-05-18T08:03:23Z</time>
      </trkpt>
      <trkpt lat="59.9881824" lon="17.7306119">
        <ele>26.5736</ele>
        <time>2014-05-18T08:03:24Z</time>
      </trkpt>
      <trkpt lat="59.9881716" lon="17.7306415">
        <ele>26.5736</ele>
        <time>2014-05-18T08:03:25Z</time>
      </trkpt>
      <trkpt lat="59.988163" lon="17.7306782">
        <ele>26.0929</ele>
        <time>2014-05-18T08:03:26Z</time>
      </trkpt>
      <trkpt lat="59.9881498" lon="17.7307149">
        <ele>26.5736</ele>
        <time>2014-05-18T08:03:27Z</time>
      </trkpt>
      <trkpt lat="59.9881333" lon="17.7307574">
        <ele>27.0543</ele>
        <time>2014-05-18T08:03:28Z</time>
      </trkpt>
      <trkpt lat="59.9881194" lon="17.7307912">
        <ele>27.5349</ele>
        <time>2014-05-18T08:03:29Z</time>
      </trkpt>
      <trkpt lat="59.9881058" lon="17.7308257">
        <ele>28.0155</ele>
        <time>2014-05-18T08:03:30Z</time>
      </trkpt>
      <trkpt lat="59.9880891" lon="17.7308587">
        <ele>28.9769</ele>
        <time>2014-05-18T08:03:31Z</time>
      </trkpt>
      <trkpt lat="59.9880697" lon="17.7308914">
        <ele>28.4962</ele>
        <time>2014-05-18T08:03:32Z</time>
      </trkpt>
      <trkpt lat="59.9880489" lon="17.7309299">
        <ele>28.0155</ele>
        <time>2014-05-18T08:03:33Z</time>
      </trkpt>
      <trkpt lat="59.9880264" lon="17.7309657">
        <ele>28.0155</ele>
        <time>2014-05-18T08:03:34Z</time>
      </trkpt>
      <trkpt lat="59.9879998" lon="17.7310108">
        <ele>28.0155</ele>
        <time>2014-05-18T08:03:35Z</time>
      </trkpt>
      <trkpt lat="59.98798" lon="17.7310632">
        <ele>28.0155</ele>
        <time>2014-05-18T08:03:36Z</time>
      </trkpt>
      <trkpt lat="59.9879622" lon="17.7311194">
        <ele>27.5349</ele>
        <time>2014-05-18T08:03:37Z</time>
      </trkpt>
      <trkpt lat="59.9879405" lon="17.7311716">
        <ele>27.5349</ele>
        <time>2014-05-18T08:03:38Z</time>
      </trkpt>
      <trkpt lat="59.9879177" lon="17.7312126">
        <ele>27.5349</ele>
        <time>2014-05-18T08:03:39Z</time>
      </trkpt>
      <trkpt lat="59.987893" lon="17.7312491">
        <ele>27.5349</ele>
        <time>2014-05-18T08:03:40Z</time>
      </trkpt>
      <trkpt lat="59.9878705" lon="17.7312849">
        <ele>28.0155</ele>
        <time>2014-05-18T08:03:41Z</time>
      </trkpt>
      <trkpt lat="59.987852" lon="17.7313189">
        <ele>28.0155</ele>
        <time>2014-05-18T08:03:42Z</time>
      </trkpt>
      <trkpt lat="59.9878346" lon="17.7313527">
        <ele>28.0155</ele>
        <time>2014-05-18T08:03:43Z</time>
      </trkpt>
      <trkpt lat="59.9878143" lon="17.7313835">
        <ele>28.4962</ele>
        <time>2014-05-18T08:03:44Z</time>
      </trkpt>
      <trkpt lat="59.987792" lon="17.7314136">
        <ele>29.4575</ele>
        <time>2014-05-18T08:03:45Z</time>
      </trkpt>
      <trkpt lat="59.9877739" lon="17.7314434">
        <ele>29.4575</ele>
        <time>2014-05-18T08:03:46Z</time>
      </trkpt>
      <trkpt lat="59.9877551" lon="17.7314738">
        <ele>29.4575</ele>
        <time>2014-05-18T08:03:47Z</time>
      </trkpt>
      <trkpt lat="59.9877337" lon="17.7315099">
        <ele>28.9769</ele>
        <time>2014-05-18T08:03:48Z</time>
      </trkpt>
      <trkpt lat="59.9877184" lon="17.7315435">
        <ele>28.4962</ele>
        <time>2014-05-18T08:03:49Z</time>
      </trkpt>
      <trkpt lat="59.9877059" lon="17.7315717">
        <ele>28.4962</ele>
        <time>2014-05-18T08:03:50Z</time>
      </trkpt>
      <trkpt lat="59.9876897" lon="17.7316036">
        <ele>28.9769</ele>
        <time>2014-05-18T08:03:51Z</time>
      </trkpt>
      <trkpt lat="59.9876711" lon="17.7316321">
        <ele>28.4962</ele>
        <time>2014-05-18T08:03:52Z</time>
      </trkpt>
      <trkpt lat="59.9876491" lon="17.7316655">
        <ele>28.0155</ele>
        <time>2014-05-18T08:03:53Z</time>
      </trkpt>
      <trkpt lat="59.9876242" lon="17.7317019">
        <ele>28.4962</ele>
        <time>2014-05-18T08:03:54Z</time>
      </trkpt>
      <trkpt lat="59.9876015" lon="17.7317467">
        <ele>28.0155</ele>
        <time>2014-05-18T08:03:55Z</time>
      </trkpt>
      <trkpt lat="59.9875786" lon="17.7317837">
        <ele>28.4962</ele>
        <time>2014-05-18T08:03:56Z</time>
      </trkpt>
      <trkpt lat="59.9875589" lon="17.7318158">
        <ele>28.0155</ele>
        <time>2014-05-18T08:03:57Z</time>
      </trkpt>
      <trkpt lat="59.9875438" lon="17.7318458">
        <ele>28.0155</ele>
        <time>2014-05-18T08:03:58Z</time>
      </trkpt>
      <trkpt lat="59.9875247" lon="17.7318789">
        <ele>28.0155</ele>
        <time>2014-05-18T08:03:59Z</time>
      </trkpt>
      <trkpt lat="59.9875029" lon="17.7319145">
        <ele>28.4962</ele>
        <time>2014-05-18T08:04:00Z</time>
      </trkpt>
      <trkpt lat="59.9874821" lon="17.7319431">
        <ele>28.4962</ele>
        <time>2014-05-18T08:04:01Z</time>
      </trkpt>
      <trkpt lat="59.9874646" lon="17.7319749">
        <ele>28.9769</ele>
        <time>2014-05-18T08:04:02Z</time>
      </trkpt>
      <trkpt lat="59.9874492" lon="17.7320103">
        <ele>29.4575</ele>
        <time>2014-05-18T08:04:03Z</time>
      </trkpt>
      <trkpt lat="59.9874326" lon="17.7320482">
        <ele>29.4575</ele>
        <time>2014-05-18T08:04:04Z</time>
      </trkpt>
      <trkpt lat="59.9874159" lon="17.7320859">
        <ele>30.4188</ele>
        <time>2014-05-18T08:04:05Z</time>
      </trkpt>
      <trkpt lat="59.9873994" lon="17.7321297">
        <ele>30.4188</ele>
        <time>2014-05-18T08:04:06Z</time>
      </trkpt>
      <trkpt lat="59.9873822" lon="17.7321781">
        <ele>30.4188</ele>
        <time>2014-05-18T08:04:07Z</time>
      </trkpt>
      <trkpt lat="59.9873625" lon="17.7322204">
        <ele>30.8995</ele>
        <time>2014-05-18T08:04:08Z</time>
      </trkpt>
      <trkpt lat="59.9873434" lon="17.7322589">
        <ele>31.3801</ele>
        <time>2014-05-18T08:04:09Z</time>
      </trkpt>
      <trkpt lat="59.9873254" lon="17.7323057">
        <ele>31.8607</ele>
        <time>2014-05-18T08:04:10Z</time>
      </trkpt>
      <trkpt lat="59.9873093" lon="17.7323545">
        <ele>31.8607</ele>
        <time>2014-05-18T08:04:11Z</time>
      </trkpt>
      <trkpt lat="59.9872942" lon="17.7324068">
        <ele>31.8607</ele>
        <time>2014-05-18T08:04:12Z</time>
      </trkpt>
      <trkpt lat="59.9872782" lon="17.7324715">
        <ele>32.3416</ele>
        <time>2014-05-18T08:04:13Z</time>
      </trkpt>
      <trkpt lat="59.9872672" lon="17.7325327">
        <ele>32.3416</ele>
        <time>2014-05-18T08:04:14Z</time>
      </trkpt>
      <trkpt lat="59.9872626" lon="17.7325839">
        <ele>32.8223</ele>
        <time>2014-05-18T08:04:15Z</time>
      </trkpt>
      <trkpt lat="59.9872573" lon="17.7326353">
        <ele>32.8223</ele>
        <time>2014-05-18T08:04:16Z</time>
      </trkpt>
      <trkpt lat="59.9872531" lon="17.7326885">
        <ele>32.8223</ele>
        <time>2014-05-18T08:04:17Z</time>
      </trkpt>
      <trkpt lat="59.9872482" lon="17.7327341">
        <ele>33.3029</ele>
        <time>2014-05-18T08:04:18Z</time>
      </trkpt>
      <trkpt lat="59.987247" lon="17.7327771">
        <ele>33.3029</ele>
        <time>2014-05-18T08:04:19Z</time>
      </trkpt>
      <trkpt lat="59.9872445" lon="17.7328196">
        <ele>33.3029</ele>
        <time>2014-05-18T08:04:20Z</time>
      </trkpt>
      <trkpt lat="59.9872443" lon="17.7328541">
        <ele>32.8223</ele>
        <time>2014-05-18T08:04:21Z</time>
      </trkpt>
      <trkpt lat="59.9872409" lon="17.7328852">
        <ele>32.8223</ele>
        <time>2014-05-18T08:04:22Z</time>
      </trkpt>
      <trkpt lat="59.9872326" lon="17.7329178">
        <ele>32.8223</ele>
        <time>2014-05-18T08:04:23Z</time>
      </trkpt>
      <trkpt lat="59.9872231" lon="17.7329556">
        <ele>32.8223</ele>
        <time>2014-05-18T08:04:24Z</time>
      </trkpt>
      <trkpt lat="59.9872108" lon="17.7330002">
        <ele>32.8223</ele>
        <time>2014-05-18T08:04:25Z</time>
      </trkpt>
      <trkpt lat="59.987203" lon="17.7330434">
        <ele>32.8223</ele>
        <time>2014-05-18T08:04:26Z</time>
      </trkpt>
      <trkpt lat="59.9871919" lon="17.7330978">
        <ele>32.8223</ele>
        <time>2014-05-18T08:04:27Z</time>
      </trkpt>
      <trkpt lat="59.9871849" lon="17.7331522">
        <ele>32.3416</ele>
        <time>2014-05-18T08:04:28Z</time>
      </trkpt>
      <trkpt lat="59.9871791" lon="17.7331977">
        <ele>32.3416</ele>
        <time>2014-05-18T08:04:29Z</time>
      </trkpt>
      <trkpt lat="59.9871696" lon="17.7332397">
        <ele>32.3416</ele>
        <time>2014-05-18T08:04:30Z</time>
      </trkpt>
      <trkpt lat="59.9871608" lon="17.7332883">
        <ele>32.8223</ele>
        <time>2014-05-18T08:04:31Z</time>
      </trkpt>
      <trkpt lat="59.9871516" lon="17.733338">
        <ele>32.8223</ele>
        <time>2014-05-18T08:04:32Z</time>
      </trkpt>
      <trkpt lat="59.9871414" lon="17.7333872">
        <ele>32.3416</ele>
        <time>2014-05-18T08:04:33Z</time>
      </trkpt>
      <trkpt lat="59.9871297" lon="17.7334443">
        <ele>32.3416</ele>
        <time>2014-05-18T08:04:34Z</time>
      </trkpt>
      <trkpt lat="59.9871173" lon="17.7335127">
        <ele>31.8607</ele>
        <time>2014-05-18T08:04:35Z</time>
      </trkpt>
      <trkpt lat="59.9870952" lon="17.7335809">
        <ele>31.8607</ele>
        <time>2014-05-18T08:04:36Z</time>
      </trkpt>
      <trkpt lat="59.987075" lon="17.7336342">
        <ele>31.8607</ele>
        <time>2014-05-18T08:04:37Z</time>
      </trkpt>
      <trkpt lat="59.9870559" lon="17.7336764">
        <ele>31.8607</ele>
        <time>2014-05-18T08:04:38Z</time>
      </trkpt>
      <trkpt lat="59.9870264" lon="17.7337298">
        <ele>32.3416</ele>
        <time>2014-05-18T08:04:39Z</time>
      </trkpt>
      <trkpt lat="59.9869925" lon="17.7337663">
        <ele>31.8607</ele>
        <time>2014-05-18T08:04:40Z</time>
      </trkpt>
      <trkpt lat="59.9869678" lon="17.7338085">
        <ele>32.8223</ele>
        <time>2014-05-18T08:04:41Z</time>
      </trkpt>
      <trkpt lat="59.986941" lon="17.7338664">
        <ele>33.7834</ele>
        <time>2014-05-18T08:04:42Z</time>
      </trkpt>
      <trkpt lat="59.9869123" lon="17.7339135">
        <ele>34.2642</ele>
        <time>2014-05-18T08:04:43Z</time>
      </trkpt>
      <trkpt lat="59.9868933" lon="17.7339576">
        <ele>34.7449</ele>
        <time>2014-05-18T08:04:44Z</time>
      </trkpt>
      <trkpt lat="59.9868739" lon="17.7340171">
        <ele>34.7449</ele>
        <time>2014-05-18T08:04:45Z</time>
      </trkpt>
      <trkpt lat="59.9868549" lon="17.7340818">
        <ele>35.2255</ele>
        <time>2014-05-18T08:04:46Z</time>
      </trkpt>
      <trkpt lat="59.9868435" lon="17.7341317">
        <ele>35.7061</ele>
        <time>2014-05-18T08:04:47Z</time>
      </trkpt>
      <trkpt lat="59.9868305" lon="17.7341783">
        <ele>35.7061</ele>
        <time>2014-05-18T08:04:48Z</time>
      </trkpt>
      <trkpt lat="59.9868134" lon="17.7342253">
        <ele>36.6675</ele>
        <time>2014-05-18T08:04:49Z</time>
      </trkpt>
      <trkpt lat="59.9868011" lon="17.7342704">
        <ele>37.1481</ele>
        <time>2014-05-18T08:04:50Z</time>
      </trkpt>
      <trkpt lat="59.9867901" lon="17.7343222">
        <ele>37.6287</ele>
        <time>2014-05-18T08:04:51Z</time>
      </trkpt>
      <trkpt lat="59.9867804" lon="17.73437">
        <ele>38.1094</ele>
        <time>2014-05-18T08:04:52Z</time>
      </trkpt>
      <trkpt lat="59.986773" lon="17.7344089">
        <ele>39.0707</ele>
        <time>2014-05-18T08:04:53Z</time>
      </trkpt>
      <trkpt lat="59.9867662" lon="17.734445">
        <ele>39.5513</ele>
        <time>2014-05-18T08:04:54Z</time>
      </trkpt>
      <trkpt lat="59.9867579" lon="17.7344941">
        <ele>39.5513</ele>
        <time>2014-05-18T08:04:55Z</time>
      </trkpt>
      <trkpt lat="59.9867465" lon="17.7345477">
        <ele>40.0321</ele>
        <time>2014-05-18T08:04:56Z</time>
      </trkpt>
      <trkpt lat="59.9867394" lon="17.7345954">
        <ele>40.0321</ele>
        <time>2014-05-18T08:04:57Z</time>
      </trkpt>
      <trkpt lat="59.9867321" lon="17.7346497">
        <ele>40.5128</ele>
        <time>2014-05-18T08:04:58Z</time>
      </trkpt>
      <trkpt lat="59.9867275" lon="17.7347041">
        <ele>40.5128</ele>
        <time>2014-05-18T08:04:59Z</time>
      </trkpt>
      <trkpt lat="59.9867208" lon="17.7347607">
        <ele>40.5128</ele>
        <time>2014-05-18T08:05:00Z</time>
      </trkpt>
      <trkpt lat="59.986715" lon="17.7348182">
        <ele>40.5128</ele>
        <time>2014-05-18T08:05:01Z</time>
      </trkpt>
      <trkpt lat="59.9867076" lon="17.7348684">
        <ele>40.5128</ele>
        <time>2014-05-18T08:05:02Z</time>
      </trkpt>
      <trkpt lat="59.9866998" lon="17.734915">
        <ele>39.5513</ele>
        <time>2014-05-18T08:05:03Z</time>
      </trkpt>
      <trkpt lat="59.9866928" lon="17.7349593">
        <ele>40.0321</ele>
        <time>2014-05-18T08:05:04Z</time>
      </trkpt>
      <trkpt lat="59.986686" lon="17.7350054">
        <ele>40.5128</ele>
        <time>2014-05-18T08:05:05Z</time>
      </trkpt>
      <trkpt lat="59.9866789" lon="17.7350533">
        <ele>40.0321</ele>
        <time>2014-05-18T08:05:06Z</time>
      </trkpt>
      <trkpt lat="59.9866694" lon="17.7351004">
        <ele>40.0321</ele>
        <time>2014-05-18T08:05:07Z</time>
      </trkpt>
      <trkpt lat="59.9866653" lon="17.7351413">
        <ele>40.0321</ele>
        <time>2014-05-18T08:05:08Z</time>
      </trkpt>
      <trkpt lat="59.9866573" lon="17.7351921">
        <ele>40.5128</ele>
        <time>2014-05-18T08:05:09Z</time>
      </trkpt>
      <trkpt lat="59.9866465" lon="17.7352418">
        <ele>40.5128</ele>
        <time>2014-05-18T08:05:10Z</time>
      </trkpt>
      <trkpt lat="59.9866354" lon="17.7352917">
        <ele>40.5128</ele>
        <time>2014-05-18T08:05:11Z</time>
      </trkpt>
      <trkpt lat="59.9866268" lon="17.7353378">
        <ele>40.9934</ele>
        <time>2014-05-18T08:05:12Z</time>
      </trkpt>
      <trkpt lat="59.9866234" lon="17.7353847">
        <ele>40.9934</ele>
        <time>2014-05-18T08:05:13Z</time>
      </trkpt>
      <trkpt lat="59.9866223" lon="17.735436">
        <ele>41.474</ele>
        <time>2014-05-18T08:05:14Z</time>
      </trkpt>
      <trkpt lat="59.9866166" lon="17.7354927">
        <ele>41.9547</ele>
        <time>2014-05-18T08:05:15Z</time>
      </trkpt>
      <trkpt lat="59.9866102" lon="17.7355533">
        <ele>41.474</ele>
        <time>2014-05-18T08:05:16Z</time>
      </trkpt>
      <trkpt lat="59.9866027" lon="17.7356162">
        <ele>40.9934</ele>
        <time>2014-05-18T08:05:17Z</time>
      </trkpt>
      <trkpt lat="59.9865962" lon="17.7356722">
        <ele>40.9934</ele>
        <time>2014-05-18T08:05:18Z</time>
      </trkpt>
      <trkpt lat="59.9865876" lon="17.735719">
        <ele>40.5128</ele>
        <time>2014-05-18T08:05:19Z</time>
      </trkpt>
      <trkpt lat="59.9865762" lon="17.7357713">
        <ele>40.5128</ele>
        <time>2014-05-18T08:05:20Z</time>
      </trkpt>
      <trkpt lat="59.9865636" lon="17.7358223">
        <ele>40.5128</ele>
        <time>2014-05-18T08:05:21Z</time>
      </trkpt>
      <trkpt lat="59.9865523" lon="17.7358636">
        <ele>40.5128</ele>
        <time>2014-05-18T08:05:22Z</time>
      </trkpt>
      <trkpt lat="59.986542" lon="17.7359044">
        <ele>40.5128</ele>
        <time>2014-05-18T08:05:23Z</time>
      </trkpt>
      <trkpt lat="59.9865307" lon="17.7359544">
        <ele>40.9934</ele>
        <time>2014-05-18T08:05:24Z</time>
      </trkpt>
      <trkpt lat="59.9865147" lon="17.7360079">
        <ele>41.474</ele>
        <time>2014-05-18T08:05:25Z</time>
      </trkpt>
      <trkpt lat="59.9864984" lon="17.7360508">
        <ele>41.474</ele>
        <time>2014-05-18T08:05:26Z</time>
      </trkpt>
      <trkpt lat="59.9864861" lon="17.7360813">
        <ele>41.474</ele>
        <time>2014-05-18T08:05:27Z</time>
      </trkpt>
      <trkpt lat="59.98647" lon="17.7361127">
        <ele>41.474</ele>
        <time>2014-05-18T08:05:28Z</time>
      </trkpt>
      <trkpt lat="59.986454" lon="17.7361411">
        <ele>41.474</ele>
        <time>2014-05-18T08:05:29Z</time>
      </trkpt>
      <trkpt lat="59.9864333" lon="17.7361665">
        <ele>41.474</ele>
        <time>2014-05-18T08:05:30Z</time>
      </trkpt>
      <trkpt lat="59.9864072" lon="17.7361996">
        <ele>41.474</ele>
        <time>2014-05-18T08:05:31Z</time>
      </trkpt>
      <trkpt lat="59.9863835" lon="17.7362302">
        <ele>41.474</ele>
        <time>2014-05-18T08:05:32Z</time>
      </trkpt>
      <trkpt lat="59.9863653" lon="17.7362623">
        <ele>41.474</ele>
        <time>2014-05-18T08:05:33Z</time>
      </trkpt>
      <trkpt lat="59.986341" lon="17.7362961">
        <ele>40.9934</ele>
        <time>2014-05-18T08:05:34Z</time>
      </trkpt>
      <trkpt lat="59.9863094" lon="17.7363377">
        <ele>40.9934</ele>
        <time>2014-05-18T08:05:35Z</time>
      </trkpt>
      <trkpt lat="59.986285" lon="17.7363805">
        <ele>40.9934</ele>
        <time>2014-05-18T08:05:36Z</time>
      </trkpt>
      <trkpt lat="59.9862633" lon="17.7364105">
        <ele>40.9934</ele>
        <time>2014-05-18T08:05:37Z</time>
      </trkpt>
      <trkpt lat="59.9862462" lon="17.7364393">
        <ele>40.9934</ele>
        <time>2014-05-18T08:05:38Z</time>
      </trkpt>
      <trkpt lat="59.9862331" lon="17.7364602">
        <ele>41.474</ele>
        <time>2014-05-18T08:05:39Z</time>
      </trkpt>
      <trkpt lat="59.9862176" lon="17.7364743">
        <ele>41.474</ele>
        <time>2014-05-18T08:05:40Z</time>
      </trkpt>
      <trkpt lat="59.9861976" lon="17.7364913">
        <ele>41.474</ele>
        <time>2014-05-18T08:05:41Z</time>
      </trkpt>
      <trkpt lat="59.9861763" lon="17.7365176">
        <ele>40.9934</ele>
        <time>2014-05-18T08:05:42Z</time>
      </trkpt>
      <trkpt lat="59.9861602" lon="17.7365425">
        <ele>40.5128</ele>
        <time>2014-05-18T08:05:43Z</time>
      </trkpt>
      <trkpt lat="59.9861451" lon="17.7365602">
        <ele>40.9934</ele>
        <time>2014-05-18T08:05:44Z</time>
      </trkpt>
      <trkpt lat="59.9861261" lon="17.7365887">
        <ele>40.9934</ele>
        <time>2014-05-18T08:05:45Z</time>
      </trkpt>
      <trkpt lat="59.9861057" lon="17.7366243">
        <ele>40.9934</ele>
        <time>2014-05-18T08:05:46Z</time>
      </trkpt>
      <trkpt lat="59.9860845" lon="17.7366573">
        <ele>40.9934</ele>
        <time>2014-05-18T08:05:47Z</time>
      </trkpt>
      <trkpt lat="59.9860638" lon="17.7366884">
        <ele>40.9934</ele>
        <time>2014-05-18T08:05:48Z</time>
      </trkpt>
      <trkpt lat="59.9860458" lon="17.7367202">
        <ele>40.9934</ele>
        <time>2014-05-18T08:05:49Z</time>
      </trkpt>
      <trkpt lat="59.9860235" lon="17.7367506">
        <ele>40.5128</ele>
        <time>2014-05-18T08:05:50Z</time>
      </trkpt>
      <trkpt lat="59.9859991" lon="17.736788">
        <ele>40.5128</ele>
        <time>2014-05-18T08:05:51Z</time>
      </trkpt>
      <trkpt lat="59.985978" lon="17.7368223">
        <ele>40.0321</ele>
        <time>2014-05-18T08:05:52Z</time>
      </trkpt>
      <trkpt lat="59.9859554" lon="17.7368513">
        <ele>39.5513</ele>
        <time>2014-05-18T08:05:53Z</time>
      </trkpt>
      <trkpt lat="59.9859365" lon="17.736873">
        <ele>39.0707</ele>
        <time>2014-05-18T08:05:54Z</time>
      </trkpt>
      <trkpt lat="59.9859161" lon="17.736904">
        <ele>39.0707</ele>
        <time>2014-05-18T08:05:55Z</time>
      </trkpt>
      <trkpt lat="59.9858919" lon="17.736942">
        <ele>38.5901</ele>
        <time>2014-05-18T08:05:56Z</time>
      </trkpt>
      <trkpt lat="59.9858654" lon="17.7369854">
        <ele>38.5901</ele>
        <time>2014-05-18T08:05:57Z</time>
      </trkpt>
      <trkpt lat="59.9858389" lon="17.7370279">
        <ele>38.5901</ele>
        <time>2014-05-18T08:05:58Z</time>
      </trkpt>
      <trkpt lat="59.9858115" lon="17.7370744">
        <ele>38.1094</ele>
        <time>2014-05-18T08:05:59Z</time>
      </trkpt>
      <trkpt lat="59.9857898" lon="17.7371075">
        <ele>38.1094</ele>
        <time>2014-05-18T08:06:00Z</time>
      </trkpt>
      <trkpt lat="59.9857644" lon="17.7371422">
        <ele>37.6287</ele>
        <time>2014-05-18T08:06:01Z</time>
      </trkpt>
      <trkpt lat="59.9857396" lon="17.7371771">
        <ele>37.6287</ele>
        <time>2014-05-18T08:06:02Z</time>
      </trkpt>
      <trkpt lat="59.9857154" lon="17.7372191">
        <ele>37.1481</ele>
        <time>2014-05-18T08:06:03Z</time>
      </trkpt>
      <trkpt lat="59.9856944" lon="17.737256">
        <ele>37.1481</ele>
        <time>2014-05-18T08:06:04Z</time>
      </trkpt>
      <trkpt lat="59.9856738" lon="17.7372925">
        <ele>37.1481</ele>
        <time>2014-05-18T08:06:05Z</time>
      </trkpt>
      <trkpt lat="59.9856576" lon="17.7373325">
        <ele>37.1481</ele>
        <time>2014-05-18T08:06:06Z</time>
      </trkpt>
      <trkpt lat="59.9856427" lon="17.7373704">
        <ele>37.1481</ele>
        <time>2014-05-18T08:06:07Z</time>
      </trkpt>
      <trkpt lat="59.9856328" lon="17.7374046">
        <ele>37.6287</ele>
        <time>2014-05-18T08:06:08Z</time>
      </trkpt>
      <trkpt lat="59.9856235" lon="17.7374429">
        <ele>37.1481</ele>
        <time>2014-05-18T08:06:09Z</time>
      </trkpt>
      <trkpt lat="59.9856147" lon="17.7374869">
        <ele>37.6287</ele>
        <time>2014-05-18T08:06:10Z</time>
      </trkpt>
      <trkpt lat="59.9856073" lon="17.7375314">
        <ele>37.6287</ele>
        <time>2014-05-18T08:06:11Z</time>
      </trkpt>
      <trkpt lat="59.9856004" lon="17.7375797">
        <ele>37.6287</ele>
        <time>2014-05-18T08:06:12Z</time>
      </trkpt>
      <trkpt lat="59.9855952" lon="17.7376261">
        <ele>38.1094</ele>
        <time>2014-05-18T08:06:13Z</time>
      </trkpt>
      <trkpt lat="59.9855916" lon="17.7376766">
        <ele>37.6287</ele>
        <time>2014-05-18T08:06:14Z</time>
      </trkpt>
      <trkpt lat="59.9855885" lon="17.7377314">
        <ele>37.6287</ele>
        <time>2014-05-18T08:06:15Z</time>
      </trkpt>
      <trkpt lat="59.9855827" lon="17.7377822">
        <ele>37.6287</ele>
        <time>2014-05-18T08:06:16Z</time>
      </trkpt>
      <trkpt lat="59.9855765" lon="17.7378319">
        <ele>37.1481</ele>
        <time>2014-05-18T08:06:17Z</time>
      </trkpt>
      <trkpt lat="59.9855706" lon="17.7378828">
        <ele>37.6287</ele>
        <time>2014-05-18T08:06:18Z</time>
      </trkpt>
      <trkpt lat="59.9855646" lon="17.7379334">
        <ele>37.1481</ele>
        <time>2014-05-18T08:06:19Z</time>
      </trkpt>
      <trkpt lat="59.9855552" lon="17.7379717">
        <ele>37.1481</ele>
        <time>2014-05-18T08:06:20Z</time>
      </trkpt>
      <trkpt lat="59.985541" lon="17.7380126">
        <ele>37.1481</ele>
        <time>2014-05-18T08:06:21Z</time>
      </trkpt>
      <trkpt lat="59.9855226" lon="17.738061">
        <ele>37.1481</ele>
        <time>2014-05-18T08:06:22Z</time>
      </trkpt>
      <trkpt lat="59.9855018" lon="17.7381163">
        <ele>38.5901</ele>
        <time>2014-05-18T08:06:23Z</time>
      </trkpt>
      <trkpt lat="59.9854863" lon="17.7381447">
        <ele>39.0707</ele>
        <time>2014-05-18T08:06:24Z</time>
      </trkpt>
      <trkpt lat="59.9854691" lon="17.73817">
        <ele>39.0707</ele>
        <time>2014-05-18T08:06:25Z</time>
      </trkpt>
      <trkpt lat="59.985449" lon="17.7381928">
        <ele>39.5513</ele>
        <time>2014-05-18T08:06:26Z</time>
      </trkpt>
      <trkpt lat="59.9854216" lon="17.7382011">
        <ele>39.0707</ele>
        <time>2014-05-18T08:06:27Z</time>
      </trkpt>
      <trkpt lat="59.9853932" lon="17.7382055">
        <ele>39.0707</ele>
        <time>2014-05-18T08:06:28Z</time>
      </trkpt>
      <trkpt lat="59.9853592" lon="17.7382022">
        <ele>39.0707</ele>
        <time>2014-05-18T08:06:29Z</time>
      </trkpt>
      <trkpt lat="59.9853262" lon="17.7382008">
        <ele>39.0707</ele>
        <time>2014-05-18T08:06:30Z</time>
      </trkpt>
      <trkpt lat="59.9852934" lon="17.7381962">
        <ele>39.0707</ele>
        <time>2014-05-18T08:06:31Z</time>
      </trkpt>
      <trkpt lat="59.9852656" lon="17.7381893">
        <ele>38.5901</ele>
        <time>2014-05-18T08:06:32Z</time>
      </trkpt>
      <trkpt lat="59.9852397" lon="17.7381872">
        <ele>39.0707</ele>
        <time>2014-05-18T08:06:33Z</time>
      </trkpt>
      <trkpt lat="59.9852106" lon="17.7381852">
        <ele>39.0707</ele>
        <time>2014-05-18T08:06:34Z</time>
      </trkpt>
      <trkpt lat="59.9851794" lon="17.73818">
        <ele>39.0707</ele>
        <time>2014-05-18T08:06:35Z</time>
      </trkpt>
      <trkpt lat="59.9851482" lon="17.7381736">
        <ele>39.0707</ele>
        <time>2014-05-18T08:06:36Z</time>
      </trkpt>
      <trkpt lat="59.9851175" lon="17.7381676">
        <ele>39.0707</ele>
        <time>2014-05-18T08:06:37Z</time>
      </trkpt>
      <trkpt lat="59.9850832" lon="17.7381639">
        <ele>39.5513</ele>
        <time>2014-05-18T08:06:38Z</time>
      </trkpt>
      <trkpt lat="59.9850532" lon="17.7381588">
        <ele>39.5513</ele>
        <time>2014-05-18T08:06:39Z</time>
      </trkpt>
      <trkpt lat="59.9850206" lon="17.7381639">
        <ele>40.0321</ele>
        <time>2014-05-18T08:06:40Z</time>
      </trkpt>
      <trkpt lat="59.9849865" lon="17.7381692">
        <ele>40.5128</ele>
        <time>2014-05-18T08:06:41Z</time>
      </trkpt>
      <trkpt lat="59.9849536" lon="17.7381598">
        <ele>40.9934</ele>
        <time>2014-05-18T08:06:42Z</time>
      </trkpt>
      <trkpt lat="59.9849248" lon="17.738149">
        <ele>40.9934</ele>
        <time>2014-05-18T08:06:43Z</time>
      </trkpt>
      <trkpt lat="59.9848947" lon="17.738144">
        <ele>41.474</ele>
        <time>2014-05-18T08:06:44Z</time>
      </trkpt>
      <trkpt lat="59.984865" lon="17.7381368">
        <ele>41.474</ele>
        <time>2014-05-18T08:06:45Z</time>
      </trkpt>
      <trkpt lat="59.9848377" lon="17.7381386">
        <ele>40.5128</ele>
        <time>2014-05-18T08:06:46Z</time>
      </trkpt>
      <trkpt lat="59.9848099" lon="17.7381271">
        <ele>40.9934</ele>
        <time>2014-05-18T08:06:47Z</time>
      </trkpt>
      <trkpt lat="59.9847818" lon="17.7381229">
        <ele>40.5128</ele>
        <time>2014-05-18T08:06:48Z</time>
      </trkpt>
      <trkpt lat="59.9847498" lon="17.7381238">
        <ele>40.5128</ele>
        <time>2014-05-18T08:06:49Z</time>
      </trkpt>
      <trkpt lat="59.9847222" lon="17.7381364">
        <ele>40.9934</ele>
        <time>2014-05-18T08:06:50Z</time>
      </trkpt>
      <trkpt lat="59.9846993" lon="17.7381578">
        <ele>41.474</ele>
        <time>2014-05-18T08:06:51Z</time>
      </trkpt>
      <trkpt lat="59.9846706" lon="17.7381635">
        <ele>41.9547</ele>
        <time>2014-05-18T08:06:52Z</time>
      </trkpt>
      <trkpt lat="59.9846383" lon="17.7381559">
        <ele>42.916</ele>
        <time>2014-05-18T08:06:53Z</time>
      </trkpt>
      <trkpt lat="59.984606" lon="17.7381513">
        <ele>43.8773</ele>
        <time>2014-05-18T08:06:54Z</time>
      </trkpt>
      <trkpt lat="59.9845777" lon="17.7381432">
        <ele>43.8773</ele>
        <time>2014-05-18T08:06:55Z</time>
      </trkpt>
      <trkpt lat="59.9845465" lon="17.7381364">
        <ele>44.358</ele>
        <time>2014-05-18T08:06:56Z</time>
      </trkpt>
      <trkpt lat="59.9845179" lon="17.7381297">
        <ele>44.358</ele>
        <time>2014-05-18T08:06:57Z</time>
      </trkpt>
      <trkpt lat="59.9844884" lon="17.7381197">
        <ele>44.8386</ele>
        <time>2014-05-18T08:06:58Z</time>
      </trkpt>
      <trkpt lat="59.9844527" lon="17.7381064">
        <ele>44.8386</ele>
        <time>2014-05-18T08:06:59Z</time>
      </trkpt>
      <trkpt lat="59.984419" lon="17.7380918">
        <ele>44.8386</ele>
        <time>2014-05-18T08:07:00Z</time>
      </trkpt>
      <trkpt lat="59.9843876" lon="17.7380815">
        <ele>44.8386</ele>
        <time>2014-05-18T08:07:01Z</time>
      </trkpt>
      <trkpt lat="59.9843584" lon="17.7380671">
        <ele>44.8386</ele>
        <time>2014-05-18T08:07:02Z</time>
      </trkpt>
      <trkpt lat="59.984329" lon="17.7380444">
        <ele>44.8386</ele>
        <time>2014-05-18T08:07:03Z</time>
      </trkpt>
      <trkpt lat="59.984298" lon="17.7380202">
        <ele>44.358</ele>
        <time>2014-05-18T08:07:04Z</time>
      </trkpt>
      <trkpt lat="59.9842648" lon="17.7380066">
        <ele>43.8773</ele>
        <time>2014-05-18T08:07:05Z</time>
      </trkpt>
      <trkpt lat="59.9842308" lon="17.7379913">
        <ele>43.8773</ele>
        <time>2014-05-18T08:07:06Z</time>
      </trkpt>
      <trkpt lat="59.9842018" lon="17.7379795">
        <ele>43.8773</ele>
        <time>2014-05-18T08:07:07Z</time>
      </trkpt>
      <trkpt lat="59.9841755" lon="17.7379718">
        <ele>43.8773</ele>
        <time>2014-05-18T08:07:08Z</time>
      </trkpt>
      <trkpt lat="59.9841505" lon="17.737962">
        <ele>43.3966</ele>
        <time>2014-05-18T08:07:09Z</time>
      </trkpt>
      <trkpt lat="59.9841218" lon="17.7379568">
        <ele>43.3966</ele>
        <time>2014-05-18T08:07:10Z</time>
      </trkpt>
      <trkpt lat="59.9840895" lon="17.7379539">
        <ele>43.3966</ele>
        <time>2014-05-18T08:07:11Z</time>
      </trkpt>
      <trkpt lat="59.9840586" lon="17.7379521">
        <ele>42.916</ele>
        <time>2014-05-18T08:07:12Z</time>
      </trkpt>
      <trkpt lat="59.9840276" lon="17.7379496">
        <ele>42.916</ele>
        <time>2014-05-18T08:07:13Z</time>
      </trkpt>
      <trkpt lat="59.9839975" lon="17.7379434">
        <ele>43.3966</ele>
        <time>2014-05-18T08:07:14Z</time>
      </trkpt>
      <trkpt lat="59.9839681" lon="17.7379417">
        <ele>43.3966</ele>
        <time>2014-05-18T08:07:15Z</time>
      </trkpt>
      <trkpt lat="59.9839369" lon="17.7379458">
        <ele>42.916</ele>
        <time>2014-05-18T08:07:16Z</time>
      </trkpt>
      <trkpt lat="59.9839069" lon="17.7379443">
        <ele>43.3966</ele>
        <time>2014-05-18T08:07:17Z</time>
      </trkpt>
      <trkpt lat="59.9838804" lon="17.7379484">
        <ele>43.3966</ele>
        <time>2014-05-18T08:07:18Z</time>
      </trkpt>
      <trkpt lat="59.9838566" lon="17.7379629">
        <ele>43.3966</ele>
        <time>2014-05-18T08:07:19Z</time>
      </trkpt>
      <trkpt lat="59.9838327" lon="17.7379645">
        <ele>42.916</ele>
        <time>2014-05-18T08:07:20Z</time>
      </trkpt>
      <trkpt lat="59.9838105" lon="17.7379674">
        <ele>42.916</ele>
        <time>2014-05-18T08:07:21Z</time>
      </trkpt>
      <trkpt lat="59.9837853" lon="17.7379689">
        <ele>42.4354</ele>
        <time>2014-05-18T08:07:22Z</time>
      </trkpt>
      <trkpt lat="59.9837585" lon="17.7379645">
        <ele>41.9547</ele>
        <time>2014-05-18T08:07:23Z</time>
      </trkpt>
      <trkpt lat="59.9837301" lon="17.7379665">
        <ele>41.9547</ele>
        <time>2014-05-18T08:07:24Z</time>
      </trkpt>
      <trkpt lat="59.9836988" lon="17.7379711">
        <ele>41.474</ele>
        <time>2014-05-18T08:07:25Z</time>
      </trkpt>
      <trkpt lat="59.983668" lon="17.737975">
        <ele>40.9934</ele>
        <time>2014-05-18T08:07:26Z</time>
      </trkpt>
      <trkpt lat="59.9836351" lon="17.7379855">
        <ele>40.9934</ele>
        <time>2014-05-18T08:07:27Z</time>
      </trkpt>
      <trkpt lat="59.9836023" lon="17.7380018">
        <ele>40.9934</ele>
        <time>2014-05-18T08:07:28Z</time>
      </trkpt>
      <trkpt lat="59.9835691" lon="17.7380153">
        <ele>40.9934</ele>
        <time>2014-05-18T08:07:29Z</time>
      </trkpt>
      <trkpt lat="59.9835374" lon="17.7380241">
        <ele>40.9934</ele>
        <time>2014-05-18T08:07:30Z</time>
      </trkpt>
      <trkpt lat="59.983506" lon="17.7380309">
        <ele>40.9934</ele>
        <time>2014-05-18T08:07:31Z</time>
      </trkpt>
      <trkpt lat="59.9834767" lon="17.7380365">
        <ele>40.9934</ele>
        <time>2014-05-18T08:07:32Z</time>
      </trkpt>
      <trkpt lat="59.9834464" lon="17.7380407">
        <ele>40.5128</ele>
        <time>2014-05-18T08:07:33Z</time>
      </trkpt>
      <trkpt lat="59.9834179" lon="17.7380389">
        <ele>40.0321</ele>
        <time>2014-05-18T08:07:34Z</time>
      </trkpt>
      <trkpt lat="59.9833873" lon="17.7380521">
        <ele>40.0321</ele>
        <time>2014-05-18T08:07:35Z</time>
      </trkpt>
      <trkpt lat="59.9833604" lon="17.7380632">
        <ele>40.0321</ele>
        <time>2014-05-18T08:07:36Z</time>
      </trkpt>
      <trkpt lat="59.9833359" lon="17.7380691">
        <ele>40.5128</ele>
        <time>2014-05-18T08:07:37Z</time>
      </trkpt>
      <trkpt lat="59.9833081" lon="17.7380783">
        <ele>40.0321</ele>
        <time>2014-05-18T08:07:38Z</time>
      </trkpt>
      <trkpt lat="59.9832763" lon="17.7380923">
        <ele>39.5513</ele>
        <time>2014-05-18T08:07:39Z</time>
      </trkpt>
      <trkpt lat="59.9832444" lon="17.7381042">
        <ele>40.0321</ele>
        <time>2014-05-18T08:07:40Z</time>
      </trkpt>
      <trkpt lat="59.9832138" lon="17.7381116">
        <ele>40.0321</ele>
        <time>2014-05-18T08:07:41Z</time>
      </trkpt>
      <trkpt lat="59.9831836" lon="17.7381235">
        <ele>40.5128</ele>
        <time>2014-05-18T08:07:42Z</time>
      </trkpt>
      <trkpt lat="59.9831559" lon="17.7381282">
        <ele>40.5128</ele>
        <time>2014-05-18T08:07:43Z</time>
      </trkpt>
      <trkpt lat="59.9831297" lon="17.7381397">
        <ele>40.5128</ele>
        <time>2014-05-18T08:07:44Z</time>
      </trkpt>
      <trkpt lat="59.9831038" lon="17.7381461">
        <ele>40.5128</ele>
        <time>2014-05-18T08:07:45Z</time>
      </trkpt>
      <trkpt lat="59.9830732" lon="17.7381542">
        <ele>40.5128</ele>
        <time>2014-05-18T08:07:46Z</time>
      </trkpt>
      <trkpt lat="59.9830434" lon="17.7381686">
        <ele>40.9934</ele>
        <time>2014-05-18T08:07:47Z</time>
      </trkpt>
      <trkpt lat="59.9830116" lon="17.7381872">
        <ele>40.9934</ele>
        <time>2014-05-18T08:07:48Z</time>
      </trkpt>
      <trkpt lat="59.9829813" lon="17.7382062">
        <ele>41.9547</ele>
        <time>2014-05-18T08:07:49Z</time>
      </trkpt>
      <trkpt lat="59.9829511" lon="17.738227">
        <ele>42.4354</ele>
        <time>2014-05-18T08:07:50Z</time>
      </trkpt>
      <trkpt lat="59.9829217" lon="17.738241">
        <ele>42.916</ele>
        <time>2014-05-18T08:07:51Z</time>
      </trkpt>
      <trkpt lat="59.9828959" lon="17.7382468">
        <ele>43.3966</ele>
        <time>2014-05-18T08:07:52Z</time>
      </trkpt>
      <trkpt lat="59.9828678" lon="17.7382461">
        <ele>43.8773</ele>
        <time>2014-05-18T08:07:53Z</time>
      </trkpt>
      <trkpt lat="59.9828435" lon="17.738241">
        <ele>43.8773</ele>
        <time>2014-05-18T08:07:54Z</time>
      </trkpt>
      <trkpt lat="59.9828232" lon="17.7382296">
        <ele>44.358</ele>
        <time>2014-05-18T08:07:55Z</time>
      </trkpt>
      <trkpt lat="59.9828064" lon="17.7382153">
        <ele>43.8773</ele>
        <time>2014-05-18T08:07:56Z</time>
      </trkpt>
      <trkpt lat="59.9827863" lon="17.7381922">
        <ele>44.358</ele>
        <time>2014-05-18T08:07:57Z</time>
      </trkpt>
      <trkpt lat="59.9827626" lon="17.738177">
        <ele>44.8386</ele>
        <time>2014-05-18T08:07:58Z</time>
      </trkpt>
      <trkpt lat="59.9827346" lon="17.7381744">
        <ele>44.8386</ele>
        <time>2014-05-18T08:07:59Z</time>
      </trkpt>
      <trkpt lat="59.9827051" lon="17.7381717">
        <ele>44.8386</ele>
        <time>2014-05-18T08:08:00Z</time>
      </trkpt>
      <trkpt lat="59.9826793" lon="17.7381665">
        <ele>44.8386</ele>
        <time>2014-05-18T08:08:01Z</time>
      </trkpt>
      <trkpt lat="59.9826564" lon="17.7381573">
        <ele>45.3192</ele>
        <time>2014-05-18T08:08:02Z</time>
      </trkpt>
      <trkpt lat="59.9826379" lon="17.7381436">
        <ele>45.7999</ele>
        <time>2014-05-18T08:08:03Z</time>
      </trkpt>
      <trkpt lat="59.9826169" lon="17.7381381">
        <ele>45.7999</ele>
        <time>2014-05-18T08:08:04Z</time>
      </trkpt>
      <trkpt lat="59.9825904" lon="17.7381348">
        <ele>45.7999</ele>
        <time>2014-05-18T08:08:05Z</time>
      </trkpt>
      <trkpt lat="59.982559" lon="17.7381357">
        <ele>46.2806</ele>
        <time>2014-05-18T08:08:06Z</time>
      </trkpt>
      <trkpt lat="59.9825277" lon="17.7381511">
        <ele>46.2806</ele>
        <time>2014-05-18T08:08:07Z</time>
      </trkpt>
      <trkpt lat="59.9824942" lon="17.7381608">
        <ele>46.7612</ele>
        <time>2014-05-18T08:08:08Z</time>
      </trkpt>
      <trkpt lat="59.9824653" lon="17.7381712">
        <ele>47.2418</ele>
        <time>2014-05-18T08:08:09Z</time>
      </trkpt>
      <trkpt lat="59.9824409" lon="17.738173">
        <ele>47.7225</ele>
        <time>2014-05-18T08:08:10Z</time>
      </trkpt>
      <trkpt lat="59.9824177" lon="17.7381625">
        <ele>47.2418</ele>
        <time>2014-05-18T08:08:11Z</time>
      </trkpt>
      <trkpt lat="59.9823928" lon="17.738149">
        <ele>46.7612</ele>
        <time>2014-05-18T08:08:12Z</time>
      </trkpt>
      <trkpt lat="59.9823662" lon="17.738144">
        <ele>46.7612</ele>
        <time>2014-05-18T08:08:13Z</time>
      </trkpt>
      <trkpt lat="59.9823392" lon="17.7381456">
        <ele>46.7612</ele>
        <time>2014-05-18T08:08:14Z</time>
      </trkpt>
      <trkpt lat="59.982314" lon="17.7381453">
        <ele>47.2418</ele>
        <time>2014-05-18T08:08:15Z</time>
      </trkpt>
      <trkpt lat="59.9822875" lon="17.7381489">
        <ele>47.2418</ele>
        <time>2014-05-18T08:08:16Z</time>
      </trkpt>
      <trkpt lat="59.9822589" lon="17.7381583">
        <ele>47.2418</ele>
        <time>2014-05-18T08:08:17Z</time>
      </trkpt>
      <trkpt lat="59.9822309" lon="17.7381674">
        <ele>47.7225</ele>
        <time>2014-05-18T08:08:18Z</time>
      </trkpt>
      <trkpt lat="59.9822036" lon="17.7381779">
        <ele>47.2418</ele>
        <time>2014-05-18T08:08:19Z</time>
      </trkpt>
      <trkpt lat="59.9821747" lon="17.7381929">
        <ele>47.7225</ele>
        <time>2014-05-18T08:08:20Z</time>
      </trkpt>
      <trkpt lat="59.9821451" lon="17.7381954">
        <ele>47.2418</ele>
        <time>2014-05-18T08:08:21Z</time>
      </trkpt>
      <trkpt lat="59.9821136" lon="17.7381993">
        <ele>47.7225</ele>
        <time>2014-05-18T08:08:22Z</time>
      </trkpt>
      <trkpt lat="59.9820881" lon="17.7382074">
        <ele>47.2418</ele>
        <time>2014-05-18T08:08:23Z</time>
      </trkpt>
      <trkpt lat="59.9820658" lon="17.7382121">
        <ele>46.7612</ele>
        <time>2014-05-18T08:08:24Z</time>
      </trkpt>
      <trkpt lat="59.98204" lon="17.7382187">
        <ele>46.7612</ele>
        <time>2014-05-18T08:08:25Z</time>
      </trkpt>
      <trkpt lat="59.9820151" lon="17.7382246">
        <ele>46.7612</ele>
        <time>2014-05-18T08:08:26Z</time>
      </trkpt>
      <trkpt lat="59.9819916" lon="17.7382318">
        <ele>47.7225</ele>
        <time>2014-05-18T08:08:27Z</time>
      </trkpt>
      <trkpt lat="59.9819663" lon="17.7382474">
        <ele>47.7225</ele>
        <time>2014-05-18T08:08:28Z</time>
      </trkpt>
      <trkpt lat="59.981939" lon="17.7382625">
        <ele>47.7225</ele>
        <time>2014-05-18T08:08:29Z</time>
      </trkpt>
      <trkpt lat="59.9819119" lon="17.7382744">
        <ele>47.2418</ele>
        <time>2014-05-18T08:08:30Z</time>
      </trkpt>
      <trkpt lat="59.9818854" lon="17.738287">
        <ele>47.7225</ele>
        <time>2014-05-18T08:08:31Z</time>
      </trkpt>
      <trkpt lat="59.9818619" lon="17.7383048">
        <ele>47.2418</ele>
        <time>2014-05-18T08:08:32Z</time>
      </trkpt>
      <trkpt lat="59.981838" lon="17.7383246">
        <ele>47.2418</ele>
        <time>2014-05-18T08:08:33Z</time>
      </trkpt>
      <trkpt lat="59.981812" lon="17.738343">
        <ele>47.2418</ele>
        <time>2014-05-18T08:08:34Z</time>
      </trkpt>
      <trkpt lat="59.9817846" lon="17.7383573">
        <ele>46.7612</ele>
        <time>2014-05-18T08:08:35Z</time>
      </trkpt>
      <trkpt lat="59.9817565" lon="17.7383746">
        <ele>46.2806</ele>
        <time>2014-05-18T08:08:36Z</time>
      </trkpt>
      <trkpt lat="59.9817275" lon="17.7383944">
        <ele>46.2806</ele>
        <time>2014-05-18T08:08:37Z</time>
      </trkpt>
      <trkpt lat="59.9817016" lon="17.7384011">
        <ele>46.2806</ele>
        <time>2014-05-18T08:08:38Z</time>
      </trkpt>
      <trkpt lat="59.9816735" lon="17.7384037">
        <ele>45.7999</ele>
        <time>2014-05-18T08:08:39Z</time>
      </trkpt>
      <trkpt lat="59.981648" lon="17.7384074">
        <ele>45.3192</ele>
        <time>2014-05-18T08:08:40Z</time>
      </trkpt>
      <trkpt lat="59.981622" lon="17.7384155">
        <ele>45.3192</ele>
        <time>2014-05-18T08:08:41Z</time>
      </trkpt>
      <trkpt lat="59.981595" lon="17.738428">
        <ele>45.3192</ele>
        <time>2014-05-18T08:08:42Z</time>
      </trkpt>
      <trkpt lat="59.9815675" lon="17.738436">
        <ele>45.3192</ele>
        <time>2014-05-18T08:08:43Z</time>
      </trkpt>
      <trkpt lat="59.9815448" lon="17.7384332">
        <ele>44.8386</ele>
        <time>2014-05-18T08:08:44Z</time>
      </trkpt>
      <trkpt lat="59.9815209" lon="17.7384369">
        <ele>44.358</ele>
        <time>2014-05-18T08:08:45Z</time>
      </trkpt>
      <trkpt lat="59.9814904" lon="17.7384451">
        <ele>44.358</ele>
        <time>2014-05-18T08:08:46Z</time>
      </trkpt>
      <trkpt lat="59.9814593" lon="17.7384488">
        <ele>44.358</ele>
        <time>2014-05-18T08:08:47Z</time>
      </trkpt>
      <trkpt lat="59.9814318" lon="17.7384523">
        <ele>43.8773</ele>
        <time>2014-05-18T08:08:48Z</time>
      </trkpt>
      <trkpt lat="59.9814049" lon="17.7384659">
        <ele>43.8773</ele>
        <time>2014-05-18T08:08:49Z</time>
      </trkpt>
      <trkpt lat="59.9813729" lon="17.7384727">
        <ele>43.3966</ele>
        <time>2014-05-18T08:08:50Z</time>
      </trkpt>
      <trkpt lat="59.9813397" lon="17.7384825">
        <ele>43.3966</ele>
        <time>2014-05-18T08:08:51Z</time>
      </trkpt>
      <trkpt lat="59.9813055" lon="17.7385033">
        <ele>43.8773</ele>
        <time>2014-05-18T08:08:52Z</time>
      </trkpt>
      <trkpt lat="59.9812682" lon="17.7385208">
        <ele>43.8773</ele>
        <time>2014-05-18T08:08:53Z</time>
      </trkpt>
      <trkpt lat="59.9812294" lon="17.738538">
        <ele>43.8773</ele>
        <time>2014-05-18T08:08:54Z</time>
      </trkpt>
      <trkpt lat="59.9811957" lon="17.7385513">
        <ele>43.8773</ele>
        <time>2014-05-18T08:08:55Z</time>
      </trkpt>
      <trkpt lat="59.9811609" lon="17.7385642">
        <ele>43.8773</ele>
        <time>2014-05-18T08:08:56Z</time>
      </trkpt>
      <trkpt lat="59.9811289" lon="17.7385672">
        <ele>44.358</ele>
        <time>2014-05-18T08:08:57Z</time>
      </trkpt>
      <trkpt lat="59.9810991" lon="17.7385683">
        <ele>44.358</ele>
        <time>2014-05-18T08:08:58Z</time>
      </trkpt>
      <trkpt lat="59.9810718" lon="17.7385705">
        <ele>43.8773</ele>
        <time>2014-05-18T08:08:59Z</time>
      </trkpt>
      <trkpt lat="59.9810431" lon="17.7385746">
        <ele>43.3966</ele>
        <time>2014-05-18T08:09:00Z</time>
      </trkpt>
      <trkpt lat="59.9810143" lon="17.7385883">
        <ele>42.916</ele>
        <time>2014-05-18T08:09:01Z</time>
      </trkpt>
      <trkpt lat="59.9809846" lon="17.7385904">
        <ele>42.916</ele>
        <time>2014-05-18T08:09:02Z</time>
      </trkpt>
      <trkpt lat="59.9809545" lon="17.7385887">
        <ele>42.4354</ele>
        <time>2014-05-18T08:09:03Z</time>
      </trkpt>
      <trkpt lat="59.9809235" lon="17.7385995">
        <ele>42.4354</ele>
        <time>2014-05-18T08:09:04Z</time>
      </trkpt>
      <trkpt lat="59.980891" lon="17.7386058">
        <ele>42.916</ele>
        <time>2014-05-18T08:09:05Z</time>
      </trkpt>
      <trkpt lat="59.9808579" lon="17.7386196">
        <ele>42.916</ele>
        <time>2014-05-18T08:09:06Z</time>
      </trkpt>
      <trkpt lat="59.9808227" lon="17.738632">
        <ele>42.4354</ele>
        <time>2014-05-18T08:09:07Z</time>
      </trkpt>
      <trkpt lat="59.9807853" lon="17.7386434">
        <ele>42.4354</ele>
        <time>2014-05-18T08:09:08Z</time>
      </trkpt>
      <trkpt lat="59.9807538" lon="17.7386555">
        <ele>42.4354</ele>
        <time>2014-05-18T08:09:09Z</time>
      </trkpt>
      <trkpt lat="59.980718" lon="17.738669">
        <ele>42.4354</ele>
        <time>2014-05-18T08:09:10Z</time>
      </trkpt>
      <trkpt lat="59.9806796" lon="17.7386968">
        <ele>42.4354</ele>
        <time>2014-05-18T08:09:11Z</time>
      </trkpt>
      <trkpt lat="59.9806481" lon="17.7387105">
        <ele>41.9547</ele>
        <time>2014-05-18T08:09:12Z</time>
      </trkpt>
      <trkpt lat="59.9806154" lon="17.7387159">
        <ele>42.4354</ele>
        <time>2014-05-18T08:09:13Z</time>
      </trkpt>
      <trkpt lat="59.9805813" lon="17.7387299">
        <ele>42.4354</ele>
        <time>2014-05-18T08:09:14Z</time>
      </trkpt>
      <trkpt lat="59.9805446" lon="17.7387467">
        <ele>42.4354</ele>
        <time>2014-05-18T08:09:15Z</time>
      </trkpt>
      <trkpt lat="59.9805085" lon="17.7387642">
        <ele>42.4354</ele>
        <time>2014-05-18T08:09:16Z</time>
      </trkpt>
      <trkpt lat="59.9804792" lon="17.7387724">
        <ele>42.4354</ele>
        <time>2014-05-18T08:09:17Z</time>
      </trkpt>
      <trkpt lat="59.9804527" lon="17.7387731">
        <ele>42.4354</ele>
        <time>2014-05-18T08:09:18Z</time>
      </trkpt>
      <trkpt lat="59.9804257" lon="17.7387762">
        <ele>42.4354</ele>
        <time>2014-05-18T08:09:19Z</time>
      </trkpt>
      <trkpt lat="59.9803927" lon="17.7387877">
        <ele>42.4354</ele>
        <time>2014-05-18T08:09:20Z</time>
      </trkpt>
      <trkpt lat="59.9803619" lon="17.7388027">
        <ele>42.916</ele>
        <time>2014-05-18T08:09:21Z</time>
      </trkpt>
      <trkpt lat="59.9803306" lon="17.7388036">
        <ele>42.4354</ele>
        <time>2014-05-18T08:09:22Z</time>
      </trkpt>
      <trkpt lat="59.9802944" lon="17.7388016">
        <ele>42.4354</ele>
        <time>2014-05-18T08:09:23Z</time>
      </trkpt>
      <trkpt lat="59.9802595" lon="17.7387955">
        <ele>41.9547</ele>
        <time>2014-05-18T08:09:24Z</time>
      </trkpt>
      <trkpt lat="59.980226" lon="17.7387978">
        <ele>41.9547</ele>
        <time>2014-05-18T08:09:25Z</time>
      </trkpt>
      <trkpt lat="59.9801948" lon="17.7388057">
        <ele>41.9547</ele>
        <time>2014-05-18T08:09:26Z</time>
      </trkpt>
      <trkpt lat="59.9801652" lon="17.7388046">
        <ele>41.9547</ele>
        <time>2014-05-18T08:09:27Z</time>
      </trkpt>
      <trkpt lat="59.9801306" lon="17.7388074">
        <ele>42.4354</ele>
        <time>2014-05-18T08:09:28Z</time>
      </trkpt>
      <trkpt lat="59.9800967" lon="17.7388177">
        <ele>42.4354</ele>
        <time>2014-05-18T08:09:29Z</time>
      </trkpt>
      <trkpt lat="59.9800654" lon="17.7388383">
        <ele>42.916</ele>
        <time>2014-05-18T08:09:30Z</time>
      </trkpt>
      <trkpt lat="59.9800414" lon="17.738859">
        <ele>42.916</ele>
        <time>2014-05-18T08:09:31Z</time>
      </trkpt>
      <trkpt lat="59.9800167" lon="17.7388586">
        <ele>43.3966</ele>
        <time>2014-05-18T08:09:32Z</time>
      </trkpt>
      <trkpt lat="59.9799896" lon="17.7388542">
        <ele>43.8773</ele>
        <time>2014-05-18T08:09:33Z</time>
      </trkpt>
      <trkpt lat="59.9799556" lon="17.7388501">
        <ele>43.8773</ele>
        <time>2014-05-18T08:09:34Z</time>
      </trkpt>
      <trkpt lat="59.9799218" lon="17.7388451">
        <ele>44.358</ele>
        <time>2014-05-18T08:09:35Z</time>
      </trkpt>
      <trkpt lat="59.9798876" lon="17.7388436">
        <ele>43.8773</ele>
        <time>2014-05-18T08:09:36Z</time>
      </trkpt>
      <trkpt lat="59.9798551" lon="17.7388421">
        <ele>44.358</ele>
        <time>2014-05-18T08:09:37Z</time>
      </trkpt>
      <trkpt lat="59.9798258" lon="17.7388476">
        <ele>44.358</ele>
        <time>2014-05-18T08:09:38Z</time>
      </trkpt>
      <trkpt lat="59.9797913" lon="17.7388596">
        <ele>44.8386</ele>
        <time>2014-05-18T08:09:39Z</time>
      </trkpt>
      <trkpt lat="59.9797575" lon="17.7388673">
        <ele>44.8386</ele>
        <time>2014-05-18T08:09:40Z</time>
      </trkpt>
      <trkpt lat="59.9797246" lon="17.7388813">
        <ele>45.3192</ele>
        <time>2014-05-18T08:09:41Z</time>
      </trkpt>
      <trkpt lat="59.9796938" lon="17.7388958">
        <ele>45.3192</ele>
        <time>2014-05-18T08:09:42Z</time>
      </trkpt>
      <trkpt lat="59.9796645" lon="17.7389115">
        <ele>45.7999</ele>
        <time>2014-05-18T08:09:43Z</time>
      </trkpt>
      <trkpt lat="59.979638" lon="17.7389247">
        <ele>45.7999</ele>
        <time>2014-05-18T08:09:44Z</time>
      </trkpt>
      <trkpt lat="59.979601" lon="17.738948">
        <ele>46.7612</ele>
        <time>2014-05-18T08:09:45Z</time>
      </trkpt>
      <trkpt lat="59.9795707" lon="17.7389596">
        <ele>46.2806</ele>
        <time>2014-05-18T08:09:46Z</time>
      </trkpt>
      <trkpt lat="59.9795503" lon="17.7389579">
        <ele>45.7999</ele>
        <time>2014-05-18T08:09:47Z</time>
      </trkpt>
      <trkpt lat="59.979528" lon="17.7389497">
        <ele>45.3192</ele>
        <time>2014-05-18T08:09:48Z</time>
      </trkpt>
      <trkpt lat="59.9795027" lon="17.7389487">
        <ele>45.3192</ele>
        <time>2014-05-18T08:09:49Z</time>
      </trkpt>
      <trkpt lat="59.9794814" lon="17.7389569">
        <ele>44.8386</ele>
        <time>2014-05-18T08:09:50Z</time>
      </trkpt>
      <trkpt lat="59.9794596" lon="17.7389684">
        <ele>44.358</ele>
        <time>2014-05-18T08:09:51Z</time>
      </trkpt>
      <trkpt lat="59.9794366" lon="17.738984">
        <ele>43.3966</ele>
        <time>2014-05-18T08:09:52Z</time>
      </trkpt>
      <trkpt lat="59.9794125" lon="17.7390039">
        <ele>41.9547</ele>
        <time>2014-05-18T08:09:53Z</time>
      </trkpt>
      <trkpt lat="59.979383" lon="17.73903">
        <ele>41.9547</ele>
        <time>2014-05-18T08:09:54Z</time>
      </trkpt>
      <trkpt lat="59.9793492" lon="17.7390661">
        <ele>41.474</ele>
        <time>2014-05-18T08:09:55Z</time>
      </trkpt>
      <trkpt lat="59.9793171" lon="17.7390963">
        <ele>41.474</ele>
        <time>2014-05-18T08:09:56Z</time>
      </trkpt>
      <trkpt lat="59.9792858" lon="17.7391138">
        <ele>40.5128</ele>
        <time>2014-05-18T08:09:57Z</time>
      </trkpt>
      <trkpt lat="59.9792541" lon="17.739134">
        <ele>40.0321</ele>
        <time>2014-05-18T08:09:58Z</time>
      </trkpt>
      <trkpt lat="59.9792301" lon="17.7391412">
        <ele>40.0321</ele>
        <time>2014-05-18T08:09:59Z</time>
      </trkpt>
      <trkpt lat="59.9792068" lon="17.7391479">
        <ele>40.0321</ele>
        <time>2014-05-18T08:10:00Z</time>
      </trkpt>
      <trkpt lat="59.9791769" lon="17.7391652">
        <ele>40.0321</ele>
        <time>2014-05-18T08:10:01Z</time>
      </trkpt>
      <trkpt lat="59.9791434" lon="17.7391853">
        <ele>40.0321</ele>
        <time>2014-05-18T08:10:02Z</time>
      </trkpt>
      <trkpt lat="59.9791099" lon="17.739206">
        <ele>40.0321</ele>
        <time>2014-05-18T08:10:03Z</time>
      </trkpt>
      <trkpt lat="59.9790762" lon="17.7392291">
        <ele>39.5513</ele>
        <time>2014-05-18T08:10:04Z</time>
      </trkpt>
      <trkpt lat="59.9790379" lon="17.7392607">
        <ele>39.0707</ele>
        <time>2014-05-18T08:10:05Z</time>
      </trkpt>
      <trkpt lat="59.9789991" lon="17.7392883">
        <ele>38.5901</ele>
        <time>2014-05-18T08:10:06Z</time>
      </trkpt>
      <trkpt lat="59.9789625" lon="17.7393099">
        <ele>38.1094</ele>
        <time>2014-05-18T08:10:07Z</time>
      </trkpt>
      <trkpt lat="59.9789305" lon="17.7393266">
        <ele>38.1094</ele>
        <time>2014-05-18T08:10:08Z</time>
      </trkpt>
      <trkpt lat="59.9788957" lon="17.739336">
        <ele>37.6287</ele>
        <time>2014-05-18T08:10:09Z</time>
      </trkpt>
      <trkpt lat="59.9788636" lon="17.7393398">
        <ele>37.6287</ele>
        <time>2014-05-18T08:10:10Z</time>
      </trkpt>
      <trkpt lat="59.9788317" lon="17.7393408">
        <ele>37.1481</ele>
        <time>2014-05-18T08:10:11Z</time>
      </trkpt>
      <trkpt lat="59.9787987" lon="17.7393403">
        <ele>37.1481</ele>
        <time>2014-05-18T08:10:12Z</time>
      </trkpt>
      <trkpt lat="59.9787662" lon="17.739345">
        <ele>36.6675</ele>
        <time>2014-05-18T08:10:13Z</time>
      </trkpt>
      <trkpt lat="59.9787321" lon="17.7393491">
        <ele>36.6675</ele>
        <time>2014-05-18T08:10:14Z</time>
      </trkpt>
      <trkpt lat="59.9786997" lon="17.7393547">
        <ele>37.1481</ele>
        <time>2014-05-18T08:10:15Z</time>
      </trkpt>
      <trkpt lat="59.9786714" lon="17.7393662">
        <ele>37.1481</ele>
        <time>2014-05-18T08:10:16Z</time>
      </trkpt>
      <trkpt lat="59.9786377" lon="17.7393822">
        <ele>37.6287</ele>
        <time>2014-05-18T08:10:17Z</time>
      </trkpt>
      <trkpt lat="59.9785976" lon="17.7393938">
        <ele>38.5901</ele>
        <time>2014-05-18T08:10:18Z</time>
      </trkpt>
      <trkpt lat="59.9785693" lon="17.7393858">
        <ele>38.5901</ele>
        <time>2014-05-18T08:10:19Z</time>
      </trkpt>
      <trkpt lat="59.9785466" lon="17.7393611">
        <ele>39.0707</ele>
        <time>2014-05-18T08:10:20Z</time>
      </trkpt>
      <trkpt lat="59.9785233" lon="17.7393424">
        <ele>39.0707</ele>
        <time>2014-05-18T08:10:21Z</time>
      </trkpt>
      <trkpt lat="59.9784958" lon="17.7393318">
        <ele>39.5513</ele>
        <time>2014-05-18T08:10:22Z</time>
      </trkpt>
      <trkpt lat="59.9784651" lon="17.7393275">
        <ele>40.0321</ele>
        <time>2014-05-18T08:10:23Z</time>
      </trkpt>
      <trkpt lat="59.9784362" lon="17.7393227">
        <ele>40.0321</ele>
        <time>2014-05-18T08:10:24Z</time>
      </trkpt>
      <trkpt lat="59.9784061" lon="17.7393238">
        <ele>40.0321</ele>
        <time>2014-05-18T08:10:25Z</time>
      </trkpt>
      <trkpt lat="59.9783766" lon="17.739317">
        <ele>40.0321</ele>
        <time>2014-05-18T08:10:26Z</time>
      </trkpt>
      <trkpt lat="59.9783501" lon="17.7393241">
        <ele>40.5128</ele>
        <time>2014-05-18T08:10:27Z</time>
      </trkpt>
      <trkpt lat="59.9783208" lon="17.7393323">
        <ele>40.9934</ele>
        <time>2014-05-18T08:10:28Z</time>
      </trkpt>
      <trkpt lat="59.9782892" lon="17.7393251">
        <ele>40.5128</ele>
        <time>2014-05-18T08:10:29Z</time>
      </trkpt>
      <trkpt lat="59.9782584" lon="17.7393071">
        <ele>40.0321</ele>
        <time>2014-05-18T08:10:30Z</time>
      </trkpt>
      <trkpt lat="59.9782277" lon="17.7392942">
        <ele>39.5513</ele>
        <time>2014-05-18T08:10:31Z</time>
      </trkpt>
      <trkpt lat="59.978199" lon="17.7392914">
        <ele>39.0707</ele>
        <time>2014-05-18T08:10:32Z</time>
      </trkpt>
      <trkpt lat="59.978175" lon="17.7392786">
        <ele>38.5901</ele>
        <time>2014-05-18T08:10:33Z</time>
      </trkpt>
      <trkpt lat="59.97815" lon="17.739277">
        <ele>38.5901</ele>
        <time>2014-05-18T08:10:34Z</time>
      </trkpt>
      <trkpt lat="59.9781229" lon="17.7392782">
        <ele>38.5901</ele>
        <time>2014-05-18T08:10:35Z</time>
      </trkpt>
      <trkpt lat="59.9780937" lon="17.7392757">
        <ele>38.5901</ele>
        <time>2014-05-18T08:10:36Z</time>
      </trkpt>
      <trkpt lat="59.9780661" lon="17.7392756">
        <ele>39.0707</ele>
        <time>2014-05-18T08:10:37Z</time>
      </trkpt>
      <trkpt lat="59.9780352" lon="17.7392776">
        <ele>40.0321</ele>
        <time>2014-05-18T08:10:38Z</time>
      </trkpt>
      <trkpt lat="59.9780052" lon="17.7392692">
        <ele>40.5128</ele>
        <time>2014-05-18T08:10:39Z</time>
      </trkpt>
      <trkpt lat="59.9779803" lon="17.7392455">
        <ele>41.474</ele>
        <time>2014-05-18T08:10:40Z</time>
      </trkpt>
      <trkpt lat="59.9779511" lon="17.7392274">
        <ele>41.9547</ele>
        <time>2014-05-18T08:10:41Z</time>
      </trkpt>
      <trkpt lat="59.9779224" lon="17.7392132">
        <ele>41.9547</ele>
        <time>2014-05-18T08:10:42Z</time>
      </trkpt>
      <trkpt lat="59.9778945" lon="17.7391932">
        <ele>42.4354</ele>
        <time>2014-05-18T08:10:43Z</time>
      </trkpt>
      <trkpt lat="59.9778688" lon="17.7391742">
        <ele>42.916</ele>
        <time>2014-05-18T08:10:44Z</time>
      </trkpt>
      <trkpt lat="59.9778447" lon="17.7391567">
        <ele>43.8773</ele>
        <time>2014-05-18T08:10:45Z</time>
      </trkpt>
      <trkpt lat="59.9778173" lon="17.7391393">
        <ele>44.8386</ele>
        <time>2014-05-18T08:10:46Z</time>
      </trkpt>
      <trkpt lat="59.9777944" lon="17.7391141">
        <ele>45.7999</ele>
        <time>2014-05-18T08:10:47Z</time>
      </trkpt>
      <trkpt lat="59.97777" lon="17.7390897">
        <ele>46.7612</ele>
        <time>2014-05-18T08:10:48Z</time>
      </trkpt>
      <trkpt lat="59.9777441" lon="17.7390702">
        <ele>47.7225</ele>
        <time>2014-05-18T08:10:49Z</time>
      </trkpt>
      <trkpt lat="59.9777197" lon="17.7390522">
        <ele>48.2034</ele>
        <time>2014-05-18T08:10:50Z</time>
      </trkpt>
      <trkpt lat="59.9776913" lon="17.7390362">
        <ele>48.684</ele>
        <time>2014-05-18T08:10:51Z</time>
      </trkpt>
      <trkpt lat="59.977658" lon="17.7390316">
        <ele>49.1646</ele>
        <time>2014-05-18T08:10:52Z</time>
      </trkpt>
      <trkpt lat="59.9776193" lon="17.7390405">
        <ele>49.1646</ele>
        <time>2014-05-18T08:10:53Z</time>
      </trkpt>
      <trkpt lat="59.9775808" lon="17.7390412">
        <ele>48.684</ele>
        <time>2014-05-18T08:10:54Z</time>
      </trkpt>
      <trkpt lat="59.9775467" lon="17.7390399">
        <ele>47.7225</ele>
        <time>2014-05-18T08:10:55Z</time>
      </trkpt>
      <trkpt lat="59.9775157" lon="17.7390445">
        <ele>47.2418</ele>
        <time>2014-05-18T08:10:56Z</time>
      </trkpt>
      <trkpt lat="59.9774836" lon="17.7390491">
        <ele>46.7612</ele>
        <time>2014-05-18T08:10:57Z</time>
      </trkpt>
      <trkpt lat="59.9774512" lon="17.7390552">
        <ele>45.7999</ele>
        <time>2014-05-18T08:10:58Z</time>
      </trkpt>
      <trkpt lat="59.9774209" lon="17.7390615">
        <ele>45.3192</ele>
        <time>2014-05-18T08:10:59Z</time>
      </trkpt>
      <trkpt lat="59.9773908" lon="17.739069">
        <ele>44.8386</ele>
        <time>2014-05-18T08:11:00Z</time>
      </trkpt>
      <trkpt lat="59.9773613" lon="17.7390781">
        <ele>44.358</ele>
        <time>2014-05-18T08:11:01Z</time>
      </trkpt>
      <trkpt lat="59.9773314" lon="17.7390851">
        <ele>43.8773</ele>
        <time>2014-05-18T08:11:02Z</time>
      </trkpt>
      <trkpt lat="59.9772997" lon="17.7390958">
        <ele>43.8773</ele>
        <time>2014-05-18T08:11:03Z</time>
      </trkpt>
      <trkpt lat="59.9772696" lon="17.7391052">
        <ele>43.3966</ele>
        <time>2014-05-18T08:11:04Z</time>
      </trkpt>
      <trkpt lat="59.9772383" lon="17.7391176">
        <ele>42.916</ele>
        <time>2014-05-18T08:11:05Z</time>
      </trkpt>
      <trkpt lat="59.9772037" lon="17.7391405">
        <ele>42.916</ele>
        <time>2014-05-18T08:11:06Z</time>
      </trkpt>
      <trkpt lat="59.9771697" lon="17.7391724">
        <ele>42.4354</ele>
        <time>2014-05-18T08:11:07Z</time>
      </trkpt>
      <trkpt lat="59.9771404" lon="17.739198">
        <ele>42.4354</ele>
        <time>2014-05-18T08:11:08Z</time>
      </trkpt>
      <trkpt lat="59.9771111" lon="17.7392113">
        <ele>41.9547</ele>
        <time>2014-05-18T08:11:09Z</time>
      </trkpt>
      <trkpt lat="59.9770798" lon="17.7392247">
        <ele>40.9934</ele>
        <time>2014-05-18T08:11:10Z</time>
      </trkpt>
      <trkpt lat="59.9770477" lon="17.7392418">
        <ele>40.9934</ele>
        <time>2014-05-18T08:11:11Z</time>
      </trkpt>
      <trkpt lat="59.9770159" lon="17.7392647">
        <ele>40.5128</ele>
        <time>2014-05-18T08:11:12Z</time>
      </trkpt>
      <trkpt lat="59.9769802" lon="17.7392866">
        <ele>40.0321</ele>
        <time>2014-05-18T08:11:13Z</time>
      </trkpt>
      <trkpt lat="59.9769434" lon="17.7392982">
        <ele>39.5513</ele>
        <time>2014-05-18T08:11:14Z</time>
      </trkpt>
      <trkpt lat="59.9769097" lon="17.7393128">
        <ele>39.0707</ele>
        <time>2014-05-18T08:11:15Z</time>
      </trkpt>
      <trkpt lat="59.9768754" lon="17.7393398">
        <ele>38.5901</ele>
        <time>2014-05-18T08:11:16Z</time>
      </trkpt>
      <trkpt lat="59.9768469" lon="17.7393738">
        <ele>38.5901</ele>
        <time>2014-05-18T08:11:17Z</time>
      </trkpt>
      <trkpt lat="59.9768231" lon="17.7394189">
        <ele>38.5901</ele>
        <time>2014-05-18T08:11:18Z</time>
      </trkpt>
      <trkpt lat="59.9767988" lon="17.7394621">
        <ele>39.5513</ele>
        <time>2014-05-18T08:11:19Z</time>
      </trkpt>
      <trkpt lat="59.976776" lon="17.7395023">
        <ele>40.5128</ele>
        <time>2014-05-18T08:11:20Z</time>
      </trkpt>
      <trkpt lat="59.9767521" lon="17.7395517">
        <ele>41.474</ele>
        <time>2014-05-18T08:11:21Z</time>
      </trkpt>
      <trkpt lat="59.9767196" lon="17.7395653">
        <ele>42.4354</ele>
        <time>2014-05-18T08:11:22Z</time>
      </trkpt>
      <trkpt lat="59.9766818" lon="17.7395501">
        <ele>44.358</ele>
        <time>2014-05-18T08:11:23Z</time>
      </trkpt>
      <trkpt lat="59.9766504" lon="17.7395563">
        <ele>44.8386</ele>
        <time>2014-05-18T08:11:24Z</time>
      </trkpt>
      <trkpt lat="59.9766205" lon="17.7395549">
        <ele>44.8386</ele>
        <time>2014-05-18T08:11:25Z</time>
      </trkpt>
      <trkpt lat="59.9765903" lon="17.7395527">
        <ele>45.3192</ele>
        <time>2014-05-18T08:11:26Z</time>
      </trkpt>
      <trkpt lat="59.9765583" lon="17.7395694">
        <ele>45.3192</ele>
        <time>2014-05-18T08:11:27Z</time>
      </trkpt>
      <trkpt lat="59.97653" lon="17.7395877">
        <ele>45.3192</ele>
        <time>2014-05-18T08:11:28Z</time>
      </trkpt>
      <trkpt lat="59.9764966" lon="17.7396178">
        <ele>45.7999</ele>
        <time>2014-05-18T08:11:29Z</time>
      </trkpt>
      <trkpt lat="59.97646" lon="17.7396501">
        <ele>46.2806</ele>
        <time>2014-05-18T08:11:30Z</time>
      </trkpt>
      <trkpt lat="59.9764332" lon="17.7396826">
        <ele>45.7999</ele>
        <time>2014-05-18T08:11:31Z</time>
      </trkpt>
      <trkpt lat="59.9764127" lon="17.7397111">
        <ele>44.358</ele>
        <time>2014-05-18T08:11:32Z</time>
      </trkpt>
      <trkpt lat="59.9763847" lon="17.7397463">
        <ele>43.8773</ele>
        <time>2014-05-18T08:11:33Z</time>
      </trkpt>
      <trkpt lat="59.9763489" lon="17.7397849">
        <ele>42.916</ele>
        <time>2014-05-18T08:11:34Z</time>
      </trkpt>
      <trkpt lat="59.9763186" lon="17.7398039">
        <ele>43.3966</ele>
        <time>2014-05-18T08:11:35Z</time>
      </trkpt>
      <trkpt lat="59.9762899" lon="17.7398143">
        <ele>43.3966</ele>
        <time>2014-05-18T08:11:36Z</time>
      </trkpt>
      <trkpt lat="59.976259" lon="17.7398239">
        <ele>42.4354</ele>
        <time>2014-05-18T08:11:37Z</time>
      </trkpt>
      <trkpt lat="59.9762306" lon="17.7398268">
        <ele>41.9547</ele>
        <time>2014-05-18T08:11:38Z</time>
      </trkpt>
      <trkpt lat="59.9762062" lon="17.73982">
        <ele>41.474</ele>
        <time>2014-05-18T08:11:39Z</time>
      </trkpt>
      <trkpt lat="59.9761823" lon="17.7398108">
        <ele>40.9934</ele>
        <time>2014-05-18T08:11:40Z</time>
      </trkpt>
      <trkpt lat="59.9761562" lon="17.7397954">
        <ele>40.0321</ele>
        <time>2014-05-18T08:11:41Z</time>
      </trkpt>
      <trkpt lat="59.9761274" lon="17.7397745">
        <ele>38.5901</ele>
        <time>2014-05-18T08:11:42Z</time>
      </trkpt>
      <trkpt lat="59.9761026" lon="17.7397386">
        <ele>38.1094</ele>
        <time>2014-05-18T08:11:43Z</time>
      </trkpt>
      <trkpt lat="59.9760749" lon="17.7397014">
        <ele>37.6287</ele>
        <time>2014-05-18T08:11:44Z</time>
      </trkpt>
      <trkpt lat="59.9760497" lon="17.739663">
        <ele>36.6675</ele>
        <time>2014-05-18T08:11:45Z</time>
      </trkpt>
      <trkpt lat="59.9760238" lon="17.7396335">
        <ele>36.1868</ele>
        <time>2014-05-18T08:11:46Z</time>
      </trkpt>
      <trkpt lat="59.9759972" lon="17.7395987">
        <ele>35.7061</ele>
        <time>2014-05-18T08:11:47Z</time>
      </trkpt>
      <trkpt lat="59.9759728" lon="17.7395566">
        <ele>34.7449</ele>
        <time>2014-05-18T08:11:48Z</time>
      </trkpt>
      <trkpt lat="59.9759497" lon="17.7395107">
        <ele>34.2642</ele>
        <time>2014-05-18T08:11:49Z</time>
      </trkpt>
      <trkpt lat="59.9759247" lon="17.7394657">
        <ele>33.7834</ele>
        <time>2014-05-18T08:11:50Z</time>
      </trkpt>
      <trkpt lat="59.9759" lon="17.7394225">
        <ele>33.7834</ele>
        <time>2014-05-18T08:11:51Z</time>
      </trkpt>
      <trkpt lat="59.9758746" lon="17.7393802">
        <ele>33.3029</ele>
        <time>2014-05-18T08:11:52Z</time>
      </trkpt>
      <trkpt lat="59.9758496" lon="17.739344">
        <ele>33.3029</ele>
        <time>2014-05-18T08:11:53Z</time>
      </trkpt>
      <trkpt lat="59.9758279" lon="17.7393077">
        <ele>33.3029</ele>
        <time>2014-05-18T08:11:54Z</time>
      </trkpt>
      <trkpt lat="59.9758063" lon="17.7392606">
        <ele>33.3029</ele>
        <time>2014-05-18T08:11:55Z</time>
      </trkpt>
      <trkpt lat="59.9757827" lon="17.7392146">
        <ele>32.3416</ele>
        <time>2014-05-18T08:11:56Z</time>
      </trkpt>
      <trkpt lat="59.9757605" lon="17.7391704">
        <ele>31.8607</ele>
        <time>2014-05-18T08:11:57Z</time>
      </trkpt>
      <trkpt lat="59.9757384" lon="17.7391268">
        <ele>30.8995</ele>
        <time>2014-05-18T08:11:58Z</time>
      </trkpt>
      <trkpt lat="59.9757152" lon="17.7390816">
        <ele>30.8995</ele>
        <time>2014-05-18T08:11:59Z</time>
      </trkpt>
      <trkpt lat="59.9756976" lon="17.7390348">
        <ele>29.9381</ele>
        <time>2014-05-18T08:12:00Z</time>
      </trkpt>
      <trkpt lat="59.9756769" lon="17.7389912">
        <ele>29.9381</ele>
        <time>2014-05-18T08:12:01Z</time>
      </trkpt>
      <trkpt lat="59.9756525" lon="17.7389459">
        <ele>29.4575</ele>
        <time>2014-05-18T08:12:02Z</time>
      </trkpt>
      <trkpt lat="59.9756263" lon="17.7389069">
        <ele>28.9769</ele>
        <time>2014-05-18T08:12:03Z</time>
      </trkpt>
      <trkpt lat="59.9756018" lon="17.7388647">
        <ele>28.9769</ele>
        <time>2014-05-18T08:12:04Z</time>
      </trkpt>
      <trkpt lat="59.9755748" lon="17.738815">
        <ele>28.9769</ele>
        <time>2014-05-18T08:12:05Z</time>
      </trkpt>
      <trkpt lat="59.9755477" lon="17.7387686">
        <ele>28.9769</ele>
        <time>2014-05-18T08:12:06Z</time>
      </trkpt>
      <trkpt lat="59.9755234" lon="17.7387243">
        <ele>28.4962</ele>
        <time>2014-05-18T08:12:07Z</time>
      </trkpt>
      <trkpt lat="59.9754987" lon="17.7386777">
        <ele>28.4962</ele>
        <time>2014-05-18T08:12:08Z</time>
      </trkpt>
      <trkpt lat="59.975474" lon="17.7386349">
        <ele>28.4962</ele>
        <time>2014-05-18T08:12:09Z</time>
      </trkpt>
      <trkpt lat="59.9754503" lon="17.7385965">
        <ele>28.4962</ele>
        <time>2014-05-18T08:12:10Z</time>
      </trkpt>
      <trkpt lat="59.9754266" lon="17.7385567">
        <ele>28.0155</ele>
        <time>2014-05-18T08:12:11Z</time>
      </trkpt>
      <trkpt lat="59.9754053" lon="17.7385193">
        <ele>28.0155</ele>
        <time>2014-05-18T08:12:12Z</time>
      </trkpt>
      <trkpt lat="59.9753823" lon="17.7384711">
        <ele>27.5349</ele>
        <time>2014-05-18T08:12:13Z</time>
      </trkpt>
      <trkpt lat="59.9753561" lon="17.7384214">
        <ele>28.0155</ele>
        <time>2014-05-18T08:12:14Z</time>
      </trkpt>
      <trkpt lat="59.9753297" lon="17.7383815">
        <ele>27.5349</ele>
        <time>2014-05-18T08:12:15Z</time>
      </trkpt>
      <trkpt lat="59.9753043" lon="17.7383365">
        <ele>27.5349</ele>
        <time>2014-05-18T08:12:16Z</time>
      </trkpt>
      <trkpt lat="59.9752806" lon="17.7382971">
        <ele>27.0543</ele>
        <time>2014-05-18T08:12:17Z</time>
      </trkpt>
      <trkpt lat="59.9752592" lon="17.7382577">
        <ele>27.0543</ele>
        <time>2014-05-18T08:12:18Z</time>
      </trkpt>
      <trkpt lat="59.9752375" lon="17.7382174">
        <ele>26.5736</ele>
        <time>2014-05-18T08:12:19Z</time>
      </trkpt>
      <trkpt lat="59.9752162" lon="17.7381777">
        <ele>26.5736</ele>
        <time>2014-05-18T08:12:20Z</time>
      </trkpt>
      <trkpt lat="59.9751945" lon="17.738138">
        <ele>26.5736</ele>
        <time>2014-05-18T08:12:21Z</time>
      </trkpt>
      <trkpt lat="59.9751722" lon="17.7380995">
        <ele>26.0929</ele>
        <time>2014-05-18T08:12:22Z</time>
      </trkpt>
      <trkpt lat="59.9751494" lon="17.7380614">
        <ele>26.0929</ele>
        <time>2014-05-18T08:12:23Z</time>
      </trkpt>
      <trkpt lat="59.9751281" lon="17.7380239">
        <ele>26.0929</ele>
        <time>2014-05-18T08:12:24Z</time>
      </trkpt>
    </trkseg>
  </trk>
</gpx>